[[{"header":{"parameterUnit":"m.s-1","parameterCategory":1,"la1":31.0,"la2":29.5877,"lo1":-88.7671,"lo2":-86.6584,"dy":0.0162,"dx":0.0185,"nx":115,"ny":88,"refTime":"2023-03-18T06:00:00:Z","depth":0,"parameterNumber":2,"parameterNumberName":"U-component_of_WINDS"},"data":[0.0,0.0,0.0,0.0,0.0,0.0,0.0,0.0,0.0,0.0,0.0,0.0,0.0,0.0,0.0,0.0,0.0,0.0,0.0,0.0,0.0,0.0,0.0,0.0,0.0,0.0,0.0,0.0,0.0,0.0,0.0,0.0,0.0,0.0,0.0,0.0,0.0,0.0,0.0,0.0,0.0,0.0,0.0,0.0,0.0,0.0,0.0,0.0,0.0,0.0,0.0,0.0,0.0,0.0,0.0,0.0,0.0,0.0,0.0,0.0,0.0,0.0,0.0,0.0,0.0,0.0,0.0,0.0,0.0,0.0,0.0,0.0,0.0,0.0,0.0,0.0,0.0,0.0,0.0,0.0,0.0,0.0,0.0,0.0,0.0,0.0,0.0,0.0,0.0,0.0,0.0,0.0,0.0,0.0,0.0,0.0,0.0,0.0,0.0,0.0,0.0,0.0,0.0,0.0,0.0,0.0,0.0,0.0,0.0,0.0,0.0,0.0,0.0,0.0,0.0,0.0,0.0,0.0,0.0,0.0,0.0,0.0,0.0,0.0,0.0,0.0,0.0,0.0,0.0,0.0,0.0,0.0,0.0,0.0,0.0,0.0,0.0,0.0,0.0,0.0,0.0,0.0,0.0,0.0,0.0,0.0,0.0,0.0,0.0,0.0,0.0,0.0,0.0,0.0,0.0,0.0,0.0,0.0,0.0,0.0,0.0,0.0,0.0,0.0,0.0,0.0,0.0,0.0,0.0,0.0,0.0,0.0,0.0,0.0,0.0,0.0,0.0,0.0,0.0,0.0,0.0,0.0,0.0,0.0,0.0,0.0,0.0,0.0,0.0,0.0,0.0,0.0,0.0,0.0,0.0,0.0,0.0,0.0,0.0,0.0,0.0,0.0,0.0,0.0,0.0,0.0,0.0,0.0,0.0,0.0,0.0,0.0,0.0,0.0,0.0,0.0,0.0,0.0,0.0,0.0,0.0,0.0,0.0,0.0,0.0,0.0,0.0,0.0,0.0,0.0,0.0,0.0,0.0,0.0,0.0,0.0,0.0,0.0,0.0,0.0,0.0,0.0,0.0,0.0,0.0,0.0,0.0,0.0,0.0,0.0,0.0,0.0,0.0,0.0,0.0,0.0,0.0,0.0,0.0,0.0,0.0,0.0,0.0,0.0,0.0,0.0,0.0,0.0,0.0,0.0,0.0,0.0,0.0,0.0,0.0,0.0,0.0,0.0,0.0,0.0,0.0,0.0,0.0,0.0,0.0,0.0,0.0,0.0,0.0,0.0,0.0,0.0,0.0,0.0,0.0,0.0,0.0,0.0,0.0,0.0,0.0,0.0,0.0,0.0,0.0,0.0,0.0,0.0,0.0,0.0,0.0,0.0,0.0,0.0,0.0,0.0,0.0,0.0,0.0,0.0,0.0,0.0,0.0,0.0,0.0,0.0,0.0,0.0,0.0,0.0,0.0,0.0,0.0,0.0,0.0,0.0,0.0,0.0,0.0,0.0,0.0,0.0,0.0,0.0,0.0,0.0,0.0,0.0,0.0,0.0,0.0,0.0,0.0,0.0,0.0,0.0,0.0,0.0,0.0,0.0,0.0,0.0,0.0,0.0,0.0,0.0,0.0,0.0,0.0,0.0,0.0,0.0,0.0,0.0,0.0,0.0,0.0,0.0,0.0,0.0,0.0,0.0,0.0,0.0,0.0,0.0,0.0,0.0,0.0,0.0,0.0,0.0,0.0,0.0,0.0,0.0,0.0,0.0,0.0,0.0,0.0,0.0,0.0,0.0,0.0,0.0,0.0,0.0,0.0,0.0,0.0,0.0,0.0,0.0,0.0,0.0,0.0,0.0,0.0,0.0,0.0,0.0,0.0,0.0,0.0,0.0,0.0,0.0,0.0,0.0,0.0,0.0,0.0,0.0,0.0,0.0,0.0,0.0,0.0,0.0,0.0,0.0,0.0,0.0,0.0,0.0,0.0,0.0,0.0,0.0,0.0,0.0,0.0,0.0,0.0,0.0,0.0,0.0,0.0,0.0,0.0,0.0,0.0,0.0,0.0,0.0,0.0,0.0,0.0,0.0,0.0,0.0,0.0,0.0,0.0,0.0,0.0,0.0,0.0,0.0,0.0,0.0,0.0,0.0,0.0,0.0,0.0,0.0,0.0,0.0,0.0,0.0,0.0,0.0,0.0,0.0,0.0,0.0,0.0,0.0,0.0,0.0,0.0,0.0,0.0,0.0,0.0,0.0,0.0,0.0,0.0,0.0,0.0,0.0,0.0,0.0,0.0,0.0,0.0,0.0,0.0,0.0,0.0,0.0,0.0,0.0,0.0,0.0,0.0,0.0,0.0,0.0,0.0,0.0,0.0,0.0,0.0,0.0,0.0,0.0,0.0,0.0,0.0,0.0,0.0,0.0,0.0,0.0,0.0,0.0,0.0,0.0,0.0,0.0,0.0,0.0,0.0,0.0,0.0,0.0,0.0,0.0,0.0,0.0,0.0,0.0,0.0,0.0,0.0,0.0,0.0,0.0,0.0,0.0,0.0,0.0,0.0,0.0,0.0,0.0,0.0,0.0,0.0,0.0,0.0,0.0,0.0,0.0,0.0,0.0,0.0,0.0,0.0,0.0,0.0,0.0,0.0,0.0,0.0,0.0,0.0,0.0,0.0,0.0,0.0,0.0,0.0,0.0,0.0,0.0,0.0,0.0,0.0,0.0,0.0,0.0,0.0,0.0,0.0,0.0,0.0,0.0,0.0,0.0,0.0,0.0,0.0,0.0,0.0,0.0,0.0,0.0,0.0,0.0,0.0,0.0,0.0,0.0,0.0,0.0,0.0,0.0,0.0,0.0,0.0,0.0,0.0,0.0,0.0,0.0,0.0,0.0,0.0,0.0,0.0,0.0,0.0,0.0,0.0,0.0,0.0,0.0,0.0,0.0,0.0,0.0,0.0,0.0,0.0,0.0,0.0,0.0,0.0,0.0,0.0,0.0,0.0,0.0,0.0,0.0,0.0,0.0,0.0,0.0,0.0,0.0,0.0,0.0,0.0,0.0,0.0,0.0,0.0,0.0,0.0,0.0,0.0,0.0,0.0,0.0,0.0,0.0,0.0,0.0,0.0,0.0,0.0,0.0,0.0,0.0,0.0,0.0,0.0,0.0,0.0,0.0,0.0,0.0,0.0,0.0,0.0,0.0,0.0,0.0,0.0,0.0,0.0,0.0,0.0,0.0,0.0,0.0,0.0,0.0,0.0,0.0,0.0,0.0,0.0,0.0,0.0,0.0,0.0,0.0,0.0,0.0,0.0,0.0,0.0,0.0,0.0,0.0,0.0,0.0,0.0,0.0,0.0,0.0,0.0,0.0,0.0,0.0,0.0,0.0,0.0,0.0,0.0,0.0,0.0,0.0,0.0,0.0,0.0,0.0,0.0,0.0,0.0,0.0,0.0,0.0,0.0,0.0,0.0,0.0,0.0,0.0,0.0,0.0,0.0,0.0,0.0,0.0,0.0,0.0,0.0,0.0,0.0,0.0,0.0,0.0,0.0,0.0,0.0,0.0,0.0,0.0,0.0,0.0,0.0,0.0,0.0,0.0,0.0,0.0,0.0,0.0,0.0,0.0,0.0,0.0,0.0,0.0,0.0,0.0,0.0,0.0,0.0,0.0,0.0,0.0,0.0,0.0,0.0,0.0,0.0,0.0,0.0,0.0,0.0,0.0,0.0,0.0,0.0,0.0,0.0,0.0,0.0,0.0,0.0,0.0,0.0,0.0,0.0,0.0,0.0,0.0,0.0,0.0,0.0,0.0,0.0,0.0,0.0,0.0,0.0,0.0,0.0,0.0,0.0,0.0,0.0,0.0,0.0,0.0,0.0,0.0,0.0,0.0,0.0,0.0,0.0,0.0,0.0,0.0,0.0,0.0,0.0,0.0,0.0,0.0,0.0,0.0,0.0,0.0,0.0,0.0,0.0,0.0,0.0,0.0,0.0,0.0,0.0,0.0,0.0,0.0,0.0,0.0,0.0,0.0,0.0,0.0,0.0,0.0,0.0,0.0,0.0,0.0,0.0,0.0,0.0,0.0,0.0,0.0,0.0,0.0,0.0,0.0,0.0,0.0,0.0,0.0,0.0,0.0,0.0,0.0,0.0,0.0,0.0,0.0,0.0,0.0,0.0,0.0,0.0,0.0,0.0,0.0,0.0,0.0,0.0,0.0,0.0,0.0,0.0,0.0,0.0,0.0,0.0,0.0,0.0,0.0,0.0,0.0,0.0,0.0,-1.9316,0.0,0.0,0.0,0.0,0.0,0.0,0.0,0.0,0.0,0.0,0.0,0.0,0.0,0.0,0.0,0.0,0.0,0.0,0.0,0.0,0.0,0.0,0.0,0.0,0.0,0.0,0.0,0.0,0.0,0.0,0.0,0.0,0.0,0.0,0.0,0.0,0.0,0.0,0.0,0.0,0.0,0.0,0.0,0.0,0.0,0.0,0.0,0.0,0.0,0.0,0.0,0.0,0.0,0.0,0.0,0.0,0.0,0.0,0.0,0.0,0.0,0.0,0.0,0.0,0.0,0.0,0.0,0.0,0.0,0.0,0.0,0.0,0.0,0.0,0.0,0.0,0.0,0.0,0.0,0.0,0.0,0.0,0.0,0.0,0.0,0.0,0.0,0.0,0.0,0.0,0.0,0.0,0.0,0.0,0.0,0.0,0.0,0.0,0.0,0.0,0.0,0.0,0.0,0.0,0.0,0.0,0.0,0.0,0.0,0.0,-1.9434,-1.9682,-1.9107,-1.8854,-1.8934,0.0,0.0,0.0,0.0,0.0,0.0,0.0,0.0,0.0,0.0,0.0,0.0,0.0,0.0,0.0,0.0,0.0,0.0,0.0,0.0,0.0,0.0,0.0,0.0,0.0,0.0,0.0,0.0,0.0,0.0,0.0,0.0,0.0,0.0,0.0,0.0,0.0,0.0,0.0,0.0,0.0,0.0,0.0,0.0,0.0,0.0,0.0,0.0,0.0,0.0,0.0,0.0,0.0,0.0,0.0,0.0,0.0,0.0,0.0,0.0,0.0,0.0,0.0,0.0,0.0,0.0,0.0,0.0,0.0,0.0,0.0,0.0,0.0,0.0,0.0,0.0,0.0,0.0,0.0,0.0,0.0,0.0,0.0,0.0,0.0,0.0,0.0,0.0,0.0,0.0,0.0,0.0,0.0,0.0,0.0,0.0,0.0,0.0,0.0,0.0,0.0,0.0,0.0,0.0,0.0,0.0,0.0,0.0,0.0,0.0,0.0,0.0,-1.8827,-1.8479,-1.8479,0.0,0.0,0.0,0.0,0.0,0.0,0.0,0.0,0.0,0.0,0.0,0.0,0.0,0.0,0.0,0.0,0.0,0.0,0.0,0.0,0.0,0.0,0.0,0.0,0.0,0.0,0.0,0.0,0.0,0.0,0.0,0.0,0.0,0.0,0.0,0.0,0.0,0.0,0.0,0.0,0.0,0.0,0.0,0.0,0.0,0.0,0.0,0.0,0.0,0.0,0.0,0.0,0.0,0.0,0.0,0.0,0.0,0.0,0.0,0.0,0.0,0.0,0.0,0.0,0.0,0.0,0.0,0.0,0.0,0.0,0.0,0.0,0.0,0.0,0.0,0.0,0.0,0.0,0.0,0.0,0.0,0.0,0.0,0.0,0.0,0.0,0.0,0.0,0.0,0.0,0.0,0.0,0.0,0.0,0.0,0.0,0.0,0.0,0.0,0.0,0.0,0.0,0.0,0.0,0.0,0.0,0.0,0.0,0.0,0.0,-1.8801,-1.9052,-1.8464,0.0,-1.8139,0.0,0.0,0.0,0.0,0.0,0.0,0.0,0.0,0.0,0.0,0.0,0.0,0.0,0.0,0.0,0.0,0.0,0.0,0.0,0.0,0.0,0.0,0.0,0.0,0.0,0.0,0.0,0.0,0.0,0.0,0.0,0.0,0.0,0.0,0.0,0.0,0.0,0.0,0.0,0.0,0.0,0.0,0.0,0.0,0.0,0.0,0.0,0.0,0.0,0.0,0.0,0.0,0.0,0.0,0.0,0.0,0.0,0.0,0.0,0.0,0.0,0.0,0.0,0.0,0.0,0.0,0.0,0.0,0.0,0.0,0.0,0.0,0.0,0.0,0.0,0.0,0.0,0.0,0.0,0.0,0.0,0.0,0.0,0.0,0.0,0.0,0.0,0.0,0.0,0.0,0.0,0.0,0.0,0.0,0.0,0.0,0.0,0.0,0.0,0.0,0.0,0.0,0.0,0.0,0.0,0.0,0.0,0.0,0.0,0.0,-1.9093,-1.9119,-1.864,-1.8302,0.0,0.0,0.0,0.0,0.0,0.0,0.0,0.0,0.0,0.0,0.0,0.0,0.0,0.0,0.0,0.0,0.0,0.0,0.0,0.0,0.0,0.0,0.0,0.0,0.0,0.0,0.0,0.0,0.0,0.0,0.0,0.0,0.0,0.0,0.0,0.0,0.0,0.0,0.0,0.0,0.0,0.0,0.0,0.0,0.0,0.0,0.0,0.0,0.0,0.0,0.0,0.0,0.0,0.0,0.0,0.0,0.0,0.0,0.0,0.0,0.0,0.0,0.0,0.0,0.0,0.0,0.0,0.0,0.0,0.0,0.0,0.0,0.0,0.0,0.0,0.0,0.0,0.0,0.0,0.0,0.0,0.0,0.0,0.0,0.0,0.0,0.0,0.0,0.0,0.0,0.0,0.0,0.0,0.0,0.0,0.0,0.0,0.0,0.0,0.0,0.0,0.0,0.0,0.0,0.0,0.0,0.0,0.0,0.0,0.0,-1.9277,-1.8987,-1.8907,-1.8614,-1.8356,-1.8111,0.0,0.0,0.0,0.0,0.0,0.0,0.0,0.0,0.0,0.0,0.0,0.0,0.0,0.0,0.0,0.0,0.0,0.0,0.0,0.0,0.0,0.0,0.0,0.0,0.0,0.0,0.0,0.0,0.0,0.0,0.0,0.0,0.0,0.0,0.0,0.0,0.0,0.0,0.0,0.0,0.0,0.0,0.0,0.0,0.0,0.0,0.0,0.0,0.0,0.0,0.0,0.0,0.0,0.0,0.0,0.0,0.0,0.0,0.0,0.0,0.0,0.0,0.0,0.0,0.0,0.0,0.0,0.0,0.0,0.0,0.0,0.0,0.0,0.0,0.0,0.0,0.0,0.0,0.0,0.0,0.0,0.0,0.0,0.0,0.0,0.0,0.0,0.0,0.0,0.0,0.0,0.0,0.0,0.0,0.0,0.0,0.0,0.0,0.0,0.0,0.0,0.0,0.0,0.0,0.0,0.0,0.0,0.0,-1.9368,-1.8598,-1.8166,-1.8166,-1.8139,-1.8111,0.0,0.0,0.0,0.0,0.0,0.0,0.0,0.0,0.0,0.0,0.0,0.0,0.0,0.0,0.0,0.0,0.0,0.0,0.0,0.0,0.0,0.0,0.0,0.0,0.0,0.0,0.0,0.0,0.0,0.0,0.0,0.0,0.0,0.0,0.0,0.0,0.0,0.0,0.0,0.0,0.0,0.0,0.0,0.0,0.0,0.0,0.0,0.0,0.0,0.0,0.0,0.0,0.0,0.0,0.0,0.0,0.0,0.0,0.0,0.0,0.0,0.0,0.0,0.0,0.0,0.0,0.0,0.0,0.0,0.0,0.0,0.0,0.0,0.0,0.0,0.0,0.0,0.0,0.0,0.0,0.0,0.0,0.0,0.0,0.0,0.0,0.0,0.0,0.0,0.0,0.0,0.0,0.0,0.0,0.0,0.0,0.0,0.0,0.0,0.0,0.0,0.0,0.0,0.0,0.0,0.0,0.0,0.0,0.0,-1.8854,-1.8383,-1.8084,-1.8084,-1.8084,-1.8084,0.0,0.0,0.0,0.0,0.0,0.0,0.0,0.0,0.0,0.0,0.0,0.0,0.0,0.0,0.0,0.0,0.0,0.0,0.0,0.0,0.0,0.0,0.0,0.0,0.0,0.0,0.0,0.0,0.0,0.0,0.0,0.0,0.0,0.0,0.0,0.0,0.0,0.0,0.0,0.0,0.0,0.0,0.0,0.0,0.0,0.0,0.0,0.0,0.0,0.0,0.0,0.0,0.0,0.0,0.0,0.0,0.0,0.0,0.0,0.0,0.0,0.0,0.0,0.0,0.0,0.0,0.0,0.0,0.0,0.0,0.0,0.0,0.0,0.0,0.0,0.0,0.0,0.0,0.0,0.0,0.0,0.0,0.0,0.0,0.0,0.0,0.0,0.0,0.0,0.0,0.0,0.0,0.0,0.0,0.0,0.0,0.0,0.0,0.0,0.0,0.0,0.0,0.0,0.0,0.0,0.0,0.0,0.0,0.0,-1.8425,0.0,-1.8084,-1.8084,-1.8084,-1.8084,0.0,0.0,0.0,0.0,0.0,0.0,0.0,0.0,0.0,0.0,0.0,0.0,0.0,0.0,0.0,0.0,0.0,0.0,0.0,0.0,0.0,0.0,0.0,0.0,0.0,0.0,0.0,0.0,0.0,0.0,0.0,0.0,0.0,0.0,0.0,0.0,0.0,0.0,0.0,0.0,0.0,0.0,0.0,0.0,0.0,0.0,0.0,0.0,0.0,0.0,0.0,0.0,0.0,0.0,0.0,0.0,0.0,0.0,0.0,0.0,0.0,0.0,0.0,0.0,0.0,0.0,0.0,0.0,0.0,0.0,0.0,0.0,0.0,0.0,0.0,0.0,0.0,0.0,0.0,0.0,0.0,0.0,0.0,0.0,0.0,0.0,0.0,0.0,0.0,0.0,0.0,0.0,0.0,0.0,0.0,0.0,0.0,0.0,0.0,0.0,0.0,0.0,0.0,0.0,0.0,0.0,0.0,0.0,-1.8336,-1.8111,-1.8111,-1.8084,-1.8084,-1.8111,-1.8111,0.0,0.0,0.0,0.0,0.0,0.0,0.0,0.0,0.0,0.0,0.0,0.0,0.0,0.0,0.0,0.0,0.0,0.0,0.0,0.0,0.0,0.0,0.0,0.0,0.0,0.0,0.0,0.0,0.0,0.0,0.0,0.0,0.0,0.0,0.0,0.0,0.0,0.0,0.0,0.0,0.0,0.0,0.0,0.0,0.0,0.0,0.0,0.0,0.0,0.0,0.0,0.0,0.0,0.0,0.0,0.0,0.0,0.0,0.0,0.0,0.0,0.0,0.0,0.0,0.0,0.0,0.0,0.0,0.0,0.0,0.0,0.0,0.0,0.0,0.0,0.0,0.0,0.0,0.0,0.0,0.0,0.0,0.0,0.0,0.0,0.0,0.0,0.0,0.0,0.0,0.0,0.0,0.0,0.0,0.0,0.0,0.0,0.0,0.0,0.0,0.0,0.0,0.0,0.0,0.0,0.0,0.0,0.0,0.0,-1.8134,-1.8084,-1.8084,-1.8084,-1.8232,-1.8313,0.0,0.0,0.0,0.0,0.0,0.0,0.0,0.0,0.0,0.0,0.0,0.0,0.0,0.0,0.0,0.0,0.0,0.0,0.0,0.0,0.0,0.0,0.0,0.0,0.0,0.0,0.0,0.0,0.0,0.0,0.0,0.0,0.0,0.0,0.0,0.0,0.0,0.0,0.0,0.0,0.0,0.0,0.0,0.0,0.0,0.0,0.0,0.0,0.0,0.0,0.0,0.0,0.0,0.0,0.0,0.0,0.0,0.0,0.0,0.0,0.0,0.0,0.0,0.0,0.0,0.0,0.0,0.0,0.0,0.0,0.0,0.0,0.0,0.0,0.0,0.0,0.0,0.0,0.0,0.0,0.0,0.0,0.0,0.0,0.0,0.0,0.0,0.0,0.0,0.0,0.0,0.0,0.0,0.0,0.0,0.0,0.0,0.0,0.0,0.0,0.0,0.0,0.0,0.0,0.0,0.0,0.0,0.0,0.0,-1.8765,-1.8719,-1.864,-1.8459,-1.86,-1.8557,-1.8418,0.0,0.0,0.0,0.0,0.0,0.0,0.0,0.0,0.0,0.0,0.0,0.0,0.0,0.0,0.0,0.0,0.0,0.0,0.0,0.0,0.0,0.0,0.0,0.0,0.0,0.0,0.0,0.0,0.0,0.0,0.0,0.0,0.0,0.0,0.0,0.0,0.0,0.0,0.0,0.0,0.0,0.0,0.0,0.0,0.0,0.0,0.0,0.0,0.0,0.0,0.0,0.0,0.0,0.0,0.0,0.0,0.0,0.0,0.0,0.0,0.0,0.0,0.0,0.0,0.0,0.0,0.0,0.0,0.0,0.0,0.0,0.0,0.0,0.0,0.0,0.0,0.0,0.0,0.0,0.0,0.0,0.0,0.0,0.0,0.0,0.0,0.0,0.0,0.0,0.0,0.0,0.0,0.0,0.0,0.0,0.0,0.0,0.0,0.0,0.0,0.0,0.0,0.0,0.0,0.0,0.0,0.0,0.0,-1.9905,-1.9896,-1.9663,-1.9171,-1.9134,-1.8899,0.0,0.0,0.0,0.0,0.0,0.0,0.0,0.0,0.0,0.0,0.0,0.0,0.0,0.0,0.0,0.0,0.0,0.0,0.0,0.0,0.0,0.0,0.0,0.0,0.0,0.0,0.0,0.0,0.0,0.0,0.0,0.0,0.0,0.0,0.0,0.0,0.0,0.0,0.0,0.0,0.0,0.0,0.0,0.0,0.0,0.0,0.0,0.0,0.0,0.0,0.0,0.0,0.0,0.0,0.0,0.0,0.0,0.0,0.0,0.0,0.0,0.0,0.0,0.0,0.0,0.0,0.0,0.0,0.0,0.0,0.0,0.0,0.0,0.0,0.0,0.0,0.0,0.0,0.0,0.0,0.0,0.0,0.0,0.0,0.0,0.0,0.0,0.0,0.0,0.0,0.0,0.0,0.0,0.0,0.0,0.0,0.0,0.0,0.0,0.0,0.0,0.0,0.0,0.0,0.0,0.0,0.0,0.0,0.0,-2.1059,-2.1099,-2.0698,-1.979,-1.9438,-1.9233,0.0,0.0,0.0,0.0,0.0,0.0,0.0,0.0,0.0,0.0,0.0,0.0,0.0,0.0,0.0,0.0,0.0,0.0,0.0,0.0,0.0,0.0,0.0,0.0,0.0,0.0,0.0,0.0,0.0,0.0,0.0,0.0,0.0,0.0,0.0,0.0,0.0,0.0,0.0,0.0,0.0,0.0,0.0,0.0,0.0,0.0,0.0,0.0,0.0,0.0,0.0,0.0,0.0,0.0,0.0,0.0,0.0,0.0,0.0,0.0,0.0,0.0,0.0,0.0,0.0,0.0,0.0,0.0,0.0,0.0,0.0,0.0,0.0,0.0,0.0,0.0,0.0,0.0,0.0,0.0,0.0,0.0,0.0,0.0,0.0,0.0,0.0,0.0,0.0,0.0,0.0,0.0,0.0,0.0,0.0,0.0,0.0,0.0,0.0,0.0,0.0,0.0,0.0,0.0,0.0,0.0,0.0,0.0,-2.1413,-2.149,-2.1621,-2.1386,-2.0761,-2.0052,-1.9613,0.0,0.0,0.0,0.0,0.0,0.0,0.0,0.0,0.0,0.0,0.0,0.0,0.0,0.0,0.0,0.0,0.0,0.0,0.0,0.0,0.0,0.0,0.0,0.0,0.0,0.0,0.0,0.0,0.0,0.0,0.0,0.0,0.0,0.0,0.0,0.0,0.0,0.0,0.0,0.0,0.0,0.0,0.0,0.0,0.0,0.0,0.0,0.0,0.0,0.0,0.0,0.0,0.0,0.0,0.0,0.0,0.0,0.0,0.0,0.0,0.0,0.0,0.0,0.0,0.0,0.0,0.0,0.0,0.0,0.0,0.0,0.0,0.0,0.0,0.0,0.0,0.0,0.0,0.0,0.0,0.0,0.0,0.0,0.0,0.0,0.0,0.0,0.0,0.0,0.0,0.0,0.0,0.0,0.0,0.0,0.0,0.0,0.0,0.0,0.0,0.0,0.0,0.0,0.0,0.0,0.0,0.0,0.0,-2.1422,-2.1507,-2.1697,-2.1807,-2.1756,-2.0767,-1.9979,0.0,0.0,0.0,0.0,0.0,0.0,0.0,0.0,0.0,0.0,0.0,0.0,0.0,0.0,0.0,0.0,0.0,0.0,0.0,0.0,0.0,0.0,0.0,0.0,0.0,0.0,0.0,0.0,0.0,0.0,0.0,0.0,0.0,0.0,0.0,0.0,0.0,0.0,0.0,0.0,0.0,0.0,0.0,0.0,0.0,0.0,0.0,0.0,0.0,0.0,0.0,0.0,0.0,0.0,0.0,0.0,0.0,0.0,0.0,0.0,0.0,0.0,0.0,0.0,0.0,0.0,0.0,0.0,0.0,0.0,0.0,0.0,0.0,0.0,0.0,0.0,0.0,0.0,0.0,0.0,0.0,0.0,0.0,0.0,0.0,0.0,0.0,0.0,0.0,0.0,0.0,0.0,0.0,0.0,0.0,0.0,0.0,0.0,0.0,0.0,0.0,0.0,0.0,0.0,0.0,0.0,0.0,0.0,-2.0971,-2.1541,-2.1705,-2.1807,-2.1797,-2.0653,-2.0063,0.0,0.0,0.0,0.0,0.0,0.0,0.0,0.0,0.0,0.0,0.0,0.0,0.0,0.0,0.0,0.0,0.0,0.0,0.0,0.0,0.0,0.0,0.0,0.0,0.0,0.0,0.0,0.0,0.0,0.0,0.0,0.0,0.0,0.0,0.0,0.0,0.0,0.0,0.0,0.0,0.0,0.0,0.0,0.0,0.0,0.0,0.0,0.0,-1.2899,0.0,0.0,0.0,0.0,0.0,0.0,0.0,0.0,0.0,0.0,0.0,0.0,0.0,0.0,0.0,0.0,0.0,0.0,0.0,0.0,0.0,0.0,0.0,0.0,0.0,0.0,0.0,0.0,0.0,0.0,0.0,0.0,0.0,0.0,0.0,0.0,0.0,0.0,0.0,0.0,0.0,0.0,0.0,0.0,0.0,0.0,0.0,0.0,0.0,0.0,0.0,0.0,0.0,0.0,0.0,0.0,0.0,0.0,0.0,-2.0928,-2.157,-2.172,-2.1807,-2.1756,-2.0903,-2.0376,0.0,0.0,0.0,0.0,0.0,0.0,0.0,0.0,0.0,0.0,0.0,0.0,0.0,0.0,0.0,0.0,0.0,0.0,0.0,0.0,0.0,0.0,0.0,0.0,0.0,0.0,0.0,0.0,0.0,0.0,0.0,0.0,0.0,0.0,0.0,0.0,0.0,0.0,0.0,0.0,0.0,0.0,0.0,0.0,0.0,0.0,0.0,0.0,0.0,0.0,0.0,0.0,0.0,0.0,0.0,0.0,0.0,0.0,0.0,0.0,0.0,0.0,0.0,0.0,0.0,0.0,0.0,0.0,0.0,0.0,0.0,0.0,0.0,0.0,0.0,0.0,0.0,0.0,0.0,0.0,0.0,0.0,0.0,0.0,0.0,0.0,0.0,0.0,0.0,0.0,0.0,0.0,0.0,0.0,0.0,0.0,0.0,0.0,0.0,0.0,0.0,0.0,0.0,0.0,0.0,0.0,0.0,-2.0588,-2.093,-2.1592,-2.1761,-2.1807,-2.1797,-2.1308,-2.0911,-2.0532,0.0,0.0,0.0,0.0,0.0,0.0,0.0,0.0,0.0,0.0,0.0,0.0,0.0,0.0,0.0,0.0,0.0,0.0,0.0,0.0,0.0,0.0,0.0,0.0,0.0,0.0,0.0,0.0,0.0,0.0,0.0,0.0,0.0,0.0,0.0,0.0,0.0,0.0,-1.5231,-1.5521,0.0,0.0,0.0,0.0,0.0,0.0,0.0,0.0,-1.251,0.0,0.0,0.0,0.0,0.0,0.0,0.0,0.0,0.0,0.0,0.0,0.0,0.0,0.0,0.0,0.0,0.0,0.0,0.0,0.0,0.0,0.0,0.0,0.0,0.0,0.0,0.0,0.0,0.0,0.0,0.0,0.0,0.0,0.0,0.0,0.0,0.0,0.0,0.0,0.0,0.0,0.0,0.0,0.0,0.0,0.0,0.0,0.0,0.0,0.0,0.0,0.0,0.0,0.0,0.0,0.0,-2.0674,-2.0303,-2.0644,-2.1755,-2.1804,-2.1807,-2.1787,-2.176,-2.1526,-2.1052,0.0,0.0,0.0,0.0,0.0,0.0,0.0,0.0,0.0,0.0,0.0,0.0,0.0,0.0,0.0,0.0,0.0,0.0,0.0,0.0,0.0,0.0,0.0,0.0,0.0,0.0,0.0,0.0,0.0,0.0,0.0,0.0,0.0,0.0,0.0,0.0,0.0,0.0,0.0,-1.5433,-1.5125,0.0,0.0,0.0,0.0,0.0,0.0,0.0,0.0,-1.2005,0.0,0.0,0.0,0.0,0.0,0.0,0.0,0.0,0.0,0.0,0.0,0.0,0.0,0.0,0.0,0.0,0.0,0.0,0.0,0.0,0.0,0.0,0.0,0.0,0.0,0.0,0.0,0.0,0.0,0.0,0.0,0.0,0.0,0.0,0.0,0.0,0.0,0.0,0.0,0.0,0.0,0.0,0.0,0.0,0.0,0.0,0.0,0.0,0.0,0.0,0.0,0.0,0.0,0.0,0.0,-2.0709,-2.0963,-2.1525,-2.2387,-2.2214,-2.2101,-2.2128,-2.1993,-2.1561,0.0,0.0,0.0,0.0,0.0,0.0,0.0,0.0,0.0,0.0,0.0,0.0,0.0,0.0,0.0,0.0,0.0,0.0,0.0,0.0,0.0,0.0,0.0,0.0,0.0,0.0,0.0,0.0,0.0,0.0,0.0,0.0,0.0,0.0,0.0,0.0,0.0,0.0,0.0,0.0,-1.4888,-1.4367,-1.3563,0.0,0.0,0.0,0.0,0.0,0.0,-1.1776,-1.1798,0.0,0.0,0.0,0.0,0.0,0.0,0.0,0.0,0.0,0.0,0.0,0.0,0.0,0.0,0.0,0.0,0.0,0.0,0.0,0.0,0.0,0.0,0.0,0.0,0.0,0.0,0.0,0.0,0.0,0.0,0.0,0.0,0.0,0.0,0.0,0.0,0.0,0.0,0.0,0.0,0.0,0.0,0.0,0.0,0.0,0.0,0.0,0.0,0.0,0.0,0.0,0.0,0.0,0.0,0.0,-2.1018,-2.1745,-2.2419,-2.2957,-2.2703,-2.2515,-2.2515,-2.2241,-2.17,0.0,0.0,0.0,0.0,0.0,0.0,0.0,0.0,0.0,0.0,0.0,0.0,0.0,0.0,0.0,0.0,0.0,0.0,0.0,0.0,0.0,0.0,0.0,0.0,0.0,0.0,0.0,0.0,0.0,0.0,0.0,0.0,0.0,0.0,0.0,0.0,0.0,0.0,0.0,0.0,0.0,-1.3651,-1.2736,-1.2565,0.0,0.0,0.0,0.0,-1.1444,-1.1593,0.0,0.0,0.0,0.0,0.0,0.0,0.0,0.0,0.0,0.0,0.0,0.0,0.0,0.0,0.0,0.0,0.0,0.0,0.0,0.0,0.0,0.0,0.0,0.0,0.0,0.0,0.0,0.0,0.0,0.0,0.0,0.0,0.0,0.0,0.0,0.0,0.0,0.0,0.0,0.0,0.0,0.0,0.0,0.0,0.0,0.0,0.0,0.0,0.0,0.0,0.0,0.0,0.0,0.0,0.0,0.0,-2.1714,-2.2083,-2.2501,-2.2973,-2.2975,-2.2927,-2.2916,-2.2769,-2.2432,0.0,0.0,0.0,0.0,0.0,0.0,0.0,0.0,0.0,0.0,0.0,0.0,0.0,0.0,0.0,0.0,0.0,0.0,0.0,0.0,0.0,0.0,0.0,0.0,0.0,0.0,0.0,0.0,0.0,0.0,0.0,0.0,0.0,0.0,0.0,0.0,0.0,0.0,0.0,0.0,0.0,-1.3522,-1.3314,-1.3058,-1.2786,0.0,0.0,-1.2174,-1.1784,-1.1676,0.0,0.0,0.0,0.0,0.0,0.0,0.0,0.0,0.0,0.0,0.0,0.0,0.0,0.0,0.0,0.0,0.0,0.0,0.0,0.0,0.0,0.0,0.0,0.0,0.0,0.0,0.0,0.0,0.0,0.0,0.0,0.0,0.0,0.0,0.0,0.0,0.0,0.0,0.0,0.0,0.0,0.0,0.0,0.0,0.0,0.0,0.0,0.0,0.0,0.0,0.0,0.0,0.0,0.0,0.0,-2.2025,-2.2276,-2.2983,-2.3455,-2.3655,-2.3457,-2.3335,-2.3335,-2.2981,-2.246,0.0,0.0,0.0,0.0,0.0,0.0,0.0,0.0,0.0,0.0,0.0,0.0,0.0,0.0,0.0,0.0,0.0,0.0,0.0,0.0,0.0,0.0,0.0,0.0,0.0,0.0,0.0,0.0,0.0,0.0,0.0,0.0,0.0,0.0,0.0,0.0,0.0,0.0,0.0,0.0,0.0,0.0,-1.2883,-1.2523,0.0,0.0,0.0,-1.1985,-1.1839,0.0,0.0,0.0,0.0,0.0,0.0,0.0,0.0,0.0,0.0,0.0,0.0,0.0,0.0,0.0,0.0,0.0,0.0,0.0,0.0,0.0,0.0,0.0,0.0,0.0,0.0,0.0,0.0,0.0,0.0,0.0,0.0,0.0,0.0,0.0,0.0,0.0,0.0,0.0,0.0,0.0,0.0,0.0,0.0,0.0,0.0,0.0,0.0,0.0,0.0,0.0,0.0,0.0,0.0,0.0,0.0,0.0,-2.2888,-2.3758,-2.4189,-2.4189,-2.3897,-2.3751,-2.3728,-2.3293,0.0,0.0,0.0,0.0,0.0,0.0,0.0,0.0,0.0,0.0,0.0,0.0,0.0,0.0,0.0,0.0,0.0,0.0,0.0,0.0,0.0,0.0,0.0,0.0,0.0,0.0,0.0,-1.5296,0.0,0.0,0.0,0.0,0.0,0.0,0.0,0.0,0.0,0.0,0.0,0.0,0.0,0.0,-1.2512,-1.2525,-1.22,-1.2018,0.0,0.0,-1.1951,-1.1942,-1.1624,-1.1415,0.0,0.0,0.0,0.0,0.0,0.0,0.0,0.0,0.0,0.0,0.0,0.0,0.0,0.0,0.0,0.0,0.0,0.0,0.0,0.0,0.0,0.0,0.0,0.0,0.0,0.0,0.0,0.0,0.0,0.0,0.0,0.0,0.0,0.0,0.0,0.0,0.0,0.0,0.0,0.0,0.0,0.0,0.0,0.0,0.0,0.0,0.0,0.0,0.0,0.0,0.0,0.0,0.0,0.0,0.0,-2.3646,-2.4003,-2.4212,-2.42,-2.4152,-2.4164,-2.4152,-2.3932,-2.326,0.0,0.0,0.0,0.0,0.0,0.0,0.0,0.0,0.0,0.0,0.0,0.0,0.0,0.0,0.0,0.0,0.0,0.0,0.0,0.0,0.0,0.0,0.0,0.0,0.0,0.0,0.0,0.0,0.0,0.0,0.0,0.0,0.0,0.0,0.0,0.0,0.0,0.0,0.0,0.0,0.0,-1.2684,-1.2525,-1.2479,-1.2413,0.0,0.0,-1.2401,-1.2304,-1.1911,-1.1716,-1.1825,0.0,0.0,0.0,0.0,0.0,0.0,0.0,0.0,0.0,0.0,0.0,0.0,0.0,0.0,0.0,0.0,0.0,0.0,0.0,0.0,0.0,0.0,0.0,0.0,0.0,0.0,0.0,0.0,0.0,0.0,0.0,0.0,0.0,0.0,0.0,0.0,0.0,0.0,0.0,0.0,0.0,0.0,0.0,0.0,0.0,0.0,0.0,0.0,0.0,0.0,0.0,0.0,0.0,-2.4116,-2.414,-2.4782,-2.513,-2.513,-2.513,-2.513,-2.513,-2.4908,-2.4272,0.0,0.0,0.0,0.0,0.0,0.0,0.0,0.0,0.0,0.0,0.0,0.0,0.0,0.0,0.0,0.0,0.0,0.0,0.0,0.0,0.0,0.0,0.0,0.0,0.0,0.0,0.0,0.0,-1.5794,-1.5487,-1.5259,0.0,0.0,0.0,0.0,0.0,0.0,0.0,0.0,0.0,0.0,-1.2882,-1.2747,-1.2535,0.0,0.0,-1.2433,-1.2347,-1.2239,-1.2005,-1.1834,-1.1842,-1.1561,0.0,0.0,0.0,0.0,0.0,0.0,0.0,0.0,0.0,0.0,0.0,0.0,0.0,0.0,0.0,0.0,0.0,0.0,0.0,0.0,0.0,0.0,0.0,0.0,0.0,0.0,0.0,0.0,0.0,0.0,0.0,0.0,0.0,0.0,0.0,0.0,0.0,0.0,0.0,0.0,0.0,0.0,0.0,0.0,0.0,0.0,0.0,0.0,0.0,0.0,0.0,0.0,-2.4484,-2.4484,-2.5333,-2.5781,-2.5781,-2.5704,-2.5716,-2.5704,-2.5576,-2.4974,0.0,0.0,0.0,0.0,0.0,0.0,0.0,0.0,0.0,0.0,0.0,0.0,0.0,0.0,0.0,0.0,0.0,0.0,0.0,0.0,0.0,0.0,0.0,0.0,0.0,0.0,0.0,0.0,-1.6279,-1.5767,-1.5226,0.0,0.0,0.0,0.0,0.0,0.0,0.0,0.0,0.0,0.0,-1.3069,-1.3123,-1.2807,-1.2643,-1.2772,-1.2738,-1.2613,-1.2391,-1.2341,-1.2237,-1.2114,0.0,0.0,0.0,0.0,0.0,0.0,0.0,0.0,0.0,0.0,0.0,0.0,0.0,0.0,0.0,0.0,0.0,0.0,0.0,0.0,0.0,0.0,0.0,0.0,0.0,0.0,0.0,0.0,0.0,0.0,-2.2264,0.0,0.0,0.0,0.0,0.0,0.0,0.0,0.0,0.0,0.0,0.0,0.0,0.0,0.0,0.0,0.0,0.0,0.0,0.0,0.0,0.0,0.0,-2.4711,-2.4701,-2.5604,-2.6012,-2.6012,-2.582,-2.5739,-2.5739,-2.5704,-2.5362,-2.4622,0.0,0.0,0.0,0.0,0.0,0.0,0.0,0.0,0.0,0.0,0.0,0.0,0.0,0.0,0.0,0.0,0.0,0.0,0.0,0.0,0.0,0.0,0.0,0.0,0.0,0.0,-1.747,-1.7062,-1.6519,0.0,0.0,0.0,0.0,0.0,0.0,0.0,0.0,0.0,0.0,-1.3285,-1.3348,-1.3564,-1.3354,-1.3203,-1.3285,-1.336,-1.3325,-1.2863,-1.3003,-1.308,0.0,0.0,0.0,0.0,0.0,0.0,0.0,0.0,0.0,0.0,0.0,0.0,0.0,0.0,0.0,0.0,0.0,0.0,0.0,0.0,0.0,0.0,0.0,0.0,0.0,0.0,0.0,-2.365,-2.449,0.0,0.0,0.0,0.0,0.0,0.0,0.0,0.0,0.0,0.0,0.0,-2.5375,-2.5544,0.0,0.0,0.0,0.0,0.0,0.0,0.0,0.0,0.0,0.0,0.0,0.0,-2.5361,-2.5423,-2.6605,-2.7273,-2.7273,-2.7205,-2.7074,-2.6891,-2.6891,-2.6495,-2.5674,0.0,0.0,0.0,0.0,0.0,0.0,0.0,0.0,0.0,0.0,0.0,0.0,0.0,0.0,0.0,0.0,0.0,0.0,0.0,0.0,0.0,0.0,0.0,0.0,0.0,-1.7636,0.0,0.0,0.0,0.0,0.0,0.0,0.0,0.0,0.0,0.0,0.0,-1.3739,-1.3505,-1.3815,-1.4034,-1.4124,-1.3928,-1.3749,0.0,0.0,0.0,0.0,0.0,0.0,0.0,0.0,0.0,0.0,0.0,0.0,0.0,0.0,-1.1048,-1.0887,-1.0601,-1.0396,-1.0356,0.0,0.0,0.0,0.0,0.0,0.0,0.0,0.0,0.0,0.0,0.0,0.0,0.0,0.0,-2.4982,0.0,-2.3891,0.0,0.0,0.0,0.0,0.0,0.0,0.0,0.0,-2.5621,-2.5883,-2.5992,-2.6293,-2.6489,0.0,-2.6464,-2.5886,0.0,0.0,0.0,0.0,0.0,0.0,0.0,0.0,-2.5908,-2.5972,-2.7301,-2.8002,-2.799,-2.7921,-2.7841,-2.7655,-2.7563,-2.7249,-2.6675,-2.591,-2.5278,0.0,0.0,0.0,0.0,0.0,0.0,0.0,0.0,0.0,0.0,0.0,0.0,0.0,0.0,0.0,0.0,0.0,0.0,0.0,0.0,0.0,0.0,0.0,-1.7747,0.0,0.0,0.0,0.0,0.0,0.0,0.0,0.0,0.0,-1.3547,-1.3723,-1.3866,-1.3749,-1.4077,-1.4358,-1.4496,0.0,0.0,0.0,0.0,0.0,0.0,0.0,-1.3926,-1.3682,-1.3418,-1.3127,-1.2991,-1.2581,-1.2273,-1.228,0.0,0.0,-1.1552,-1.122,-1.0983,-1.0988,-1.1004,-1.0957,-1.0885,-1.0839,-1.0797,0.0,0.0,0.0,0.0,0.0,0.0,0.0,0.0,-2.7129,-2.6827,0.0,-2.5504,0.0,0.0,0.0,0.0,0.0,-2.5757,0.0,0.0,-2.6615,-2.681,-2.7099,-2.6834,-2.6895,-2.7311,-2.682,-2.6575,-2.6549,-2.6424,0.0,0.0,0.0,0.0,0.0,0.0,-2.6302,-2.6357,-2.7593,-2.8219,-2.8219,-2.8042,-2.7921,-2.7881,-2.7655,-2.751,-2.7476,-2.6675,-2.6227,-2.6194,-2.5078,0.0,0.0,0.0,0.0,0.0,0.0,0.0,0.0,0.0,0.0,0.0,0.0,0.0,0.0,0.0,0.0,0.0,0.0,0.0,0.0,-1.8347,0.0,0.0,0.0,0.0,0.0,0.0,0.0,0.0,0.0,0.0,-1.4352,-1.413,-1.3974,-1.407,0.0,0.0,0.0,0.0,-1.4266,-1.4563,-1.4619,-1.4493,-1.4262,-1.4446,-1.4523,-1.4102,0.0,0.0,-1.3215,-1.3083,-1.2985,-1.3028,-1.2897,-1.2665,-1.2176,-1.1885,-1.1738,-1.1735,-1.1742,-1.1656,-1.1413,-1.137,-1.137,-2.9769,0.0,0.0,0.0,0.0,-2.7403,-2.7574,-2.7635,-2.7479,-2.7478,-2.7551,-2.6543,0.0,0.0,0.0,0.0,0.0,0.0,-2.7206,-2.7487,-2.7532,-2.7713,-2.8081,-2.8002,-2.8014,-2.8147,-2.7999,-2.793,-2.793,-2.7904,-2.7013,-2.5364,0.0,0.0,0.0,0.0,-2.6629,-2.7114,-2.7968,-2.8419,-2.8431,-2.8351,-2.8231,-2.8111,-2.7909,-2.78,-2.7788,-2.7375,-2.6901,-2.6432,-2.5941,0.0,0.0,0.0,0.0,0.0,0.0,0.0,0.0,0.0,0.0,0.0,0.0,0.0,0.0,0.0,0.0,0.0,0.0,0.0,-1.9374,-1.9127,-1.8947,0.0,0.0,0.0,0.0,0.0,0.0,0.0,0.0,0.0,-1.479,-1.4844,-1.4914,0.0,0.0,-1.5323,-1.5658,-1.5213,-1.482,-1.4831,-1.4838,0.0,-1.4256,-1.4414,-1.4513,-1.4381,-1.4186,-1.397,-1.3719,-1.3473,-1.3373,-1.3373,-1.3344,-1.3309,-1.3351,-1.2888,-1.2539,-1.2456,-1.2473,-1.2479,-1.2383,-1.2344,-1.2344,-3.0976,-2.9127,-2.8861,-2.8326,-2.7692,-2.8012,-2.8119,-2.8108,-2.7982,-2.795,-2.7906,-2.7128,-2.7069,-2.7551,-2.7275,0.0,0.0,0.0,-2.786,-2.8135,-2.8135,-2.8273,-2.8486,-2.851,-2.851,-2.851,-2.851,-2.851,-2.851,-2.8261,-2.7521,-2.6316,0.0,0.0,-2.5986,-2.6618,-2.7108,-2.7471,-2.8152,-2.851,-2.851,-2.851,-2.8471,-2.8299,-2.8111,-2.803,-2.8042,-2.7788,-2.7484,-2.7057,-2.6671,-2.6027,0.0,0.0,0.0,0.0,0.0,0.0,0.0,0.0,0.0,0.0,0.0,-2.0065,-1.9752,0.0,0.0,0.0,-1.9756,-1.9702,-1.9573,-1.9582,0.0,0.0,0.0,0.0,0.0,0.0,0.0,-1.674,-1.596,-1.5354,-1.506,-1.5177,-1.5311,-1.5281,-1.5212,-1.5291,-1.5576,0.0,-1.4921,-1.4899,-1.4912,-1.4785,-1.4551,-1.4526,-1.4519,-1.4444,-1.4324,-1.4192,-1.4106,-1.392,-1.3821,-1.3827,-1.3821,-1.3876,-1.4032,-1.3696,-1.3356,-1.3269,-1.3222,-1.3222,-1.3129,-1.3082,-1.3082,-3.1999,-3.1116,-3.0502,-2.9879,-2.9342,-2.9396,-2.9098,-2.8571,-2.8622,-2.8318,-2.7779,-2.7484,-2.7452,-2.7637,-2.7433,0.0,-2.7989,-2.794,-2.816,-2.851,-2.851,-2.851,-2.851,-2.851,-2.851,-2.851,-2.851,-2.851,-2.8462,-2.7921,-2.7668,-2.7668,-2.7668,-2.7392,-2.692,-2.7341,-2.7619,-2.7693,-2.8188,-2.851,-2.851,-2.851,-2.851,-2.851,-2.8299,-2.8219,-2.8219,-2.8042,-2.7933,-2.7886,-2.7252,-2.6757,-2.6375,0.0,0.0,0.0,0.0,0.0,0.0,0.0,0.0,0.0,0.0,0.0,0.0,0.0,0.0,0.0,-2.0009,0.0,-1.9438,-1.9917,0.0,0.0,0.0,-1.9985,-1.9216,-1.9088,-1.8386,-1.6629,0.0,0.0,-1.5208,-1.5327,-1.5303,-1.4703,-1.461,-1.472,-1.49,-1.478,-1.466,-1.4856,-1.4888,-1.485,-1.4754,-1.4641,-1.4484,-1.4357,-1.4298,-1.4316,-1.431,-1.4316,-1.4286,-1.4268,-1.4292,-1.4286,-1.4298,-1.4268,-1.4202,-1.395,-1.3908,-1.3865,-1.3601,-1.3547,-1.3584,-3.222,-3.0963,-3.0815,-3.0007,-2.893,-2.9311,-2.9052,-2.8412,-2.8783,-2.8895,-2.8745,-2.8688,-2.8667,-2.8724,-2.8522,-2.8479,-2.857,-2.8426,-2.8415,-2.851,-2.851,-2.851,-2.851,-2.851,-2.851,-2.851,-2.851,-2.851,-2.8498,-2.8364,-2.827,-2.8282,-2.8321,-2.7994,-2.7431,-2.7532,-2.7852,-2.827,-2.8418,-2.851,-2.851,-2.851,-2.851,-2.851,-2.8471,-2.8431,-2.8431,-2.8219,-2.8151,-2.8139,-2.7834,-2.7011,-2.5592,-2.5108,0.0,0.0,0.0,0.0,0.0,0.0,0.0,0.0,0.0,-2.0746,-2.04,0.0,-2.0252,0.0,-2.014,-2.0453,-2.0824,-2.0894,0.0,0.0,-2.1027,-2.0762,-2.0186,-1.9724,-1.9007,-1.779,-1.7329,-1.6646,-1.5398,-1.5472,-1.5398,-1.4782,-1.4883,-1.5075,-1.5105,-1.48,-1.4638,-1.4686,-1.4587,-1.4436,-1.4471,-1.4391,-1.4363,-1.4334,-1.4298,-1.4298,-1.4298,-1.4298,-1.4298,-1.4298,-1.4298,-1.4298,-1.4298,-1.4298,-1.4298,-1.4202,-1.4202,-1.4208,-1.4106,-1.4112,-1.4106,-3.272,-3.1915,-3.1586,-3.0957,-3.0184,-2.9789,-2.9391,-2.8995,-2.9293,-2.9417,-2.9417,-2.9287,-2.9197,-2.9091,-2.8973,-2.8922,-2.8922,-2.8736,-2.8605,-2.8618,-2.855,-2.851,-2.851,-2.851,-2.851,-2.851,-2.851,-2.851,-2.851,-2.851,-2.851,-2.851,-2.851,-2.8328,-2.8005,-2.8018,-2.8169,-2.8498,-2.851,-2.851,-2.851,-2.851,-2.8388,-2.8098,-2.8086,-2.7982,-2.7754,-2.7556,-2.7432,-2.7444,-2.7205,-2.659,-2.5601,-2.4968,-2.4111,0.0,0.0,0.0,0.0,0.0,0.0,0.0,0.0,0.0,0.0,0.0,-2.0579,-2.0292,-2.0726,-2.109,-2.1277,-2.1344,-2.1448,-2.1621,-2.1537,-2.1306,-2.0966,-2.0598,-1.9775,-1.8268,-1.7788,-1.6948,-1.5444,-1.5364,-1.5329,-1.4914,-1.505,-1.5167,-1.5127,-1.4939,-1.4807,-1.4813,-1.4642,-1.4442,-1.4346,-1.4298,-1.4298,-1.4298,-1.4298,-1.4298,-1.4298,-1.4298,-1.4298,-1.4298,-1.4298,-1.4298,-1.4298,-1.4298,-1.4298,-1.4298,-1.4298,-1.4298,-1.4298,-1.4298,-1.4196,-3.3157,-3.3017,-3.2254,-3.1905,-3.1673,-3.0368,-2.9779,-2.9779,-2.9779,-2.9779,-2.9779,-2.956,-2.9365,-2.917,-2.9182,-2.9131,-2.9131,-2.8922,-2.8843,-2.8843,-2.8618,-2.855,-2.855,-2.851,-2.851,-2.855,-2.851,-2.851,-2.855,-2.851,-2.851,-2.851,-2.851,-2.851,-2.851,-2.851,-2.851,-2.851,-2.8418,-2.8385,-2.8385,-2.8331,-2.8029,-2.7544,-2.7482,-2.7264,-2.682,-2.6633,-2.6505,-2.6483,-2.6233,-2.6017,-2.5952,-2.4961,-2.4156,0.0,-2.2648,0.0,0.0,0.0,0.0,0.0,0.0,0.0,0.0,-2.0905,-2.0839,-2.0771,-2.1345,-2.1579,-2.1178,-2.1559,-2.18,-2.1778,-2.1782,-2.1714,-2.1472,-2.1437,-2.0645,-1.8542,-1.8311,-1.7576,-1.5906,-1.5452,-1.541,-1.541,-1.5289,-1.5257,-1.5207,-1.5153,-1.5064,-1.5083,-1.4892,-1.4688,-1.449,-1.4448,-1.4448,-1.4394,-1.44,-1.4352,-1.4298,-1.4298,-1.4298,-1.4298,-1.4298,-1.4298,-1.4298,-1.4298,-1.4298,-1.4298,-1.4298,-1.4298,-1.4298,-1.4298,-1.3956,-3.2861,-3.2232,-3.1439,-3.0771,-3.0228,-2.9946,-2.9779,-2.9779,-2.9779,-2.9779,-2.9779,-2.974,-2.9702,-2.9624,-2.9431,-2.9353,-2.9302,-2.9118,-2.9052,-2.9052,-2.8843,-2.8724,-2.8724,-2.8578,-2.859,-2.8724,-2.859,-2.8578,-2.8712,-2.8578,-2.851,-2.851,-2.851,-2.851,-2.851,0.0,0.0,0.0,-2.8017,-2.7779,-2.7754,-2.7328,-2.7059,-2.6962,-2.6949,0.0,-2.6794,-2.6769,-2.6667,-2.6505,-2.6449,0.0,0.0,0.0,0.0,0.0,0.0,0.0,0.0,0.0,0.0,0.0,-2.1404,-2.108,-2.0924,-2.0818,-2.0879,-2.1147,-2.1214,-2.132,-2.1556,-2.1676,-2.1715,-2.1701,-2.171,-2.1702,-2.1642,-2.1651,-2.1132,-2.0022,-1.9886,-1.9322,-1.794,-1.7264,-1.6763,-1.652,-1.6062,-1.5689,-1.5642,-1.5363,-1.5131,-1.5083,-1.5077,-1.5029,-1.4933,-1.4933,-1.4838,-1.4688,-1.4592,-1.4544,-1.4394,-1.4346,-1.4298,-1.4298,-1.4298,-1.4298,-1.4298,-1.4298,-1.4298,-1.4298,-1.4298,-1.4298,-1.4298,-1.4304,-1.3998,-3.2477,0.0,-3.0671,-3.0343,0.0,-2.996,-2.9779,-2.9779,-2.9779,-2.9779,-2.9779,-2.9779,-2.9779,-2.9779,-2.965,-2.9611,-2.956,-2.9365,-2.9236,-2.9236,-2.904,-2.8922,-2.8961,-2.8867,-2.8855,-2.8922,-2.8855,-2.8855,-2.8922,-2.8855,-2.8736,-2.8657,-2.8736,-2.8736,-2.8645,-2.8736,-2.8709,-2.851,-2.8191,-2.8065,-2.8041,-2.7766,-2.7505,-2.7197,-2.7195,0.0,0.0,0.0,0.0,0.0,0.0,0.0,0.0,0.0,0.0,-2.5289,-2.4649,-2.4079,-2.3575,-2.3051,-2.2586,-2.2156,-2.196,-2.1641,-2.114,-2.1163,-2.1291,-2.1493,-2.1429,-2.1466,-2.1676,-2.1687,-2.1687,-2.1687,-2.1687,-2.1687,-2.1687,-2.1687,-2.132,-2.0484,-2.0303,-1.9886,-1.8734,-1.828,-1.7785,-1.7225,-1.681,-1.6346,-1.5879,-1.5594,-1.541,-1.5315,-1.5315,-1.5213,-1.5131,-1.5083,-1.5083,-1.4933,-1.4892,-1.4838,-1.4742,-1.4592,-1.4496,-1.4496,-1.4394,-1.4298,-1.4298,-1.4298,-1.4298,-1.4298,-1.4298,-1.4352,-1.4449,-1.4395,-1.4004,-3.2833,-3.1609,-3.0842,-3.0804,-3.1171,-3.038,-3.008,-3.0068,0.0,0.0,0.0,-2.9779,-2.9779,-2.9779,-2.9779,-2.9779,-2.9779,-2.956,-2.9457,-2.947,-2.9236,-2.917,-2.9157,-2.9131,-2.9131,-2.9157,-2.9131,-2.9131,-2.917,-2.9131,-2.9,-2.8882,-2.9013,-2.904,-2.8882,-2.9013,-2.8934,-2.8618,-2.8503,-2.8458,-2.8379,-2.8302,-2.8009,-2.7457,-2.7468,-2.7237,-2.682,-2.6633,-2.6552,-2.6483,-2.6414,-2.6377,-2.6507,-2.6239,-2.6113,-2.6093,-2.5696,-2.5102,-2.4273,-2.3926,-2.3412,-2.2526,-2.2485,-2.2191,-2.148,-2.1643,-2.1741,-2.1687,-2.1687,-2.1687,-2.1687,-2.1687,-2.1687,-2.1687,-2.1687,-2.1687,-2.1687,-2.1687,-2.141,-2.0718,-2.0574,-2.0257,-1.9521,-1.9018,-1.8519,-1.7738,-1.7185,-1.677,-1.6015,-1.5778,-1.5689,-1.5594,-1.554,-1.5452,-1.5315,-1.5267,-1.522,-1.5172,-1.5172,-1.5131,-1.5083,-1.4885,-1.4736,-1.4783,-1.4544,-1.4346,-1.4346,-1.4346,-1.4316,-1.4358,-1.4377,-1.4455,-1.4684,-1.4606,-1.4127,-3.5315,-3.4534,-3.3672,-3.2982,-3.2411,-3.1551,-3.116,-3.1085,-3.0193,-2.9792,-2.9779,-2.9779,-2.9779,-2.9779,-2.9779,-2.9779,-2.9779,-2.974,-2.9753,-2.974,-2.947,-2.9353,-2.9341,-2.9157,-2.9209,-2.9341,-2.9197,-2.9197,-2.9314,-2.9197,-2.9091,-2.9052,-2.9091,-2.9091,-2.904,-2.9091,-2.9052,-2.9,-2.8549,-2.8212,-2.8002,-2.7523,-2.7163,-2.692,-2.6958,-2.6878,-2.6782,-2.6773,-2.6667,-2.6517,-2.6483,-2.6714,-2.7189,-2.7189,-2.7443,-2.8008,-2.7371,-2.6818,-2.6649,-2.5259,-2.3894,-2.2862,-2.2759,-2.2526,-2.2036,-2.2022,-2.1963,-2.1731,-2.1731,-2.1687,-2.1687,-2.1696,-2.1731,-2.1687,-2.1687,-2.1687,-2.1687,-2.1687,-2.1642,-2.1454,-2.1508,-2.1454,-2.1051,-1.9849,-1.888,-1.838,-1.7131,-1.5974,-1.5879,-1.5825,-1.5778,-1.5778,-1.5778,-1.573,-1.5642,-1.5689,-1.5594,-1.5445,-1.5445,-1.5363,-1.5172,-1.4933,-1.4838,-1.5029,-1.464,-1.4454,-1.4604,-1.4442,-1.4461,-1.4588,-1.466,-1.4695,-1.4998,-1.501,-1.4628,-3.5872,-3.4785,-3.384,-3.3183,-3.2791,-3.182,-3.1386,-3.1348,-3.0871,-3.0495,-3.0218,-2.993,-2.9779,-2.9779,-2.9779,-2.9779,-2.9779,-2.9779,-2.9779,-2.9792,-2.9702,-2.9611,-2.9611,-2.9546,-2.9546,-2.9599,-2.9534,-2.9534,-2.9599,-2.9534,-2.9417,-2.9275,-2.9275,-2.9326,-2.9468,-2.9456,-2.9456,-2.9495,-2.8985,-2.8686,-2.8559,-2.83,-2.8063,-2.7878,-2.7878,-2.7817,-2.7718,-2.7718,-2.7681,-2.7606,-2.7594,-2.7726,-2.7973,-2.7982,-2.8161,-2.8462,-2.8139,-2.7725,-2.7226,-2.5505,-2.4079,-2.3057,-2.2969,-2.2838,-2.2495,-2.2362,-2.222,-2.2087,-2.2087,-2.2087,-2.2087,-2.1963,-2.1919,-2.1909,-2.1785,-2.1687,-2.1687,-2.1687,-2.1687,-2.1687,-2.1687,-2.1687,-2.1687,-2.0907,-1.9894,-1.8926,-1.7077,-1.5872,-1.5825,-1.5825,-1.5825,-1.5825,-1.5825,-1.5825,-1.5825,-1.5825,-1.573,-1.5683,-1.5635,-1.5594,-1.5458,-1.5267,-1.522,-1.5261,-1.4879,-1.4653,-1.4861,-1.4716,-1.4697,-1.4847,-1.4932,-1.5034,-1.5246,-1.5421,-1.5319,-3.6548,-3.5461,-3.4437,-3.3791,-3.3331,-3.2502,-3.1997,-3.175,-3.1637,-3.1348,-3.0922,-3.0394,-3.0156,-3.0143,-3.0043,-2.998,-2.9955,-2.9854,-2.9779,-2.9779,-2.9779,-2.9779,-2.9779,-2.9779,-2.9779,-2.9779,-2.9779,-2.9779,-2.9779,-2.9779,-2.9702,-2.9509,-2.9482,-2.9599,-2.9779,-2.9779,-2.9779,-2.9779,-2.9417,-2.9209,-2.9157,-2.9157,-2.9079,-2.887,-2.887,-2.8776,-2.863,-2.863,-2.8578,-2.8578,-2.8538,-2.855,-2.851,-2.851,-2.851,-2.851,-2.851,-2.8139,-2.7226,-2.5715,-2.4411,-2.3612,-2.3369,-2.3242,-2.3152,-2.2993,-2.272,-2.2479,-2.2397,-2.2397,-2.2353,-2.2264,-2.2185,-2.2132,-2.1998,-2.1865,-2.1865,-2.182,-2.1785,-2.1785,-2.1741,-2.1687,-2.1687,-2.1508,-2.0492,-1.8603,-1.7084,-1.6157,-1.5872,-1.5825,-1.5798,-1.5899,-1.5879,-1.5832,-1.5825,-1.5825,-1.5778,-1.5825,-1.5778,-1.5818,-1.581,-1.5747,-1.5698,-1.5695,-1.5383,-1.518,-1.5294,-1.5196,-1.5164,-1.5379,-1.5395,-1.5333,-1.5529,-1.5716,-1.5813,-3.8502,-3.8296,-3.732,-3.6087,-3.4575,-3.4383,-3.3817,-3.2932,-3.2365,-3.2114,-3.1989,-3.1474,-3.1235,-3.1173,-3.0746,-3.0545,-3.0495,-3.0018,-2.9804,-2.9817,-2.9779,-2.9779,-2.9779,-2.9779,-2.9779,-2.9779,-2.9779,-2.9779,-2.9779,-2.9779,-2.9779,-2.9779,-2.974,-2.9753,-2.9779,-2.9779,-2.9779,-2.9779,-2.9753,-2.9611,-2.938,-2.938,-2.9275,-2.9091,-2.9091,-2.9052,-2.9013,-2.9052,-2.8973,-2.8803,-2.8764,-2.8697,-2.8498,-2.851,-2.851,-2.8522,-2.8534,-2.8139,-2.7237,-2.6257,-2.5498,-2.4949,-2.4202,-2.3922,-2.4173,-2.4185,-2.3673,-2.2767,-2.247,-2.2498,-2.2397,-2.2435,-2.2482,-2.2511,-2.2438,-2.2353,-2.2337,-2.2176,-2.2052,-2.2052,-2.1874,-2.1687,-2.1642,-2.1042,-1.9758,-1.8257,-1.7478,-1.6841,-1.6211,-1.5925,-1.5999,-1.6126,-1.6025,-1.5838,-1.5885,-1.5784,-1.5905,-1.5885,-1.5804,-1.5979,-1.6104,-1.6093,-1.5986,-1.6223,-1.6112,-1.5882,-1.5996,-1.6041,-1.5916,-1.5997,-1.5942,-1.5802,-1.5883,-1.5921,-1.5908,-3.9156,-3.9053,-3.8107,-3.6866,-3.5668,-3.5588,-3.5007,-3.404,-3.3765,-3.3312,-3.2734,-3.2478,-3.2026,-3.1386,-3.1173,-3.1072,-3.1035,-3.052,-3.0281,-3.0244,-2.9955,-2.9779,-2.9779,-2.9779,-2.9779,-2.9779,-2.9779,-2.9779,-2.9779,-2.9779,-2.9779,-2.9779,-2.9779,-2.9779,-2.9779,-2.9779,-2.9779,-2.9779,-2.9779,-2.9903,-3.0063,-2.9813,-2.9521,-2.9314,-2.9275,-2.9197,-2.9131,-2.9104,-2.9,-2.8843,-2.8803,-2.8724,-2.851,-2.851,-2.8655,-2.8955,-2.928,-2.9053,-2.813,-2.775,-2.7017,-2.5688,-2.5251,-2.4902,-2.4441,-2.4424,-2.4156,-2.3702,-2.358,-2.358,-2.357,-2.3489,-2.3398,-2.3408,-2.3262,-2.3076,-2.283,-2.2721,-2.261,-2.233,-2.2176,-2.2052,-2.1811,-2.0988,-2.0124,-1.9275,-1.8503,-1.7567,-1.7307,-1.6779,-1.64,-1.648,-1.6413,-1.6366,-1.6333,-1.6346,-1.6339,-1.6339,-1.6346,-1.6426,-1.6473,-1.6477,-1.6474,-1.6657,-1.6452,-1.6335,-1.6496,-1.6369,-1.6234,-1.6398,-1.6512,-1.6352,-1.6193,-1.6164,-1.6111,-3.9388,-3.9265,-3.8546,-3.761,-3.6643,-3.6643,-3.6067,-3.5129,-3.4897,-3.4317,-3.3556,-3.327,-3.2714,-3.1942,-3.1934,-3.1858,-3.1578,-3.1301,-3.0933,-3.0595,-3.0206,-3.0046,-3.0088,-2.9869,-2.9895,-3.0037,-2.9895,-2.9779,-2.9779,-2.9779,-2.9779,-2.9779,-2.9779,-2.9779,-2.9804,-2.993,-3.0018,-3.0043,-3.0143,-3.0432,-3.0733,-3.0444,-3.014,-2.9945,-2.9945,-2.9866,-2.9732,-2.9732,-2.964,-2.9441,-2.9441,-2.9281,-2.9052,-2.9012,-2.9181,-2.9484,-2.9869,-2.9821,-2.9106,-2.8892,-2.8247,-2.699,-2.6462,-2.5864,-2.5275,-2.4906,-2.4785,-2.4738,-2.4729,-2.467,-2.4387,-2.4285,-2.4193,-2.4193,-2.3998,-2.3771,-2.3503,-2.3419,-2.3269,-2.2919,-2.2768,-2.2558,-2.2297,-2.1634,-2.1098,-2.0793,-1.9757,-1.8717,-1.866,-1.7916,-1.7207,-1.7246,-1.7065,-1.678,-1.6727,-1.666,-1.6707,-1.6707,-1.6667,-1.668,-1.6794,-1.6827,-1.6914,-1.7054,-1.677,-1.6752,-1.695,-1.6814,-1.66,-1.6753,-1.6836,-1.6723,-1.6471,-1.6424,-1.6318,-3.9388,-3.9388,-3.9352,-3.8657,-3.7753,-3.7753,-3.7123,-3.6093,-3.5359,-3.4869,-3.4511,-3.3755,-3.3245,-3.2978,-3.3199,-3.2939,-3.231,-3.2441,-3.1938,-3.092,-3.0702,-3.0713,-3.0809,-3.0177,-3.0216,-3.0696,-3.0165,-2.9856,-2.9779,-2.9779,-2.9779,-2.9779,-2.9817,-2.9817,-2.9905,-3.0344,-3.053,-3.062,-3.0997,-3.1298,-3.1361,-3.1323,-3.1286,-3.127,-3.1286,-3.1195,-3.122,-3.1257,-3.1163,-3.0984,-3.0906,-3.0754,-3.034,-3.0287,-3.0198,-3.0091,-3.0098,-3.0134,-2.9965,-2.9328,-2.8907,-2.8889,-2.7677,-2.6755,-2.6857,-2.6132,-2.5691,-2.5635,-2.5557,-2.5226,-2.4602,-2.4534,-2.4495,-2.4475,-2.4426,-2.437,-2.4358,-2.4164,-2.4081,-2.3892,-2.3511,-2.3196,-2.2935,-2.2849,-2.2306,-2.1782,-2.1371,-2.0933,-2.0021,-1.9034,-1.8467,-1.8304,-1.7816,-1.7041,-1.6794,-1.6847,-1.6807,-1.6827,-1.6921,-1.684,-1.7052,-1.7213,-1.7347,-1.7454,-1.7343,-1.7376,-1.7522,-1.7443,-1.7312,-1.7272,-1.7173,-1.7067,-1.6796,-1.673,-1.6571,-3.9388,-3.9388,-3.9388,-3.9141,-3.8819,-3.8833,-3.8219,-3.7228,-3.6919,-3.6041,-3.4938,-3.4441,-3.3882,-3.3313,-3.3843,-3.3905,-3.3617,-3.3348,-3.3224,-3.3146,-3.2511,-3.2186,-3.2161,-3.1591,-3.1071,-3.0871,-3.062,-3.0241,-2.9818,-2.9779,-2.9779,-2.9854,-3.0168,-3.0319,-3.0419,-3.0846,-3.111,-3.1135,-3.1311,-3.1549,-3.1888,-3.1913,-3.2077,-3.2403,-3.1763,-3.1386,-3.1386,-3.1386,-3.1317,-3.1124,-3.1083,-3.096,-3.0724,-3.0809,-3.0822,-3.0669,-3.0946,-3.1139,-3.1096,-3.0811,-3.0376,-2.9905,-2.9342,-2.8611,-2.8125,-2.7284,-2.6648,-2.6562,-2.6004,-2.5537,-2.5333,-2.5216,-2.5216,-2.5216,-2.5206,-2.507,-2.4902,-2.4787,-2.4652,-2.4307,-2.3998,-2.3775,-2.3645,-2.3364,-2.3128,-2.2967,-2.2329,-2.1793,-2.1404,-2.0101,-1.9059,-1.8862,-1.8195,-1.7395,-1.7308,-1.7281,-1.7281,-1.7275,-1.7295,-1.7301,-1.7454,-1.7447,-1.7488,-1.7488,-1.7575,-1.7582,-1.7575,-1.7575,-1.7483,-1.7483,-1.7437,-1.7279,-1.7067,-1.7001,-1.6842,-3.9388,-3.9388,-3.9388,-3.9388,-3.9388,-3.9388,-3.898,-3.8308,-3.8032,-3.7165,-3.5975,-3.5507,-3.4787,-3.4079,-3.4371,-3.4744,-3.4841,-3.443,-3.4259,-3.4311,-3.3601,-3.3196,-3.285,-3.2139,-3.1452,-3.0932,-3.0658,-3.0279,-2.9895,-3.0037,-3.0266,-3.0522,-3.0813,-3.108,-3.1296,-3.1549,-3.165,-3.1675,-3.1838,-3.2127,-3.2466,-3.2491,-3.2667,-3.2948,-3.2328,-3.1926,-3.1938,-3.1938,-3.1897,-3.1785,-3.1743,-3.1647,-3.1475,-3.1516,-3.1466,-3.1342,-3.16,-3.1761,-3.1705,-3.1705,-3.1415,-3.0722,-3.0351,-2.9841,-2.9177,-2.8262,-2.7605,-2.7152,-2.6648,-2.61,-2.5781,-2.5674,-2.5684,-2.5684,-2.5684,-2.5625,-2.5332,-2.5283,-2.5099,-2.4762,-2.4619,-2.4449,-2.4326,-2.4051,-2.3992,-2.4197,-2.3371,-2.3054,-2.285,-2.1692,-2.0143,-1.9746,-1.8857,-1.8067,-1.7646,-1.7462,-1.7468,-1.7475,-1.7468,-1.7549,-1.7589,-1.7589,-1.7589,-1.7589,-1.7589,-1.7589,-1.7589,-1.7589,-1.7589,-1.7589,-1.7589,-1.743,-1.7378,-1.7325,-1.7166,-3.9388,-3.9388,-3.9388,-3.9388,-3.9388,-3.9388,-3.9388,-3.9156,-3.8575,-3.8008,-3.741,-3.688,-3.5895,-3.5102,-3.491,-3.5278,-3.5467,-3.5319,-3.4875,-3.4166,-3.4035,-3.3734,-3.3217,-3.1955,-3.1279,-3.104,-3.0254,-2.9932,-2.9969,-3.065,-3.125,-3.168,-3.172,-3.2071,-3.2659,-3.2355,-3.2227,-3.2399,-3.2751,-3.3023,-3.3111,-3.3061,-3.3061,-3.3124,-3.3023,-3.2986,-3.3036,-3.298,-3.2918,-3.2968,-3.298,-3.2914,-3.2587,-3.2432,-3.2276,-3.2008,-3.2025,-3.1893,-3.1749,-3.1717,-3.1705,-3.1472,-3.0824,-3.0306,-3.0125,-2.928,-2.8402,-2.7746,-2.7237,-2.6771,-2.6004,-2.5732,-2.5684,-2.5684,-2.5684,-2.5664,-2.5654,-2.5664,-2.5616,-2.5344,-2.5198,-2.5148,-2.5001,-2.4799,-2.479,-2.4769,-2.4651,-2.4464,-2.4156,-2.3153,-2.2232,-2.1124,-1.9849,-1.876,-1.8146,-1.7628,-1.7628,-1.7575,-1.7562,-1.7589,-1.7589,-1.7589,-1.7589,-1.7589,-1.7589,-1.7589,-1.7589,-1.7589,-1.7589,-1.7589,-1.7582,-1.7582,-1.7536,-1.7483,-1.743,-3.9388,-3.9388,-3.9388,-3.9388,-3.9388,-3.9388,-3.9388,-3.9388,-3.9119,-3.8664,-3.806,-3.7615,-3.6607,-3.5413,-3.5061,-3.4759,-3.4288,-3.4731,-3.5547,-3.635,-3.5729,-3.5149,-3.4706,-3.3477,-3.2586,-3.2032,-3.1271,-3.0884,-3.1046,-3.172,-3.2032,-3.1778,-3.2512,-3.2985,-3.322,-3.2995,-3.306,-3.3608,-3.331,-3.3124,-3.3124,-3.3124,-3.3124,-3.3124,-3.3124,-3.3124,-3.3124,-3.3124,-3.3124,-3.3124,-3.3124,-3.2982,-3.2754,-3.2636,-3.2506,-3.23,-3.2257,-3.2169,-3.195,-3.1893,-3.1849,-3.1673,-3.1383,-3.125,-3.1149,-3.0306,-2.9612,-2.905,-2.8075,-2.701,-2.6686,-2.6052,-2.5732,-2.5684,-2.5684,-2.5684,-2.5684,-2.5684,-2.5684,-2.5586,-2.5586,-2.5538,-2.543,-2.5342,-2.5186,-2.5137,-2.503,-2.4883,-2.4677,-2.3958,-2.3085,-2.2282,-2.0802,-1.9376,-1.876,-1.8042,-1.7635,-1.7641,-1.7589,-1.7589,-1.7589,-1.7589,-1.7589,-1.7589,-1.7589,-1.7589,-1.7589,-1.7589,-1.7589,-1.7589,-1.7589,-1.7589,-1.7589,-1.7589,-1.7483,-3.9388,-3.9388,-3.9388,-3.9388,-3.9388,-3.9388,-3.9388,-3.9388,-3.9388,-3.9119,-3.8649,-3.8486,-3.7691,-3.6503,-3.5895,-3.5318,-3.4649,-3.4922,-3.5884,-3.7123,-3.6137,-3.5397,-3.4913,-3.3553,-3.262,-3.2182,-3.163,-3.1577,-3.1928,-3.2686,-3.2975,-3.2906,-3.3527,-3.3897,-3.3781,-3.3365,-3.3411,-3.3781,-3.3368,-3.3124,-3.3124,-3.3124,-3.3124,-3.3124,-3.3124,-3.3124,-3.3124,-3.3124,-3.3124,-3.3124,-3.3124,-3.3038,-3.2853,-3.284,-3.2766,-3.255,-3.2475,-3.2388,-3.2081,-3.2006,-3.1893,-3.1761,-3.1705,-3.1705,-3.1617,-3.1003,-3.0689,-3.0022,-2.8762,-2.7615,-2.7152,-2.6274,-2.5732,-2.5684,-2.5684,-2.5684,-2.5684,-2.5684,-2.5684,-2.5684,-2.5684,-2.5684,-2.5635,-2.5596,-2.544,-2.544,-2.5284,-2.5137,-2.4981,-2.452,-2.3908,-2.3035,-2.1617,-2.0392,-1.942,-1.861,-1.7793,-1.7641,-1.7589,-1.7589,-1.7589,-1.7589,-1.7589,-1.7589,-1.7589,-1.7589,-1.7589,-1.7589,-1.7589,-1.7589,-1.7589,-1.7589,-1.7589,-1.7589,-1.7536,-3.9388,-3.9388,-3.9388,-3.9388,-3.9388,-3.9388,-3.9388,-3.9388,-3.9388,-3.9388,-3.9316,-3.9265,-3.8848,-3.8075,-3.7179,-3.6674,-3.6466,-3.5615,-3.5602,-3.5853,-3.5153,-3.4326,-3.3574,-3.2684,-3.2138,-3.176,-3.1833,-3.2201,-3.2854,-3.3788,-3.4258,-3.4458,-3.4566,-3.4594,-3.4228,-3.3526,-3.321,-3.3368,-3.321,-3.3124,-3.3124,-3.3124,-3.3124,-3.3124,-3.3124,-3.3124,-3.3124,-3.3124,-3.3124,-3.3124,-3.3124,-3.3081,-3.3081,-3.3068,-3.2952,-3.2766,-3.2711,-3.2506,-3.2157,-3.2081,-3.1981,-3.1805,-3.1717,-3.1705,-3.1661,-3.1572,-3.125,-3.0486,-2.928,-2.8251,-2.7426,-2.6322,-2.5771,-2.5684,-2.5684,-2.5684,-2.5684,-2.5684,-2.5684,-2.5684,-2.5684,-2.5684,-2.5684,-2.5684,-2.5684,-2.5684,-2.5635,-2.5489,-2.5382,-2.4971,-2.4618,-2.3701,-2.2584,-2.1371,-2.0341,-1.9176,-1.8363,-1.7641,-1.7589,-1.7589,-1.7589,-1.7589,-1.7589,-1.7589,-1.7589,-1.7589,-1.7589,-1.7589,-1.7589,-1.7589,-1.7589,-1.7589,-1.7589,-1.7589,-1.7589,-3.9388,-3.9388,-3.9388,-3.9388,-3.9388,-3.9388,-3.9388,-3.9388,-3.9388,-3.9388,-3.9388,-3.9388,-3.8958,-3.824,-3.7962,-3.7424,-3.6621,-3.5762,-3.5291,-3.5129,-3.4241,-3.3579,-3.3423,-3.3534,-3.321,-3.2862,-3.3647,-3.4283,-3.4091,-3.5297,-3.5499,-3.4548,-3.509,-3.4982,-3.4384,-3.3496,-3.3496,-3.3852,-3.3368,-3.3124,-3.3124,-3.3124,-3.3124,-3.3124,-3.3124,-3.3124,-3.3124,-3.3124,-3.3124,-3.3124,-3.3124,-3.3124,-3.3124,-3.3124,-3.3068,-3.2995,-3.2982,-3.2853,-3.255,-3.2376,-3.2169,-3.1937,-3.1805,-3.1705,-3.1705,-3.1705,-3.1572,-3.1003,-2.9795,-2.8623,-2.8075,-2.6696,-2.5868,-2.5684,-2.5684,-2.5684,-2.5684,-2.5684,-2.5684,-2.5684,-2.5684,-2.5684,-2.5684,-2.5684,-2.5684,-2.5684,-2.5684,-2.5684,-2.5538,-2.5538,-2.5128,-2.4766,-2.38,-2.2484,-2.1218,-1.9996,-1.8923,-1.7898,-1.7589,-1.7589,-1.7589,-1.7589,-1.7589,-1.7589,-1.7589,-1.7589,-1.7589,-1.7589,-1.7589,-1.7589,-1.7589,-1.7589,-1.7589,-1.7589,-1.7589,-3.9388,-3.9388,-3.9388,-3.9388,-3.9388,-3.9388,-3.9388,-3.9388,-3.9388,-3.9388,-3.9388,-3.9388,-3.9156,-3.8686,-3.8352,-3.7872,-3.7232,-3.6371,-3.5909,-3.5602,-3.4951,-3.4066,-3.3556,-3.3979,-3.4118,-3.3852,-3.4938,-3.5453,-3.5588,-3.6506,-3.6096,-3.5224,-3.5346,-3.5006,-3.3852,-3.3411,-3.3326,-3.3654,-3.3326,-3.3124,-3.3124,-3.3124,-3.3124,-3.3124,-3.3124,-3.3124,-3.3124,-3.3124,-3.3124,-3.3124,-3.3124,-3.3124,-3.3124,-3.3124,-3.3124,-3.3124,-3.3124,-3.2982,-3.2766,-3.2605,-3.2376,-3.2069,-3.1893,-3.1805,-3.1717,-3.1705,-3.1705,-3.1472,-3.0158,-2.9269,-2.8448,-2.6887,-2.5868,-2.5684,-2.5684,-2.5684,-2.5684,-2.5684,-2.5684,-2.5684,-2.5684,-2.5684,-2.5684,-2.5684,-2.5684,-2.5684,-2.5684,-2.5684,-2.5684,-2.5693,-2.5645,-2.5226,-2.4559,-2.3194,-2.1828,-2.0554,-1.9131,-1.8101,-1.7589,-1.7589,-1.7589,-1.7589,-1.7589,-1.7589,-1.7589,-1.7589,-1.7589,-1.7589,-1.7589,-1.7589,-1.7589,-1.7589,-1.7589,-1.7589,-1.7589,-3.9388,-3.9388,-3.9388,-3.9388,-3.9388,-3.9388,-3.9388,-3.9388,-3.9388,-3.9388,-3.9388,-3.9388,-3.9352,-3.9337,-3.8701,-3.8352,-3.8277,-3.7372,-3.683,-3.6413,-3.5896,-3.5047,-3.3827,-3.433,-3.4592,-3.4662,-3.5346,-3.6082,-3.6531,-3.6858,-3.6439,-3.5628,-3.5453,-3.4594,-3.3526,-3.3124,-3.3124,-3.321,-3.321,-3.3124,-3.3124,-3.3124,-3.3124,-3.3124,-3.3124,-3.3124,-3.3124,-3.3124,-3.3124,-3.3124,-3.3124,-3.3124,-3.3124,-3.3124,-3.3124,-3.3124,-3.3081,-3.2982,-3.2766,-3.268,-3.2506,-3.2113,-3.1994,-3.1906,-3.1761,-3.1705,-3.1705,-3.1705,-3.0779,-2.9601,-2.8355,-2.6744,-2.5868,-2.5684,-2.5684,-2.5684,-2.5684,-2.5684,-2.5684,-2.5684,-2.5684,-2.5684,-2.5684,-2.5684,-2.5684,-2.5684,-2.5684,-2.5684,-2.5684,-2.5684,-2.5684,-2.5586,-2.4766,-2.3791,-2.2425,-2.1057,-1.9583,-1.8311,-1.7793,-1.7589,-1.7589,-1.7589,-1.7589,-1.7589,-1.7589,-1.7589,-1.7589,-1.7589,-1.7589,-1.7589,-1.7589,-1.7589,-1.7589,-1.7589,-1.7589,-3.9388,-3.9388,-3.9388,-3.9388,-3.9388,-3.9388,-3.9388,-3.9388,-3.9388,-3.9388,-3.9388,-3.9388,-3.9388,-3.9388,-3.9119,-3.9156,-3.8922,-3.8136,-3.74,-3.6413,-3.6308,-3.5843,-3.5142,-3.5318,-3.5305,-3.5548,-3.6201,-3.6688,-3.6897,-3.6805,-3.6439,-3.5628,-3.4924,-3.4134,-3.3283,-3.3124,-3.3124,-3.3124,-3.3124,-3.3124,-3.3124,-3.3124,-3.3124,-3.3124,-3.3124,-3.3124,-3.3124,-3.3124,-3.3124,-3.3124,-3.3124,-3.3124,-3.3124,-3.3124,-3.3124,-3.3124,-3.3124,-3.3081,-3.2939,-3.2692,-3.2431,-3.23,-3.1981,-3.1749,-3.1717,-3.1705,-3.1705,-3.1528,-3.0767,-2.9612,-2.7934,-2.6514,-2.582,-2.5684,-2.5684,-2.5684,-2.5684,-2.5684,-2.5684,-2.5684,-2.5684,-2.5684,-2.5684,-2.5684,-2.5684,-2.5684,-2.5684,-2.5684,-2.5684,-2.5684,-2.5684,-2.5684,-2.5323,-2.4304,-2.2484,-2.1014,-1.9487,-1.8363,-1.7898,-1.7589,-1.7589,-1.7589,-1.7589,-1.7589,-1.7589,-1.7589,-1.7589,-1.7589,-1.7589,-1.7589,-1.7589,-1.7589,-1.7589,-1.7589,-1.7589,-3.9388,-3.9388,-3.9388,-3.9388,-3.9388,-3.9388,-3.9388,-3.9388,-3.9388,-3.9388,-3.9388,-3.9388,-3.9388,-3.9352,-3.9031,-3.8811,-3.8701,-3.824,-3.7567,-3.7053,-3.7092,-3.7078,-3.6752,-3.6399,-3.6227,-3.632,-3.7078,-3.7285,-3.7014,-3.678,-3.6241,-3.5128,-3.4579,-3.3979,-3.324,-3.3124,-3.3124,-3.3124,-3.3124,-3.3124,-3.3124,-3.3124,-3.3124,-3.3124,-3.3124,-3.3124,-3.3124,-3.3124,-3.3124,-3.3124,-3.3124,-3.3124,-3.3124,-3.3124,-3.3124,-3.3124,-3.3124,-3.3124,-3.2995,-3.2779,-3.2506,-3.24,-3.2081,-3.1849,-3.1761,-3.1705,-3.1705,-3.1617,-3.1104,-3.0113,-2.8121,-2.6466,-2.5868,-2.5684,-2.5684,-2.5684,-2.5684,-2.5684,-2.5684,-2.5684,-2.5684,-2.5684,-2.5684,-2.5684,-2.5684,-2.5684,-2.5684,-2.5684,-2.5684,-2.5684,-2.5684,-2.5684,-2.5684,-2.4766,-2.2685,-2.0912,-1.928,-1.8363,-1.7799,-1.7641,-1.7589,-1.7589,-1.7589,-1.7589,-1.7589,-1.7589,-1.7589,-1.7589,-1.7589,-1.7589,-1.7589,-1.7589,-1.7589,-1.7589,-1.7589,-3.9388,-3.9388,-3.9388,-3.9388,-3.9388,-3.9388,-3.9388,-3.9388,-3.9388,-3.9388,-3.9388,-3.9388,-3.9388,-3.9228,-3.859,-3.8188,-3.791,-3.763,-3.7232,-3.7169,-3.7515,-3.7591,-3.7529,-3.7246,-3.7092,-3.7169,-3.7285,-3.7208,-3.6936,-3.6545,-3.5629,-3.4551,-3.423,-3.3738,-3.324,-3.3124,-3.3124,-3.3124,-3.3124,-3.3124,-3.3124,-3.3124,-3.3124,-3.3124,-3.3124,-3.3124,-3.3124,-3.3124,-3.3124,-3.3124,-3.3124,-3.3124,-3.3124,-3.3124,-3.3124,-3.3124,-3.3124,-3.3124,-3.3038,-3.2822,-3.2562,-3.2388,-3.2125,-3.1893,-3.1749,-3.1761,-3.1761,-3.1617,-3.1238,-3.0486,-2.8819,-2.7163,-2.61,-2.5781,-2.5684,-2.5684,-2.5684,-2.5684,-2.5684,-2.5684,-2.5684,-2.5684,-2.5684,-2.5684,-2.5684,-2.5684,-2.5684,-2.5684,-2.5684,-2.5684,-2.5684,-2.5684,-2.5684,-2.4667,-2.2643,-2.0511,-1.8878,-1.8311,-1.7799,-1.7641,-1.7589,-1.7589,-1.7589,-1.7589,-1.7589,-1.7589,-1.7589,-1.7589,-1.7589,-1.7589,-1.7589,-1.7589,-1.7589,-1.7589,-1.7589,-3.9388,-3.9388,-3.9388,-3.9388,-3.9388,-3.9388,-3.9388,-3.9388,-3.9388,-3.9388,-3.9388,-3.9388,-3.9388,-3.9156,-3.8538,-3.7834,-3.7102,-3.6752,-3.6674,-3.6727,-3.7155,-3.7372,-3.7438,-3.7606,-3.7772,-3.7553,-3.6947,-3.632,-3.6373,-3.5548,-3.4827,-3.4301,-3.3725,-3.324,-3.321,-3.3124,-3.3124,-3.3124,-3.3124,-3.3124,-3.3124,-3.3124,-3.3124,-3.3124,-3.3124,-3.3124,-3.3124,-3.3124,-3.3124,-3.3124,-3.3124,-3.3124,-3.3124,-3.3124,-3.3124,-3.3124,-3.3124,-3.3124,-3.3081,-3.2692,-3.2475,-3.2344,-3.2169,-3.1937,-3.1805,-3.1849,-3.1849,-3.1528,-3.0913,-2.9977,-2.8808,-2.7568,-2.66,-2.6052,-2.5732,-2.5684,-2.5684,-2.5684,-2.5684,-2.5684,-2.5684,-2.5684,-2.5684,-2.5684,-2.5684,-2.5684,-2.5684,-2.5684,-2.5684,-2.5684,-2.5684,-2.5684,-2.5684,-2.4264,-2.2492,-2.0305,-1.852,-1.8213,-1.7852,-1.7641,-1.7589,-1.7589,-1.7589,-1.7589,-1.7589,-1.7589,-1.7589,-1.7589,-1.7589,-1.7589,-1.7589,-1.7589,-1.7589,-1.7589,-1.7589,-3.9388,-3.9388,-3.9388,-3.9388,-3.9388,-3.9388,-3.9388,-3.9388,-3.9388,-3.9388,-3.9388,-3.9388,-3.9156,-3.8649,-3.7895,-3.6869,-3.5883,-3.5762,-3.5936,-3.6281,-3.6791,-3.7309,-3.7323,-3.7591,-3.7491,-3.7053,-3.5923,-3.544,-3.6029,-3.506,-3.4189,-3.3696,-3.3283,-3.3124,-3.3124,-3.3124,-3.3124,-3.3124,-3.3124,-3.3124,-3.3124,-3.3124,-3.3124,-3.3124,-3.3124,-3.3124,-3.3124,-3.3124,-3.3124,-3.3124,-3.3124,-3.3124,-3.3124,-3.3124,-3.3124,-3.3124,-3.3124,-3.3124,-3.3038,-3.2692,-3.2444,-3.2356,-3.2125,-3.195,-3.1805,-3.1849,-3.1893,-3.1528,-3.0824,-3.0022,-2.951,-2.8111,-2.7094,-2.6552,-2.6052,-2.5732,-2.5684,-2.5684,-2.5684,-2.5684,-2.5684,-2.5684,-2.5684,-2.5684,-2.5684,-2.5684,-2.5684,-2.5684,-2.5684,-2.5684,-2.5684,-2.5528,-2.5421,-2.4205,-2.2584,-2.0656,-1.8878,-1.8415,-1.7852,-1.7694,-1.7589,-1.7589,-1.7589,-1.7589,-1.7589,-1.7589,-1.7589,-1.7589,-1.7589,-1.7589,-1.7589,-1.7589,-1.7589,-1.7589,-1.7589,-3.9388,-3.9388,-3.9388,-3.9388,-3.9388,-3.9388,-3.9388,-3.9388,-3.9388,-3.9388,-3.9388,-3.9192,-3.8775,-3.806,-3.7025,-3.5803,-3.4397,-3.4675,-3.5101,-3.5776,-3.6096,-3.678,-3.7232,-3.7078,-3.6649,-3.6413,-3.5305,-3.4744,-3.5087,-3.4454,-3.3781,-3.3368,-3.3124,-3.3124,-3.3124,-3.3124,-3.3124,-3.3124,-3.3124,-3.3124,-3.3124,-3.3124,-3.3124,-3.3124,-3.3124,-3.3124,-3.3124,-3.3124,-3.3124,-3.3124,-3.3124,-3.3124,-3.3124,-3.3124,-3.3124,-3.3124,-3.3124,-3.3068,-3.2896,-3.2649,-3.2356,-3.2257,-3.2125,-3.1906,-3.1805,-3.1805,-3.1849,-3.1572,-3.1104,-3.0396,-2.9932,-2.8577,-2.7558,-2.6962,-2.6274,-2.5684,-2.5684,-2.5684,-2.5684,-2.5684,-2.5684,-2.5684,-2.5684,-2.5684,-2.5684,-2.5684,-2.5684,-2.5684,-2.5684,-2.5684,-2.5635,-2.5372,-2.4971,-2.4097,-2.2726,-2.1202,-1.9782,-1.9072,-1.8258,-1.7641,-1.7589,-1.7589,-1.7589,-1.7589,-1.7589,-1.7589,-1.7589,-1.7589,-1.7589,-1.7589,-1.7589,-1.7589,-1.7589,-1.7589,-1.7589,-3.9388,-3.9388,-3.9388,-3.9388,-3.9388,-3.9352,-3.9388,-3.9352,-3.9265,-3.9388,-3.9156,-3.8649,-3.824,-3.7682,-3.6188,-3.5006,-3.4301,-3.3907,-3.4259,-3.4991,-3.5032,-3.5413,-3.5895,-3.5869,-3.5749,-3.5602,-3.4786,-3.4468,-3.4371,-3.3683,-3.3326,-3.3124,-3.3124,-3.3124,-3.3124,-3.3124,-3.3124,-3.3124,-3.3124,-3.3124,-3.3124,-3.3124,-3.3124,-3.3124,-3.3124,-3.3124,-3.3124,-3.3124,-3.3124,-3.3124,-3.3124,-3.3124,-3.3124,-3.3124,-3.3124,-3.3124,-3.3081,-3.3025,-3.281,-3.2519,-3.2257,-3.2125,-3.205,-3.1906,-3.1805,-3.1749,-3.1761,-3.1717,-3.1516,-3.1104,-3.0351,-2.9189,-2.8215,-2.7237,-2.6418,-2.5868,-2.5684,-2.5684,-2.5684,-2.5684,-2.5684,-2.5684,-2.5684,-2.5684,-2.5684,-2.5684,-2.5684,-2.5684,-2.5684,-2.5684,-2.5684,-2.5479,-2.5118,-2.4254,-2.2976,-2.1456,-2.0238,-1.9531,-1.8558,-1.7641,-1.7589,-1.7589,-1.7589,-1.7589,-1.7589,-1.7589,-1.7589,-1.7589,-1.7589,-1.7589,-1.7589,-1.7589,-1.7589,-1.7589,-1.7589,-3.9388,-3.9388,-3.9388,-3.9388,-3.9352,-3.8922,-3.8738,-3.8612,-3.8211,-3.7994,-3.7956,-3.7653,-3.7232,-3.657,-3.521,-3.4468,-3.4034,-3.3611,-3.3894,-3.4468,-3.4551,-3.4814,-3.5346,-3.5169,-3.4937,-3.469,-3.4189,-3.3611,-3.3484,-3.3368,-3.3124,-3.3124,-3.3124,-3.3124,-3.3124,-3.3124,-3.3124,-3.3124,-3.3124,-3.3124,-3.3124,-3.3124,-3.3124,-3.3124,-3.3124,-3.3124,-3.3124,-3.3124,-3.3124,-3.3124,-3.3124,-3.3124,-3.3124,-3.3124,-3.3124,-3.3124,-3.3124,-3.2982,-3.2711,-3.2376,-3.2157,-3.2038,-3.2006,-3.195,-3.1849,-3.1761,-3.1705,-3.1705,-3.1705,-3.1427,-3.0824,-2.9612,-2.8773,-2.7793,-2.66,-2.6004,-2.5684,-2.5684,-2.5684,-2.5684,-2.5684,-2.5684,-2.5684,-2.5684,-2.5684,-2.5684,-2.5684,-2.5684,-2.5684,-2.5684,-2.5684,-2.5684,-2.5226,-2.4618,-2.3235,-2.176,-2.0349,-1.9435,-1.8356,-1.7687,-1.7641,-1.7589,-1.7589,-1.7589,-1.7589,-1.7589,-1.7589,-1.7589,-1.7589,-1.7589,-1.7589,-1.7589,-1.7589,-1.7589,-1.7589,-3.9388,-3.9388,-3.9388,-3.9301,-3.9046,-3.8427,-3.8075,-3.7796,-3.7256,-3.6933,-3.6855,-3.6699,-3.6122,-3.5291,-3.4468,-3.3979,-3.3907,-3.3526,-3.3894,-3.4272,-3.4397,-3.4538,-3.4731,-3.4509,-3.4063,-3.4063,-3.3569,-3.324,-3.3167,-3.3124,-3.3124,-3.3124,-3.3124,-3.3124,-3.3124,-3.3124,-3.3124,-3.3124,-3.3124,-3.3124,-3.3124,-3.3124,-3.3124,-3.3124,-3.3124,-3.3124,-3.3124,-3.3124,-3.3124,-3.3124,-3.3124,-3.3124,-3.3124,-3.3124,-3.3124,-3.3081,-3.3038,-3.2853,-3.2593,-3.2344,-3.2113,-3.2038,-3.1994,-3.1981,-3.1906,-3.1761,-3.1705,-3.1705,-3.1705,-3.1705,-3.1294,-2.9897,-2.8912,-2.7945,-2.6887,-2.6235,-2.5684,-2.5684,-2.5684,-2.5684,-2.5684,-2.5684,-2.5684,-2.5684,-2.5684,-2.5684,-2.5684,-2.5684,-2.5684,-2.5684,-2.5684,-2.5684,-2.5479,-2.4922,-2.3642,-2.2173,-2.0708,-1.9332,-1.8304,-1.7687,-1.7635,-1.7641,-1.7589,-1.7589,-1.7589,-1.7589,-1.7589,-1.7589,-1.7589,-1.7589,-1.7589,-1.7589,-1.7589,-1.7589,-1.7589,-3.9388,-3.9388,-3.9373,-3.8973,-3.8315,-3.824,-3.7706,-3.6986,-3.6841,-3.6724,-3.6543,-3.6082,-3.5223,-3.4397,-3.4008,-3.3683,-3.3428,-3.3197,-3.3654,-3.3865,-3.3738,-3.3852,-3.3979,-3.3768,-3.3326,-3.3326,-3.3124,-3.3124,-3.3124,-3.3124,-3.3124,-3.3124,-3.3124,-3.3124,-3.3124,-3.3124,-3.3124,-3.3124,-3.3124,-3.3124,-3.3124,-3.3124,-3.3124,-3.3124,-3.3124,-3.3124,-3.3124,-3.3124,-3.3124,-3.3124,-3.3124,-3.3124,-3.3124,-3.3124,-3.3124,-3.3081,-3.2896,-3.2723,-3.2475,-3.2344,-3.2201,-3.2081,-3.1994,-3.1893,-3.1805,-3.1761,-3.1705,-3.1705,-3.1705,-3.1705,-3.1149,-3.0079,-2.8866,-2.8121,-2.7115,-2.61,-2.5684,-2.5684,-2.5684,-2.5684,-2.5684,-2.5684,-2.5684,-2.5684,-2.5684,-2.5684,-2.5684,-2.5684,-2.5684,-2.5684,-2.5684,-2.5684,-2.5684,-2.5118,-2.4048,-2.2626,-2.1065,-1.9642,-1.8415,-1.7898,-1.7635,-1.7635,-1.7589,-1.7589,-1.7589,-1.7589,-1.7589,-1.7589,-1.7589,-1.7589,-1.7589,-1.7589,-1.7589,-1.7589,-1.7589,-3.9388,-3.9352,-3.8885,-3.8478,-3.8165,-3.763,-3.6947,-3.6122,-3.5602,-3.5372,-3.5372,-3.5019,-3.4592,-3.416,-3.381,-3.3586,-3.3386,-3.3197,-3.3368,-3.3411,-3.3326,-3.3326,-3.3411,-3.3368,-3.3124,-3.3124,-3.3124,-3.3124,-3.3124,-3.3124,-3.3124,-3.3124,-3.3124,-3.3124,-3.3124,-3.3124,-3.3124,-3.3124,-3.3124,-3.3124,-3.3124,-3.3124,-3.3124,-3.3124,-3.3124,-3.3124,-3.3124,-3.3124,-3.3124,-3.3124,-3.3124,-3.3124,-3.3124,-3.3124,-3.3081,-3.3081,-3.2853,-3.2593,-3.2388,-3.2257,-3.2025,-3.1893,-3.1805,-3.1761,-3.1705,-3.1705,-3.1705,-3.1705,-3.1705,-3.1705,-3.1427,-2.9977,-2.8588,-2.8168,-2.7295,-2.61,-2.5684,-2.5684,-2.5684,-2.5684,-2.5684,-2.5684,-2.5684,-2.5684,-2.5684,-2.5684,-2.5684,-2.5684,-2.5684,-2.5684,-2.5684,-2.5684,-2.5684,-2.4716,-2.3592,-2.2484,-2.1371,-1.9952,-1.8527,-1.8108,-1.7687,-1.7635,-1.7589,-1.7589,-1.7589,-1.7589,-1.7589,-1.7589,-1.7589,-1.7589,-1.7589,-1.7589,-1.7589,-1.7589,-1.7589,-3.9388,-3.9301,-3.8538,-3.8037,-3.772,-3.6908,-3.6068,-3.5318,-3.4716,-3.4397,-3.4397,-3.4314,-3.4189,-3.3949,-3.3725,-3.3471,-3.3326,-3.3167,-3.3124,-3.3124,-3.3167,-3.3124,-3.3124,-3.3124,-3.3124,-3.3124,-3.3124,-3.3124,-3.3124,-3.3124,-3.3124,-3.3124,-3.3124,-3.3124,-3.3124,-3.3124,-3.3124,-3.3124,-3.3124,-3.3124,-3.3124,-3.3124,-3.3124,-3.3124,-3.3124,-3.3124,-3.3124,-3.3124,-3.3124,-3.3124,-3.3124,-3.3124,-3.3124,-3.3081,-3.3068,-3.2939,-3.281,-3.2593,-3.23,-3.2125,-3.1893,-3.1761,-3.1805,-3.1793,-3.1705,-3.1705,-3.1705,-3.1705,-3.1705,-3.1705,-3.1572,-2.9977,-2.8819,-2.8308,-2.6839,-2.5684,-2.5684,-2.5684,-2.5684,-2.5684,-2.5684,-2.5684,-2.5684,-2.5684,-2.5684,-2.5684,-2.5684,-2.5684,-2.5684,-2.5684,-2.5684,-2.5684,-2.5684,-2.4412,-2.2944,-2.2333,-2.1574,-1.9546,-1.837,-1.8055,-1.7799,-1.7694,-1.7641,-1.7589,-1.7589,-1.7589,-1.7589,-1.7589,-1.7589,-1.7589,-1.7589,-1.7589,-1.7589,-1.7589,-1.7589,-3.9388,-3.9316,-3.8501,-3.7706,-3.6986,-3.6082,-3.5264,-3.4634,-3.4439,-3.4397,-3.4356,-3.4189,-3.3979,-3.3725,-3.3513,-3.3356,-3.321,-3.3124,-3.3124,-3.3124,-3.3124,-3.3124,-3.3124,-3.3124,-3.3124,-3.3124,-3.3124,-3.3124,-3.3124,-3.3124,-3.3124,-3.3124,-3.3124,-3.3124,-3.3124,-3.3124,-3.3124,-3.3124,-3.3124,-3.3124,-3.3124,-3.3124,-3.3124,-3.3124,-3.3124,-3.3124,-3.3124,-3.3124,-3.3124,-3.3124,-3.3124,-3.3124,-3.3124,-3.3124,-3.3038,-3.281,-3.2723,-3.2463,-3.2069,-3.2025,-3.1893,-3.1749,-3.1793,-3.1849,-3.1761,-3.1705,-3.1705,-3.1705,-3.1705,-3.1705,-3.1048,-3.0022,-2.9143,-2.8168,-2.6696,-2.5684,-2.5684,-2.5684,-2.5684,-2.5684,-2.5684,-2.5684,-2.5684,-2.5684,-2.5684,-2.5684,-2.5684,-2.5684,-2.5684,-2.5684,-2.5684,-2.5684,-2.5684,-2.4707,-2.3493,-2.2785,-2.1667,-1.9591,-1.837,-1.8213,-1.795,-1.7793,-1.774,-1.7641,-1.7589,-1.7589,-1.7589,-1.7589,-1.7589,-1.7589,-1.7589,-1.7589,-1.7589,-1.7589,-1.7589,-3.9388,-3.9265,-3.7919,-3.7165,-3.6816,-3.6042,-3.5196,-3.4481,-3.4397,-3.4314,-3.4202,-3.4118,-3.3865,-3.3556,-3.3441,-3.3283,-3.3124,-3.3124,-3.3124,-3.3124,-3.3124,-3.3124,-3.3124,-3.3124,-3.3124,-3.3124,-3.3124,-3.3124,-3.3124,-3.3124,-3.3124,-3.3124,-3.3124,-3.3124,-3.3124,-3.3124,-3.3124,-3.3124,-3.3124,-3.3124,-3.3124,-3.3124,-3.3124,-3.3124,-3.3124,-3.3124,-3.3124,-3.3124,-3.3124,-3.3124,-3.3124,-3.3124,-3.3124,-3.3124,-3.3038,-3.2853,-3.2723,-3.23,-3.1937,-3.1805,-3.1749,-3.1749,-3.1749,-3.1805,-3.1717,-3.1705,-3.1705,-3.1705,-3.1705,-3.1705,-3.1383,-2.9795,-2.8819,-2.8308,-2.7163,-2.6052,-2.5684,-2.5684,-2.5684,-2.5684,-2.5684,-2.5684,-2.5684,-2.5684,-2.5684,-2.5684,-2.5684,-2.5684,-2.5684,-2.5684,-2.5684,-2.5684,-2.5528,-2.4815,-2.4048,-2.3285,-2.2534,-2.0963,-1.9487,-1.8617,-1.8356,-1.8048,-1.774,-1.7641,-1.7589,-1.7589,-1.7589,-1.7589,-1.7589,-1.7589,-1.7589,-1.7589,-1.7589,-1.7589,-1.7589,-3.9228,-3.8833,-3.7486,-3.6738,-3.6385,-3.5615,-3.4922,-3.4439,-3.4314,-3.4243,-3.4076,-3.3949,-3.3696,-3.3428,-3.3313,-3.324,-3.3124,-3.3124,-3.3124,-3.3124,-3.3124,-3.3124,-3.3124,-3.3124,-3.3124,-3.3124,-3.3124,-3.3124,-3.3124,-3.3124,-3.3124,-3.3124,-3.3124,-3.3124,-3.3124,-3.3124,-3.3124,-3.3124,-3.3124,-3.3124,-3.3124,-3.3124,-3.3124,-3.3124,-3.3124,-3.3124,-3.3124,-3.3124,-3.3124,-3.3124,-3.3124,-3.3124,-3.3124,-3.3124,-3.3038,-3.2779,-3.2419,-3.2025,-3.1793,-3.1705,-3.1705,-3.1705,-3.1705,-3.1705,-3.1705,-3.1705,-3.1705,-3.1705,-3.1705,-3.1427,-3.1003,-2.9418,-2.8588,-2.8075,-2.7067,-2.5965,-2.5684,-2.5684,-2.5684,-2.5684,-2.5684,-2.5684,-2.5684,-2.5684,-2.5684,-2.5684,-2.5684,-2.5684,-2.5684,-2.5684,-2.5684,-2.5684,-2.5577,-2.5011,-2.4353,-2.3692,-2.2935,-2.2232,-2.0759,-1.9228,-1.8715,-1.8401,-1.7996,-1.7589,-1.7589,-1.7589,-1.7589,-1.7589,-1.7589,-1.7589,-1.7589,-1.7589,-1.7589,-1.7589,-1.7589,-3.8885,-3.8113,-3.7218,-3.6425,-3.5655,-3.4881,-3.4439,-3.4397,-3.4202,-3.4118,-3.4021,-3.3611,-3.3441,-3.3368,-3.3197,-3.3124,-3.3124,-3.3124,-3.3124,-3.3124,-3.3124,-3.3124,-3.3124,-3.3124,-3.3124,-3.3124,-3.3124,-3.3124,-3.3124,-3.3124,-3.3124,-3.3124,-3.3124,-3.3124,-3.3124,-3.3124,-3.3124,-3.3124,-3.3124,-3.3124,-3.3124,-3.3124,-3.3124,-3.3124,-3.3124,-3.3124,-3.3124,-3.3124,-3.3124,-3.3124,-3.3124,-3.3124,-3.3124,-3.3124,-3.2835,-3.2431,-3.2025,-3.1893,-3.1705,-3.1705,-3.1705,-3.1705,-3.1705,-3.1705,-3.1705,-3.1705,-3.1705,-3.1705,-3.1661,-3.1003,-3.0306,-2.9326,-2.8308,-2.7484,-2.6466,-2.5917,-2.5732,-2.5684,-2.5684,-2.5684,-2.5684,-2.5684,-2.5684,-2.5684,-2.5684,-2.5684,-2.5684,-2.5684,-2.5684,-2.5684,-2.5684,-2.5684,-2.5528,-2.5216,-2.4658,-2.4097,-2.3899,-2.3352,-2.1202,-1.9627,-1.922,-1.8708,-1.7996,-1.7589,-1.7589,-1.7589,-1.7589,-1.7589,-1.7589,-1.7589,-1.7589,-1.7589,-1.7589,-1.7589,-1.7589,-3.8404,-3.8052,-3.6649,-3.5896,-3.5588,-3.4758,-3.4397,-3.4356,-3.4202,-3.4034,-3.3797,-3.3526,-3.3326,-3.3197,-3.3111,-3.3124,-3.3124,-3.3124,-3.3124,-3.3124,-3.3124,-3.3124,-3.3124,-3.3124,-3.3124,-3.3124,-3.3124,-3.3124,-3.3124,-3.3124,-3.3124,-3.3124,-3.3124,-3.3124,-3.3124,-3.3124,-3.3124,-3.3124,-3.3124,-3.3124,-3.3124,-3.3124,-3.3124,-3.3124,-3.3124,-3.3124,-3.3124,-3.3124,-3.3124,-3.3124,-3.3124,-3.3124,-3.3124,-3.3081,-3.2909,-3.2475,-3.2213,-3.2069,-3.1805,-3.1705,-3.1705,-3.1705,-3.1705,-3.1705,-3.1705,-3.1705,-3.1705,-3.1705,-3.1472,-3.0869,-3.0022,-2.9004,-2.8028,-2.702,-2.6187,-2.5868,-2.5684,-2.5684,-2.5684,-2.5684,-2.5684,-2.5684,-2.5684,-2.5684,-2.5684,-2.5684,-2.5684,-2.5684,-2.5684,-2.5684,-2.5684,-2.5684,-2.5635,-2.5372,-2.5118,-2.4648,-2.4658,-2.4313,-2.2064,-2.0436,-2.0231,-1.9568,-1.8251,-1.7589,-1.7589,-1.7589,-1.7589,-1.7589,-1.7589,-1.7589,-1.7589,-1.7589,-1.7589,-1.7589,-1.7589,-3.8,-3.7515,-3.6255,-3.5507,-3.5114,-3.4634,-3.4356,-3.4243,-3.4021,-3.3852,-3.3683,-3.3398,-3.324,-3.3124,-3.3124,-3.3124,-3.3124,-3.3124,-3.3124,-3.3124,-3.3124,-3.3124,-3.3124,-3.3124,-3.3124,-3.3124,-3.3124,-3.3124,-3.3124,-3.3124,-3.3124,-3.3124,-3.3124,-3.3124,-3.3124,-3.3124,-3.3124,-3.3124,-3.3124,-3.3124,-3.3124,-3.3124,-3.3124,-3.3124,-3.3124,-3.3124,-3.3124,-3.3124,-3.3124,-3.3124,-3.3124,-3.3124,-3.3081,-3.2982,-3.2822,-3.2431,-3.2213,-3.2025,-3.1761,-3.1705,-3.1705,-3.1705,-3.1705,-3.1705,-3.1705,-3.1705,-3.1705,-3.1661,-3.1238,-3.0666,-2.9647,-2.8669,-2.7662,-2.6686,-2.6187,-2.5732,-2.5684,-2.5684,-2.5684,-2.5684,-2.5684,-2.5684,-2.5684,-2.5684,-2.5684,-2.5684,-2.5684,-2.5684,-2.5684,-2.5684,-2.5684,-2.5684,-2.5684,-2.5625,-2.5323,-2.5167,-2.5167,-2.4609,-2.2676,-2.1397,-2.1245,-1.987,-1.8101,-1.7589,-1.7589,-1.7589,-1.7589,-1.7589,-1.7589,-1.7589,-1.7589,-1.7589,-1.7589,-1.7589,-1.7589,-3.763,-3.6855,-3.5976,-3.5114,-3.4481,-3.4356,-3.423,-3.4076,-3.381,-3.367,-3.3598,-3.327,-3.3111,-3.3124,-3.3124,-3.3124,-3.3124,-3.3124,-3.3124,-3.3124,-3.3124,-3.3124,-3.3124,-3.3124,-3.3124,-3.3124,-3.3124,-3.3124,-3.3124,-3.3124,-3.3124,-3.3124,-3.3124,-3.3124,-3.3124,-3.3124,-3.3124,-3.3124,-3.3124,-3.3124,-3.3124,-3.3124,-3.3124,-3.3124,-3.3124,-3.3124,-3.3124,-3.3124,-3.3124,-3.3124,-3.3124,-3.3124,-3.3038,-3.2939,-3.2692,-3.2475,-3.2257,-3.2025,-3.1849,-3.1705,-3.1705,-3.1705,-3.1705,-3.1705,-3.1705,-3.1705,-3.1705,-3.1516,-3.1092,-3.0215,-2.9235,-2.8215,-2.7189,-2.6456,-2.5907,-2.5684,-2.5684,-2.5684,-2.5684,-2.5684,-2.5684,-2.5684,-2.5684,-2.5684,-2.5684,-2.5684,-2.5684,-2.5684,-2.5684,-2.5684,-2.5684,-2.5684,-2.5684,-2.5684,-2.5625,-2.5479,-2.5577,-2.4707,-2.2926,-2.1954,-2.1491,-1.9826,-1.774,-1.7589,-1.7589,-1.7589,-1.7589,-1.7589,-1.7589,-1.7589,-1.7589,-1.7589,-1.7589,-1.7589,-1.7589,-3.7088,-3.6724,-3.5142,-3.4439,-3.4343,-3.4008,-3.3979,-3.4076,-3.3654,-3.3484,-3.3428,-3.324,-3.3124,-3.3124,-3.3124,-3.3124,-3.3124,-3.3124,-3.3124,-3.3124,-3.3124,-3.3124,-3.3124,-3.3124,-3.3124,-3.3124,-3.3124,-3.3124,-3.3124,-3.3124,-3.3124,-3.3124,-3.3124,-3.3124,-3.3124,-3.3124,-3.3124,-3.3124,-3.3124,-3.3124,-3.3124,-3.3124,-3.3124,-3.3124,-3.3124,-3.3124,-3.3124,-3.3124,-3.3124,-3.3124,-3.3124,-3.3124,-3.3081,-3.3038,-3.2853,-3.2636,-3.2388,-3.2169,-3.1937,-3.1793,-3.1705,-3.1705,-3.1705,-3.1705,-3.1705,-3.1705,-3.1617,-3.1339,-3.0722,-2.9704,-2.8773,-2.7757,-2.6829,-2.6235,-2.5684,-2.5684,-2.5684,-2.5684,-2.5684,-2.5684,-2.5684,-2.5684,-2.5684,-2.5684,-2.5684,-2.5684,-2.5684,-2.5684,-2.5684,-2.5684,-2.5684,-2.5684,-2.5684,-2.5684,-2.5684,-2.5625,-2.5577,-2.4766,-2.3135,-2.2366,-2.1643,-1.962,-1.7589,-1.7589,-1.7589,-1.7589,-1.7589,-1.7589,-1.7589,-1.7589,-1.7589,-1.7589,-1.7589,-1.7589,-1.7589,-3.6894,-3.6646,-3.4855,-3.4147,-3.4189,-3.3852,-3.3725,-3.3738,-3.3526,-3.3356,-3.327,-3.3154,-3.3124,-3.3124,-3.3124,-3.3124,-3.3124,-3.3124,-3.3124,-3.3124,-3.3124,-3.3124,-3.3124,-3.3124,-3.3124,-3.3124,-3.3124,-3.3124,-3.3124,-3.3124,-3.3124,-3.3124,-3.3124,-3.3124,-3.3124,-3.3124,-3.3124,-3.3124,-3.3124,-3.3124,-3.3124,-3.3124,-3.3124,-3.3124,-3.3124,-3.3124,-3.3124,-3.3124,-3.3124,-3.3124,-3.3124,-3.3124,-3.3124,-3.3081,-3.2952,-3.2723,-3.2506,-3.23,-3.2025,-3.1849,-3.1717,-3.1705,-3.1705,-3.1705,-3.1705,-3.1705,-3.1705,-3.1383,-3.0022,-2.8958,-2.8355,-2.7474,-2.6562,-2.583,-2.5684,-2.5684,-2.5684,-2.5684,-2.5684,-2.5684,-2.5684,-2.5684,-2.5684,-2.5684,-2.5684,-2.5684,-2.5684,-2.5684,-2.5684,-2.5684,-2.5684,-2.5684,-2.5684,-2.5684,-2.5684,-2.5577,-2.5421,-2.4402,-2.3343,-2.1617,-2.0246,-1.8812,-1.7589,-1.7589,-1.7589,-1.7589,-1.7589,-1.7589,-1.7589,-1.7589,-1.7589,-1.7589,-1.7589,-1.7589,-1.7589,-3.6763,-3.6332,-3.4772,-3.4076,-3.4034,-3.381,-3.3556,-3.3441,-3.3356,-3.327,-3.3111,-3.3124,-3.3124,-3.3124,-3.3124,-3.3124,-3.3124,-3.3124,-3.3124,-3.3124,-3.3124,-3.3124,-3.3124,-3.3124,-3.3124,-3.3124,-3.3124,-3.3124,-3.3124,-3.3124,-3.3124,-3.3124,-3.3124,-3.3124,-3.3124,-3.3124,-3.3124,-3.3124,-3.3124,-3.3124,-3.3124,-3.3124,-3.3124,-3.3124,-3.3124,-3.3124,-3.3124,-3.3124,-3.3124,-3.3124,-3.3124,-3.3124,-3.3124,-3.3124,-3.2982,-3.281,-3.2519,-3.23,-3.2069,-3.1849,-3.1761,-3.1705,-3.1705,-3.1705,-3.1705,-3.1661,-3.1661,-3.0824,-2.9464,-2.8495,-2.7887,-2.7163,-2.6245,-2.5742,-2.5684,-2.5684,-2.5684,-2.5684,-2.5684,-2.5684,-2.5684,-2.5684,-2.5684,-2.5684,-2.5684,-2.5684,-2.5684,-2.5684,-2.5684,-2.5684,-2.5684,-2.5684,-2.5684,-2.5684,-2.5684,-2.5577,-2.543,-2.4618,-2.3393,-2.0963,-1.899,-1.8213,-1.7694,-1.7589,-1.7589,-1.7589,-1.7589,-1.7589,-1.7589,-1.7589,-1.7589,-1.7589,-1.7589,-1.7589,-1.7589,-3.6108,-3.4827,-3.4285,-3.4076,-3.4034,-3.3641,-3.3441,-3.3356,-3.324,-3.3124,-3.3124,-3.3124,-3.3124,-3.3124,-3.3124,-3.3124,-3.3124,-3.3124,-3.3124,-3.3124,-3.3124,-3.3124,-3.3124,-3.3124,-3.3124,-3.3124,-3.3124,-3.3124,-3.3124,-3.3124,-3.3124,-3.3124,-3.3124,-3.3124,-3.3124,-3.3124,-3.3124,-3.3124,-3.3124,-3.3124,-3.3124,-3.3124,-3.3124,-3.3124,-3.3124,-3.3124,-3.3124,-3.3124,-3.3124,-3.3124,-3.3124,-3.3124,-3.3124,-3.3124,-3.3038,-3.2909,-3.2618,-3.24,-3.2169,-3.1893,-3.1749,-3.1705,-3.1705,-3.1705,-3.1661,-3.1572,-3.1193,-3.0351,-2.9143,-2.8215,-2.7521,-2.6562,-2.5742,-2.5732,-2.5684,-2.5684,-2.5684,-2.5684,-2.5684,-2.5684,-2.5684,-2.5684,-2.5684,-2.5684,-2.5684,-2.5684,-2.5684,-2.5684,-2.5684,-2.5684,-2.5684,-2.5684,-2.5684,-2.5684,-2.5684,-2.5684,-2.543,-2.4667,-2.3302,-2.0716,-1.8938,-1.8265,-1.7852,-1.7687,-1.7589,-1.7589,-1.7589,-1.7589,-1.7589,-1.7589,-1.7589,-1.7589,-1.7589,-1.7589,-1.7589]},{"header":{"parameterUnit":"m.s-1","parameterCategory":1,"la1":31.0,"la2":29.5877,"lo1":-88.7671,"lo2":-86.6584,"dy":0.0162,"dx":0.0185,"nx":115,"ny":88,"refTime":"2023-03-18T06:00:00:Z","depth":0,"parameterNumber":3,"parameterNumberName":"V-component_of_WINDS"},"data":[0.0,0.0,0.0,0.0,0.0,0.0,0.0,0.0,0.0,0.0,0.0,0.0,0.0,0.0,0.0,0.0,0.0,0.0,0.0,0.0,0.0,0.0,0.0,0.0,0.0,0.0,0.0,0.0,0.0,0.0,0.0,0.0,0.0,0.0,0.0,0.0,0.0,0.0,0.0,0.0,0.0,0.0,0.0,0.0,0.0,0.0,0.0,0.0,0.0,0.0,0.0,0.0,0.0,0.0,0.0,0.0,0.0,0.0,0.0,0.0,0.0,0.0,0.0,0.0,0.0,0.0,0.0,0.0,0.0,0.0,0.0,0.0,0.0,0.0,0.0,0.0,0.0,0.0,0.0,0.0,0.0,0.0,0.0,0.0,0.0,0.0,0.0,0.0,0.0,0.0,0.0,0.0,0.0,0.0,0.0,0.0,0.0,0.0,0.0,0.0,0.0,0.0,0.0,0.0,0.0,0.0,0.0,0.0,0.0,0.0,0.0,0.0,0.0,0.0,0.0,0.0,0.0,0.0,0.0,0.0,0.0,0.0,0.0,0.0,0.0,0.0,0.0,0.0,0.0,0.0,0.0,0.0,0.0,0.0,0.0,0.0,0.0,0.0,0.0,0.0,0.0,0.0,0.0,0.0,0.0,0.0,0.0,0.0,0.0,0.0,0.0,0.0,0.0,0.0,0.0,0.0,0.0,0.0,0.0,0.0,0.0,0.0,0.0,0.0,0.0,0.0,0.0,0.0,0.0,0.0,0.0,0.0,0.0,0.0,0.0,0.0,0.0,0.0,0.0,0.0,0.0,0.0,0.0,0.0,0.0,0.0,0.0,0.0,0.0,0.0,0.0,0.0,0.0,0.0,0.0,0.0,0.0,0.0,0.0,0.0,0.0,0.0,0.0,0.0,0.0,0.0,0.0,0.0,0.0,0.0,0.0,0.0,0.0,0.0,0.0,0.0,0.0,0.0,0.0,0.0,0.0,0.0,0.0,0.0,0.0,0.0,0.0,0.0,0.0,0.0,0.0,0.0,0.0,0.0,0.0,0.0,0.0,0.0,0.0,0.0,0.0,0.0,0.0,0.0,0.0,0.0,0.0,0.0,0.0,0.0,0.0,0.0,0.0,0.0,0.0,0.0,0.0,0.0,0.0,0.0,0.0,0.0,0.0,0.0,0.0,0.0,0.0,0.0,0.0,0.0,0.0,0.0,0.0,0.0,0.0,0.0,0.0,0.0,0.0,0.0,0.0,0.0,0.0,0.0,0.0,0.0,0.0,0.0,0.0,0.0,0.0,0.0,0.0,0.0,0.0,0.0,0.0,0.0,0.0,0.0,0.0,0.0,0.0,0.0,0.0,0.0,0.0,0.0,0.0,0.0,0.0,0.0,0.0,0.0,0.0,0.0,0.0,0.0,0.0,0.0,0.0,0.0,0.0,0.0,0.0,0.0,0.0,0.0,0.0,0.0,0.0,0.0,0.0,0.0,0.0,0.0,0.0,0.0,0.0,0.0,0.0,0.0,0.0,0.0,0.0,0.0,0.0,0.0,0.0,0.0,0.0,0.0,0.0,0.0,0.0,0.0,0.0,0.0,0.0,0.0,0.0,0.0,0.0,0.0,0.0,0.0,0.0,0.0,0.0,0.0,0.0,0.0,0.0,0.0,0.0,0.0,0.0,0.0,0.0,0.0,0.0,0.0,0.0,0.0,0.0,0.0,0.0,0.0,0.0,0.0,0.0,0.0,0.0,0.0,0.0,0.0,0.0,0.0,0.0,0.0,0.0,0.0,0.0,0.0,0.0,0.0,0.0,0.0,0.0,0.0,0.0,0.0,0.0,0.0,0.0,0.0,0.0,0.0,0.0,0.0,0.0,0.0,0.0,0.0,0.0,0.0,0.0,0.0,0.0,0.0,0.0,0.0,0.0,0.0,0.0,0.0,0.0,0.0,0.0,0.0,0.0,0.0,0.0,0.0,0.0,0.0,0.0,0.0,0.0,0.0,0.0,0.0,0.0,0.0,0.0,0.0,0.0,0.0,0.0,0.0,0.0,0.0,0.0,0.0,0.0,0.0,0.0,0.0,0.0,0.0,0.0,0.0,0.0,0.0,0.0,0.0,0.0,0.0,0.0,0.0,0.0,0.0,0.0,0.0,0.0,0.0,0.0,0.0,0.0,0.0,0.0,0.0,0.0,0.0,0.0,0.0,0.0,0.0,0.0,0.0,0.0,0.0,0.0,0.0,0.0,0.0,0.0,0.0,0.0,0.0,0.0,0.0,0.0,0.0,0.0,0.0,0.0,0.0,0.0,0.0,0.0,0.0,0.0,0.0,0.0,0.0,0.0,0.0,0.0,0.0,0.0,0.0,0.0,0.0,0.0,0.0,0.0,0.0,0.0,0.0,0.0,0.0,0.0,0.0,0.0,0.0,0.0,0.0,0.0,0.0,0.0,0.0,0.0,0.0,0.0,0.0,0.0,0.0,0.0,0.0,0.0,0.0,0.0,0.0,0.0,0.0,0.0,0.0,0.0,0.0,0.0,0.0,0.0,0.0,0.0,0.0,0.0,0.0,0.0,0.0,0.0,0.0,0.0,0.0,0.0,0.0,0.0,0.0,0.0,0.0,0.0,0.0,0.0,0.0,0.0,0.0,0.0,0.0,0.0,0.0,0.0,0.0,0.0,0.0,0.0,0.0,0.0,0.0,0.0,0.0,0.0,0.0,0.0,0.0,0.0,0.0,0.0,0.0,0.0,0.0,0.0,0.0,0.0,0.0,0.0,0.0,0.0,0.0,0.0,0.0,0.0,0.0,0.0,0.0,0.0,0.0,0.0,0.0,0.0,0.0,0.0,0.0,0.0,0.0,0.0,0.0,0.0,0.0,0.0,0.0,0.0,0.0,0.0,0.0,0.0,0.0,0.0,0.0,0.0,0.0,0.0,0.0,0.0,0.0,0.0,0.0,0.0,0.0,0.0,0.0,0.0,0.0,0.0,0.0,0.0,0.0,0.0,0.0,0.0,0.0,0.0,0.0,0.0,0.0,0.0,0.0,0.0,0.0,0.0,0.0,0.0,0.0,0.0,0.0,0.0,0.0,0.0,0.0,0.0,0.0,0.0,0.0,0.0,0.0,0.0,0.0,0.0,0.0,0.0,0.0,0.0,0.0,0.0,0.0,0.0,0.0,0.0,0.0,0.0,0.0,0.0,0.0,0.0,0.0,0.0,0.0,0.0,0.0,0.0,0.0,0.0,0.0,0.0,0.0,0.0,0.0,0.0,0.0,0.0,0.0,0.0,0.0,0.0,0.0,0.0,0.0,0.0,0.0,0.0,0.0,0.0,0.0,0.0,0.0,0.0,0.0,0.0,0.0,0.0,0.0,0.0,0.0,0.0,0.0,0.0,0.0,0.0,0.0,0.0,0.0,0.0,0.0,0.0,0.0,0.0,0.0,0.0,0.0,0.0,0.0,0.0,0.0,0.0,0.0,0.0,0.0,0.0,0.0,0.0,0.0,0.0,0.0,0.0,0.0,0.0,0.0,0.0,0.0,0.0,0.0,0.0,0.0,0.0,0.0,0.0,0.0,0.0,0.0,0.0,0.0,0.0,0.0,0.0,0.0,0.0,0.0,0.0,0.0,0.0,0.0,0.0,0.0,0.0,0.0,0.0,0.0,0.0,0.0,0.0,0.0,0.0,0.0,0.0,0.0,0.0,0.0,0.0,0.0,0.0,0.0,0.0,0.0,0.0,0.0,0.0,0.0,0.0,0.0,0.0,0.0,0.0,0.0,0.0,0.0,0.0,0.0,0.0,0.0,0.0,0.0,0.0,0.0,0.0,0.0,0.0,0.0,0.0,0.0,0.0,0.0,0.0,0.0,0.0,0.0,0.0,0.0,0.0,0.0,0.0,0.0,0.0,0.0,0.0,0.0,0.0,0.0,0.0,0.0,0.0,0.0,0.0,0.0,0.0,0.0,0.0,0.0,0.0,0.0,0.0,0.0,0.0,0.0,0.0,0.0,0.0,0.0,0.0,0.0,0.0,0.0,0.0,0.0,0.0,0.0,0.0,0.0,0.0,0.0,0.0,0.0,0.0,0.0,0.0,0.0,0.0,0.0,0.0,0.0,0.0,0.0,0.0,0.0,0.0,0.0,0.0,0.0,0.0,0.0,0.0,0.0,0.0,0.0,0.0,0.0,0.0,0.0,0.0,0.0,0.0,0.0,0.0,0.0,0.0,0.0,0.0,0.0,0.0,0.0,0.0,0.0,0.0,0.0,0.0,0.0,0.0,0.0,2.4067,0.0,0.0,0.0,0.0,0.0,0.0,0.0,0.0,0.0,0.0,0.0,0.0,0.0,0.0,0.0,0.0,0.0,0.0,0.0,0.0,0.0,0.0,0.0,0.0,0.0,0.0,0.0,0.0,0.0,0.0,0.0,0.0,0.0,0.0,0.0,0.0,0.0,0.0,0.0,0.0,0.0,0.0,0.0,0.0,0.0,0.0,0.0,0.0,0.0,0.0,0.0,0.0,0.0,0.0,0.0,0.0,0.0,0.0,0.0,0.0,0.0,0.0,0.0,0.0,0.0,0.0,0.0,0.0,0.0,0.0,0.0,0.0,0.0,0.0,0.0,0.0,0.0,0.0,0.0,0.0,0.0,0.0,0.0,0.0,0.0,0.0,0.0,0.0,0.0,0.0,0.0,0.0,0.0,0.0,0.0,0.0,0.0,0.0,0.0,0.0,0.0,0.0,0.0,0.0,0.0,0.0,0.0,0.0,0.0,0.0,2.3946,2.3717,2.4183,2.4405,2.4343,0.0,0.0,0.0,0.0,0.0,0.0,0.0,0.0,0.0,0.0,0.0,0.0,0.0,0.0,0.0,0.0,0.0,0.0,0.0,0.0,0.0,0.0,0.0,0.0,0.0,0.0,0.0,0.0,0.0,0.0,0.0,0.0,0.0,0.0,0.0,0.0,0.0,0.0,0.0,0.0,0.0,0.0,0.0,0.0,0.0,0.0,0.0,0.0,0.0,0.0,0.0,0.0,0.0,0.0,0.0,0.0,0.0,0.0,0.0,0.0,0.0,0.0,0.0,0.0,0.0,0.0,0.0,0.0,0.0,0.0,0.0,0.0,0.0,0.0,0.0,0.0,0.0,0.0,0.0,0.0,0.0,0.0,0.0,0.0,0.0,0.0,0.0,0.0,0.0,0.0,0.0,0.0,0.0,0.0,0.0,0.0,0.0,0.0,0.0,0.0,0.0,0.0,0.0,0.0,0.0,0.0,0.0,0.0,0.0,0.0,0.0,0.0,2.4426,2.469,2.469,0.0,0.0,0.0,0.0,0.0,0.0,0.0,0.0,0.0,0.0,0.0,0.0,0.0,0.0,0.0,0.0,0.0,0.0,0.0,0.0,0.0,0.0,0.0,0.0,0.0,0.0,0.0,0.0,0.0,0.0,0.0,0.0,0.0,0.0,0.0,0.0,0.0,0.0,0.0,0.0,0.0,0.0,0.0,0.0,0.0,0.0,0.0,0.0,0.0,0.0,0.0,0.0,0.0,0.0,0.0,0.0,0.0,0.0,0.0,0.0,0.0,0.0,0.0,0.0,0.0,0.0,0.0,0.0,0.0,0.0,0.0,0.0,0.0,0.0,0.0,0.0,0.0,0.0,0.0,0.0,0.0,0.0,0.0,0.0,0.0,0.0,0.0,0.0,0.0,0.0,0.0,0.0,0.0,0.0,0.0,0.0,0.0,0.0,0.0,0.0,0.0,0.0,0.0,0.0,0.0,0.0,0.0,0.0,0.0,0.0,2.4446,2.4276,2.4726,0.0,2.4966,0.0,0.0,0.0,0.0,0.0,0.0,0.0,0.0,0.0,0.0,0.0,0.0,0.0,0.0,0.0,0.0,0.0,0.0,0.0,0.0,0.0,0.0,0.0,0.0,0.0,0.0,0.0,0.0,0.0,0.0,0.0,0.0,0.0,0.0,0.0,0.0,0.0,0.0,0.0,0.0,0.0,0.0,0.0,0.0,0.0,0.0,0.0,0.0,0.0,0.0,0.0,0.0,0.0,0.0,0.0,0.0,0.0,0.0,0.0,0.0,0.0,0.0,0.0,0.0,0.0,0.0,0.0,0.0,0.0,0.0,0.0,0.0,0.0,0.0,0.0,0.0,0.0,0.0,0.0,0.0,0.0,0.0,0.0,0.0,0.0,0.0,0.0,0.0,0.0,0.0,0.0,0.0,0.0,0.0,0.0,0.0,0.0,0.0,0.0,0.0,0.0,0.0,0.0,0.0,0.0,0.0,0.0,0.0,0.0,0.0,2.4219,2.4198,2.4569,2.4846,0.0,0.0,0.0,0.0,0.0,0.0,0.0,0.0,0.0,0.0,0.0,0.0,0.0,0.0,0.0,0.0,0.0,0.0,0.0,0.0,0.0,0.0,0.0,0.0,0.0,0.0,0.0,0.0,0.0,0.0,0.0,0.0,0.0,0.0,0.0,0.0,0.0,0.0,0.0,0.0,0.0,0.0,0.0,0.0,0.0,0.0,0.0,0.0,0.0,0.0,0.0,0.0,0.0,0.0,0.0,0.0,0.0,0.0,0.0,0.0,0.0,0.0,0.0,0.0,0.0,0.0,0.0,0.0,0.0,0.0,0.0,0.0,0.0,0.0,0.0,0.0,0.0,0.0,0.0,0.0,0.0,0.0,0.0,0.0,0.0,0.0,0.0,0.0,0.0,0.0,0.0,0.0,0.0,0.0,0.0,0.0,0.0,0.0,0.0,0.0,0.0,0.0,0.0,0.0,0.0,0.0,0.0,0.0,0.0,0.0,2.4073,2.4302,2.4364,2.4589,2.4806,2.4985,0.0,0.0,0.0,0.0,0.0,0.0,0.0,0.0,0.0,0.0,0.0,0.0,0.0,0.0,0.0,0.0,0.0,0.0,0.0,0.0,0.0,0.0,0.0,0.0,0.0,0.0,0.0,0.0,0.0,0.0,0.0,0.0,0.0,0.0,0.0,0.0,0.0,0.0,0.0,0.0,0.0,0.0,0.0,0.0,0.0,0.0,0.0,0.0,0.0,0.0,0.0,0.0,0.0,0.0,0.0,0.0,0.0,0.0,0.0,0.0,0.0,0.0,0.0,0.0,0.0,0.0,0.0,0.0,0.0,0.0,0.0,0.0,0.0,0.0,0.0,0.0,0.0,0.0,0.0,0.0,0.0,0.0,0.0,0.0,0.0,0.0,0.0,0.0,0.0,0.0,0.0,0.0,0.0,0.0,0.0,0.0,0.0,0.0,0.0,0.0,0.0,0.0,0.0,0.0,0.0,0.0,0.0,0.0,2.4024,2.4625,2.4946,2.4946,2.4966,2.4985,0.0,0.0,0.0,0.0,0.0,0.0,0.0,0.0,0.0,0.0,0.0,0.0,0.0,0.0,0.0,0.0,0.0,0.0,0.0,0.0,0.0,0.0,0.0,0.0,0.0,0.0,0.0,0.0,0.0,0.0,0.0,0.0,0.0,0.0,0.0,0.0,0.0,0.0,0.0,0.0,0.0,0.0,0.0,0.0,0.0,0.0,0.0,0.0,0.0,0.0,0.0,0.0,0.0,0.0,0.0,0.0,0.0,0.0,0.0,0.0,0.0,0.0,0.0,0.0,0.0,0.0,0.0,0.0,0.0,0.0,0.0,0.0,0.0,0.0,0.0,0.0,0.0,0.0,0.0,0.0,0.0,0.0,0.0,0.0,0.0,0.0,0.0,0.0,0.0,0.0,0.0,0.0,0.0,0.0,0.0,0.0,0.0,0.0,0.0,0.0,0.0,0.0,0.0,0.0,0.0,0.0,0.0,0.0,0.0,2.4405,2.4786,2.5005,2.5005,2.5005,2.5005,0.0,0.0,0.0,0.0,0.0,0.0,0.0,0.0,0.0,0.0,0.0,0.0,0.0,0.0,0.0,0.0,0.0,0.0,0.0,0.0,0.0,0.0,0.0,0.0,0.0,0.0,0.0,0.0,0.0,0.0,0.0,0.0,0.0,0.0,0.0,0.0,0.0,0.0,0.0,0.0,0.0,0.0,0.0,0.0,0.0,0.0,0.0,0.0,0.0,0.0,0.0,0.0,0.0,0.0,0.0,0.0,0.0,0.0,0.0,0.0,0.0,0.0,0.0,0.0,0.0,0.0,0.0,0.0,0.0,0.0,0.0,0.0,0.0,0.0,0.0,0.0,0.0,0.0,0.0,0.0,0.0,0.0,0.0,0.0,0.0,0.0,0.0,0.0,0.0,0.0,0.0,0.0,0.0,0.0,0.0,0.0,0.0,0.0,0.0,0.0,0.0,0.0,0.0,0.0,0.0,0.0,0.0,0.0,0.0,2.4731,0.0,2.5005,2.5005,2.5005,2.5005,0.0,0.0,0.0,0.0,0.0,0.0,0.0,0.0,0.0,0.0,0.0,0.0,0.0,0.0,0.0,0.0,0.0,0.0,0.0,0.0,0.0,0.0,0.0,0.0,0.0,0.0,0.0,0.0,0.0,0.0,0.0,0.0,0.0,0.0,0.0,0.0,0.0,0.0,0.0,0.0,0.0,0.0,0.0,0.0,0.0,0.0,0.0,0.0,0.0,0.0,0.0,0.0,0.0,0.0,0.0,0.0,0.0,0.0,0.0,0.0,0.0,0.0,0.0,0.0,0.0,0.0,0.0,0.0,0.0,0.0,0.0,0.0,0.0,0.0,0.0,0.0,0.0,0.0,0.0,0.0,0.0,0.0,0.0,0.0,0.0,0.0,0.0,0.0,0.0,0.0,0.0,0.0,0.0,0.0,0.0,0.0,0.0,0.0,0.0,0.0,0.0,0.0,0.0,0.0,0.0,0.0,0.0,0.0,2.4894,2.4985,2.4985,2.5005,2.5005,2.4985,2.4985,0.0,0.0,0.0,0.0,0.0,0.0,0.0,0.0,0.0,0.0,0.0,0.0,0.0,0.0,0.0,0.0,0.0,0.0,0.0,0.0,0.0,0.0,0.0,0.0,0.0,0.0,0.0,0.0,0.0,0.0,0.0,0.0,0.0,0.0,0.0,0.0,0.0,0.0,0.0,0.0,0.0,0.0,0.0,0.0,0.0,0.0,0.0,0.0,0.0,0.0,0.0,0.0,0.0,0.0,0.0,0.0,0.0,0.0,0.0,0.0,0.0,0.0,0.0,0.0,0.0,0.0,0.0,0.0,0.0,0.0,0.0,0.0,0.0,0.0,0.0,0.0,0.0,0.0,0.0,0.0,0.0,0.0,0.0,0.0,0.0,0.0,0.0,0.0,0.0,0.0,0.0,0.0,0.0,0.0,0.0,0.0,0.0,0.0,0.0,0.0,0.0,0.0,0.0,0.0,0.0,0.0,0.0,0.0,0.0,2.5017,2.5005,2.5005,2.5005,2.4922,2.4862,0.0,0.0,0.0,0.0,0.0,0.0,0.0,0.0,0.0,0.0,0.0,0.0,0.0,0.0,0.0,0.0,0.0,0.0,0.0,0.0,0.0,0.0,0.0,0.0,0.0,0.0,0.0,0.0,0.0,0.0,0.0,0.0,0.0,0.0,0.0,0.0,0.0,0.0,0.0,0.0,0.0,0.0,0.0,0.0,0.0,0.0,0.0,0.0,0.0,0.0,0.0,0.0,0.0,0.0,0.0,0.0,0.0,0.0,0.0,0.0,0.0,0.0,0.0,0.0,0.0,0.0,0.0,0.0,0.0,0.0,0.0,0.0,0.0,0.0,0.0,0.0,0.0,0.0,0.0,0.0,0.0,0.0,0.0,0.0,0.0,0.0,0.0,0.0,0.0,0.0,0.0,0.0,0.0,0.0,0.0,0.0,0.0,0.0,0.0,0.0,0.0,0.0,0.0,0.0,0.0,0.0,0.0,0.0,0.0,2.6368,2.6304,2.6193,2.5938,2.5837,2.5483,2.4833,0.0,0.0,0.0,0.0,0.0,0.0,0.0,0.0,0.0,0.0,0.0,0.0,0.0,0.0,0.0,0.0,0.0,0.0,0.0,0.0,0.0,0.0,0.0,0.0,0.0,0.0,0.0,0.0,0.0,0.0,0.0,0.0,0.0,0.0,0.0,0.0,0.0,0.0,0.0,0.0,0.0,0.0,0.0,0.0,0.0,0.0,0.0,0.0,0.0,0.0,0.0,0.0,0.0,0.0,0.0,0.0,0.0,0.0,0.0,0.0,0.0,0.0,0.0,0.0,0.0,0.0,0.0,0.0,0.0,0.0,0.0,0.0,0.0,0.0,0.0,0.0,0.0,0.0,0.0,0.0,0.0,0.0,0.0,0.0,0.0,0.0,0.0,0.0,0.0,0.0,0.0,0.0,0.0,0.0,0.0,0.0,0.0,0.0,0.0,0.0,0.0,0.0,0.0,0.0,0.0,0.0,0.0,0.0,2.8693,2.8747,2.841,2.7634,2.7517,2.668,0.0,0.0,0.0,0.0,0.0,0.0,0.0,0.0,0.0,0.0,0.0,0.0,0.0,0.0,0.0,0.0,0.0,0.0,0.0,0.0,0.0,0.0,0.0,0.0,0.0,0.0,0.0,0.0,0.0,0.0,0.0,0.0,0.0,0.0,0.0,0.0,0.0,0.0,0.0,0.0,0.0,0.0,0.0,0.0,0.0,0.0,0.0,0.0,0.0,0.0,0.0,0.0,0.0,0.0,0.0,0.0,0.0,0.0,0.0,0.0,0.0,0.0,0.0,0.0,0.0,0.0,0.0,0.0,0.0,0.0,0.0,0.0,0.0,0.0,0.0,0.0,0.0,0.0,0.0,0.0,0.0,0.0,0.0,0.0,0.0,0.0,0.0,0.0,0.0,0.0,0.0,0.0,0.0,0.0,0.0,0.0,0.0,0.0,0.0,0.0,0.0,0.0,0.0,0.0,0.0,0.0,0.0,0.0,0.0,3.1075,3.1801,3.1271,2.934,2.8019,2.7089,0.0,0.0,0.0,0.0,0.0,0.0,0.0,0.0,0.0,0.0,0.0,0.0,0.0,0.0,0.0,0.0,0.0,0.0,0.0,0.0,0.0,0.0,0.0,0.0,0.0,0.0,0.0,0.0,0.0,0.0,0.0,0.0,0.0,0.0,0.0,0.0,0.0,0.0,0.0,0.0,0.0,0.0,0.0,0.0,0.0,0.0,0.0,0.0,0.0,0.0,0.0,0.0,0.0,0.0,0.0,0.0,0.0,0.0,0.0,0.0,0.0,0.0,0.0,0.0,0.0,0.0,0.0,0.0,0.0,0.0,0.0,0.0,0.0,0.0,0.0,0.0,0.0,0.0,0.0,0.0,0.0,0.0,0.0,0.0,0.0,0.0,0.0,0.0,0.0,0.0,0.0,0.0,0.0,0.0,0.0,0.0,0.0,0.0,0.0,0.0,0.0,0.0,0.0,0.0,0.0,0.0,0.0,0.0,3.1449,3.201,3.3374,3.3409,3.2046,2.9658,2.7945,0.0,0.0,0.0,0.0,0.0,0.0,0.0,0.0,0.0,0.0,0.0,0.0,0.0,0.0,0.0,0.0,0.0,0.0,0.0,0.0,0.0,0.0,0.0,0.0,0.0,0.0,0.0,0.0,0.0,0.0,0.0,0.0,0.0,0.0,0.0,0.0,0.0,0.0,0.0,0.0,0.0,0.0,0.0,0.0,0.0,0.0,0.0,0.0,0.0,0.0,0.0,0.0,0.0,0.0,0.0,0.0,0.0,0.0,0.0,0.0,0.0,0.0,0.0,0.0,0.0,0.0,0.0,0.0,0.0,0.0,0.0,0.0,0.0,0.0,0.0,0.0,0.0,0.0,0.0,0.0,0.0,0.0,0.0,0.0,0.0,0.0,0.0,0.0,0.0,0.0,0.0,0.0,0.0,0.0,0.0,0.0,0.0,0.0,0.0,0.0,0.0,0.0,0.0,0.0,0.0,0.0,0.0,0.0,3.1985,3.2187,3.3975,3.4899,3.4816,3.1599,2.907,0.0,0.0,0.0,0.0,0.0,0.0,0.0,0.0,0.0,0.0,0.0,0.0,0.0,0.0,0.0,0.0,0.0,0.0,0.0,0.0,0.0,0.0,0.0,0.0,0.0,0.0,0.0,0.0,0.0,0.0,0.0,0.0,0.0,0.0,0.0,0.0,0.0,0.0,0.0,0.0,0.0,0.0,0.0,0.0,0.0,0.0,0.0,0.0,0.0,0.0,0.0,0.0,0.0,0.0,0.0,0.0,0.0,0.0,0.0,0.0,0.0,0.0,0.0,0.0,0.0,0.0,0.0,0.0,0.0,0.0,0.0,0.0,0.0,0.0,0.0,0.0,0.0,0.0,0.0,0.0,0.0,0.0,0.0,0.0,0.0,0.0,0.0,0.0,0.0,0.0,0.0,0.0,0.0,0.0,0.0,0.0,0.0,0.0,0.0,0.0,0.0,0.0,0.0,0.0,0.0,0.0,0.0,0.0,3.1909,3.317,3.4317,3.4899,3.4883,3.1651,2.9674,0.0,0.0,0.0,0.0,0.0,0.0,0.0,0.0,0.0,0.0,0.0,0.0,0.0,0.0,0.0,0.0,0.0,0.0,0.0,0.0,0.0,0.0,0.0,0.0,0.0,0.0,0.0,0.0,0.0,0.0,0.0,0.0,0.0,0.0,0.0,0.0,0.0,0.0,0.0,0.0,0.0,0.0,0.0,0.0,0.0,0.0,0.0,0.0,3.0022,0.0,0.0,0.0,0.0,0.0,0.0,0.0,0.0,0.0,0.0,0.0,0.0,0.0,0.0,0.0,0.0,0.0,0.0,0.0,0.0,0.0,0.0,0.0,0.0,0.0,0.0,0.0,0.0,0.0,0.0,0.0,0.0,0.0,0.0,0.0,0.0,0.0,0.0,0.0,0.0,0.0,0.0,0.0,0.0,0.0,0.0,0.0,0.0,0.0,0.0,0.0,0.0,0.0,0.0,0.0,0.0,0.0,0.0,0.0,3.1844,3.3454,3.4424,3.4899,3.4816,3.242,3.064,0.0,0.0,0.0,0.0,0.0,0.0,0.0,0.0,0.0,0.0,0.0,0.0,0.0,0.0,0.0,0.0,0.0,0.0,0.0,0.0,0.0,0.0,0.0,0.0,0.0,0.0,0.0,0.0,0.0,0.0,0.0,0.0,0.0,0.0,0.0,0.0,0.0,0.0,0.0,0.0,0.0,0.0,0.0,0.0,0.0,0.0,0.0,0.0,0.0,0.0,0.0,0.0,0.0,0.0,0.0,0.0,0.0,0.0,0.0,0.0,0.0,0.0,0.0,0.0,0.0,0.0,0.0,0.0,0.0,0.0,0.0,0.0,0.0,0.0,0.0,0.0,0.0,0.0,0.0,0.0,0.0,0.0,0.0,0.0,0.0,0.0,0.0,0.0,0.0,0.0,0.0,0.0,0.0,0.0,0.0,0.0,0.0,0.0,0.0,0.0,0.0,0.0,0.0,0.0,0.0,0.0,0.0,3.0451,3.1772,3.3649,3.449,3.4899,3.4883,3.3366,3.1668,2.9804,0.0,0.0,0.0,0.0,0.0,0.0,0.0,0.0,0.0,0.0,0.0,0.0,0.0,0.0,0.0,0.0,0.0,0.0,0.0,0.0,0.0,0.0,0.0,0.0,0.0,0.0,0.0,0.0,0.0,0.0,0.0,0.0,0.0,0.0,0.0,0.0,0.0,0.0,3.149,3.2088,0.0,0.0,0.0,0.0,0.0,0.0,0.0,0.0,3.1556,0.0,0.0,0.0,0.0,0.0,0.0,0.0,0.0,0.0,0.0,0.0,0.0,0.0,0.0,0.0,0.0,0.0,0.0,0.0,0.0,0.0,0.0,0.0,0.0,0.0,0.0,0.0,0.0,0.0,0.0,0.0,0.0,0.0,0.0,0.0,0.0,0.0,0.0,0.0,0.0,0.0,0.0,0.0,0.0,0.0,0.0,0.0,0.0,0.0,0.0,0.0,0.0,0.0,0.0,0.0,0.0,3.0723,3.0313,3.1563,3.4563,3.4809,3.4899,3.4866,3.3749,3.2292,3.0489,0.0,0.0,0.0,0.0,0.0,0.0,0.0,0.0,0.0,0.0,0.0,0.0,0.0,0.0,0.0,0.0,0.0,0.0,0.0,0.0,0.0,0.0,0.0,0.0,0.0,0.0,0.0,0.0,0.0,0.0,0.0,0.0,0.0,0.0,0.0,0.0,0.0,0.0,0.0,3.2908,3.2621,0.0,0.0,0.0,0.0,0.0,0.0,0.0,0.0,3.4618,0.0,0.0,0.0,0.0,0.0,0.0,0.0,0.0,0.0,0.0,0.0,0.0,0.0,0.0,0.0,0.0,0.0,0.0,0.0,0.0,0.0,0.0,0.0,0.0,0.0,0.0,0.0,0.0,0.0,0.0,0.0,0.0,0.0,0.0,0.0,0.0,0.0,0.0,0.0,0.0,0.0,0.0,0.0,0.0,0.0,0.0,0.0,0.0,0.0,0.0,0.0,0.0,0.0,0.0,0.0,3.0061,3.0573,3.1987,3.439,3.4618,3.4691,3.465,3.3785,3.2268,0.0,0.0,0.0,0.0,0.0,0.0,0.0,0.0,0.0,0.0,0.0,0.0,0.0,0.0,0.0,0.0,0.0,0.0,0.0,0.0,0.0,0.0,0.0,0.0,0.0,0.0,0.0,0.0,0.0,0.0,0.0,0.0,0.0,0.0,0.0,0.0,0.0,0.0,0.0,0.0,3.3736,3.3643,3.3996,0.0,0.0,0.0,0.0,0.0,0.0,3.5068,3.539,0.0,0.0,0.0,0.0,0.0,0.0,0.0,0.0,0.0,0.0,0.0,0.0,0.0,0.0,0.0,0.0,0.0,0.0,0.0,0.0,0.0,0.0,0.0,0.0,0.0,0.0,0.0,0.0,0.0,0.0,0.0,0.0,0.0,0.0,0.0,0.0,0.0,0.0,0.0,0.0,0.0,0.0,0.0,0.0,0.0,0.0,0.0,0.0,0.0,0.0,0.0,0.0,0.0,0.0,0.0,2.9535,3.0911,3.2393,3.4036,3.43,3.4423,3.4423,3.3364,3.1797,0.0,0.0,0.0,0.0,0.0,0.0,0.0,0.0,0.0,0.0,0.0,0.0,0.0,0.0,0.0,0.0,0.0,0.0,0.0,0.0,0.0,0.0,0.0,0.0,0.0,0.0,0.0,0.0,0.0,0.0,0.0,0.0,0.0,0.0,0.0,0.0,0.0,0.0,0.0,0.0,0.0,3.4654,3.523,3.4523,0.0,0.0,0.0,0.0,3.4705,3.5416,0.0,0.0,0.0,0.0,0.0,0.0,0.0,0.0,0.0,0.0,0.0,0.0,0.0,0.0,0.0,0.0,0.0,0.0,0.0,0.0,0.0,0.0,0.0,0.0,0.0,0.0,0.0,0.0,0.0,0.0,0.0,0.0,0.0,0.0,0.0,0.0,0.0,0.0,0.0,0.0,0.0,0.0,0.0,0.0,0.0,0.0,0.0,0.0,0.0,0.0,0.0,0.0,0.0,0.0,0.0,0.0,3.0093,3.103,3.236,3.3978,3.4142,3.4151,3.4134,3.2292,3.0875,0.0,0.0,0.0,0.0,0.0,0.0,0.0,0.0,0.0,0.0,0.0,0.0,0.0,0.0,0.0,0.0,0.0,0.0,0.0,0.0,0.0,0.0,0.0,0.0,0.0,0.0,0.0,0.0,0.0,0.0,0.0,0.0,0.0,0.0,0.0,0.0,0.0,0.0,0.0,0.0,0.0,3.4998,3.5849,3.5278,3.4775,0.0,0.0,3.6253,3.6402,3.7174,0.0,0.0,0.0,0.0,0.0,0.0,0.0,0.0,0.0,0.0,0.0,0.0,0.0,0.0,0.0,0.0,0.0,0.0,0.0,0.0,0.0,0.0,0.0,0.0,0.0,0.0,0.0,0.0,0.0,0.0,0.0,0.0,0.0,0.0,0.0,0.0,0.0,0.0,0.0,0.0,0.0,0.0,0.0,0.0,0.0,0.0,0.0,0.0,0.0,0.0,0.0,0.0,0.0,0.0,0.0,2.8964,2.9899,3.1634,3.2883,3.3626,3.3813,3.3873,3.3873,3.1997,3.0492,0.0,0.0,0.0,0.0,0.0,0.0,0.0,0.0,0.0,0.0,0.0,0.0,0.0,0.0,0.0,0.0,0.0,0.0,0.0,0.0,0.0,0.0,0.0,0.0,0.0,0.0,0.0,0.0,0.0,0.0,0.0,0.0,0.0,0.0,0.0,0.0,0.0,0.0,0.0,0.0,0.0,0.0,3.6255,3.6113,0.0,0.0,0.0,3.648,3.6035,0.0,0.0,0.0,0.0,0.0,0.0,0.0,0.0,0.0,0.0,0.0,0.0,0.0,0.0,0.0,0.0,0.0,0.0,0.0,0.0,0.0,0.0,0.0,0.0,0.0,0.0,0.0,0.0,0.0,0.0,0.0,0.0,0.0,0.0,0.0,0.0,0.0,0.0,0.0,0.0,0.0,0.0,0.0,0.0,0.0,0.0,0.0,0.0,0.0,0.0,0.0,0.0,0.0,0.0,0.0,0.0,0.0,2.9828,3.2107,3.3293,3.3293,3.3503,3.3607,3.3575,3.206,0.0,0.0,0.0,0.0,0.0,0.0,0.0,0.0,0.0,0.0,0.0,0.0,0.0,0.0,0.0,0.0,0.0,0.0,0.0,0.0,0.0,0.0,0.0,0.0,0.0,0.0,0.0,2.9228,0.0,0.0,0.0,0.0,0.0,0.0,0.0,0.0,0.0,0.0,0.0,0.0,0.0,0.0,3.6468,3.6505,3.6594,3.6716,0.0,0.0,3.6512,3.6083,3.7436,3.7929,0.0,0.0,0.0,0.0,0.0,0.0,0.0,0.0,0.0,0.0,0.0,0.0,0.0,0.0,0.0,0.0,0.0,0.0,0.0,0.0,0.0,0.0,0.0,0.0,0.0,0.0,0.0,0.0,0.0,0.0,0.0,0.0,0.0,0.0,0.0,0.0,0.0,0.0,0.0,0.0,0.0,0.0,0.0,0.0,0.0,0.0,0.0,0.0,0.0,0.0,0.0,0.0,0.0,0.0,0.0,3.0402,3.229,3.3324,3.3309,3.3319,3.3335,3.3319,3.2343,3.0797,0.0,0.0,0.0,0.0,0.0,0.0,0.0,0.0,0.0,0.0,0.0,0.0,0.0,0.0,0.0,0.0,0.0,0.0,0.0,0.0,0.0,0.0,0.0,0.0,0.0,0.0,0.0,0.0,0.0,0.0,0.0,0.0,0.0,0.0,0.0,0.0,0.0,0.0,0.0,0.0,0.0,3.645,3.6505,3.65,3.6832,0.0,0.0,3.6795,3.7588,3.8656,3.8776,3.6942,0.0,0.0,0.0,0.0,0.0,0.0,0.0,0.0,0.0,0.0,0.0,0.0,0.0,0.0,0.0,0.0,0.0,0.0,0.0,0.0,0.0,0.0,0.0,0.0,0.0,0.0,0.0,0.0,0.0,0.0,0.0,0.0,0.0,0.0,0.0,0.0,0.0,0.0,0.0,0.0,0.0,0.0,0.0,0.0,0.0,0.0,0.0,0.0,0.0,0.0,0.0,0.0,0.0,3.1076,3.1107,3.3415,3.4589,3.4589,3.4589,3.4589,3.4589,3.3661,3.2064,0.0,0.0,0.0,0.0,0.0,0.0,0.0,0.0,0.0,0.0,0.0,0.0,0.0,0.0,0.0,0.0,0.0,0.0,0.0,0.0,0.0,0.0,0.0,0.0,0.0,0.0,0.0,0.0,3.33,3.3594,3.3484,0.0,0.0,0.0,0.0,0.0,0.0,0.0,0.0,0.0,0.0,3.6505,3.7151,3.7327,0.0,0.0,3.7566,3.7307,3.7116,3.7931,3.7964,3.6177,3.5981,0.0,0.0,0.0,0.0,0.0,0.0,0.0,0.0,0.0,0.0,0.0,0.0,0.0,0.0,0.0,0.0,0.0,0.0,0.0,0.0,0.0,0.0,0.0,0.0,0.0,0.0,0.0,0.0,0.0,0.0,0.0,0.0,0.0,0.0,0.0,0.0,0.0,0.0,0.0,0.0,0.0,0.0,0.0,0.0,0.0,0.0,0.0,0.0,0.0,0.0,0.0,0.0,3.1409,3.1409,3.4003,3.5322,3.5322,3.5379,3.5394,3.5379,3.4722,3.3369,0.0,0.0,0.0,0.0,0.0,0.0,0.0,0.0,0.0,0.0,0.0,0.0,0.0,0.0,0.0,0.0,0.0,0.0,0.0,0.0,0.0,0.0,0.0,0.0,0.0,0.0,0.0,0.0,3.4323,3.4497,3.4099,0.0,0.0,0.0,0.0,0.0,0.0,0.0,0.0,0.0,0.0,3.7163,3.7579,3.7729,3.7785,3.7762,3.7526,3.7156,3.6633,3.7288,3.7384,3.5943,0.0,0.0,0.0,0.0,0.0,0.0,0.0,0.0,0.0,0.0,0.0,0.0,0.0,0.0,0.0,0.0,0.0,0.0,0.0,0.0,0.0,0.0,0.0,0.0,0.0,0.0,0.0,0.0,0.0,0.0,1.9697,0.0,0.0,0.0,0.0,0.0,0.0,0.0,0.0,0.0,0.0,0.0,0.0,0.0,0.0,0.0,0.0,0.0,0.0,0.0,0.0,0.0,0.0,3.1205,3.1263,3.3824,3.5153,3.5153,3.5294,3.5426,3.5426,3.5379,3.4589,3.2973,0.0,0.0,0.0,0.0,0.0,0.0,0.0,0.0,0.0,0.0,0.0,0.0,0.0,0.0,0.0,0.0,0.0,0.0,0.0,0.0,0.0,0.0,0.0,0.0,0.0,0.0,3.1762,3.2602,3.3404,0.0,0.0,0.0,0.0,0.0,0.0,0.0,0.0,0.0,0.0,3.7128,3.8493,3.7651,3.7581,3.7675,3.7646,3.6831,3.6241,3.6449,3.7104,3.7325,0.0,0.0,0.0,0.0,0.0,0.0,0.0,0.0,0.0,0.0,0.0,0.0,0.0,0.0,0.0,0.0,0.0,0.0,0.0,0.0,0.0,0.0,0.0,0.0,0.0,0.0,0.0,2.2006,2.2392,0.0,0.0,0.0,0.0,0.0,0.0,0.0,0.0,0.0,0.0,0.0,3.0108,3.0374,0.0,0.0,0.0,0.0,0.0,0.0,0.0,0.0,0.0,0.0,0.0,0.0,3.1812,3.1962,3.4829,3.6357,3.6357,3.6432,3.6505,3.6591,3.6591,3.5888,3.4382,0.0,0.0,0.0,0.0,0.0,0.0,0.0,0.0,0.0,0.0,0.0,0.0,0.0,0.0,0.0,0.0,0.0,0.0,0.0,0.0,0.0,0.0,0.0,0.0,0.0,3.2651,0.0,0.0,0.0,0.0,0.0,0.0,0.0,0.0,0.0,0.0,0.0,3.5102,3.6362,3.6705,3.7165,3.8028,3.8267,3.8559,0.0,0.0,0.0,0.0,0.0,0.0,0.0,0.0,0.0,0.0,0.0,0.0,0.0,0.0,3.5856,3.5333,3.5787,3.6254,3.6265,0.0,0.0,0.0,0.0,0.0,0.0,0.0,0.0,0.0,0.0,0.0,0.0,0.0,0.0,2.4177,0.0,2.3839,0.0,0.0,0.0,0.0,0.0,0.0,0.0,0.0,2.9279,3.0574,3.1955,3.2038,3.2205,0.0,3.182,3.0443,0.0,0.0,0.0,0.0,0.0,0.0,0.0,0.0,3.1923,3.2072,3.5181,3.6908,3.6892,3.6969,3.703,3.7119,3.7164,3.674,3.5804,3.4229,3.2943,0.0,0.0,0.0,0.0,0.0,0.0,0.0,0.0,0.0,0.0,0.0,0.0,0.0,0.0,0.0,0.0,0.0,0.0,0.0,0.0,0.0,0.0,0.0,3.2857,0.0,0.0,0.0,0.0,0.0,0.0,0.0,0.0,0.0,3.5177,3.5402,3.6121,3.7646,3.7775,3.7898,3.8389,0.0,0.0,0.0,0.0,0.0,0.0,0.0,3.7622,3.7088,3.7371,3.7722,3.7728,3.7599,3.7495,3.7514,0.0,0.0,3.664,3.6988,3.7527,3.7851,3.7908,3.7901,3.7962,3.7955,3.7967,0.0,0.0,0.0,0.0,0.0,0.0,0.0,0.0,2.7367,2.7062,0.0,2.7171,0.0,0.0,0.0,0.0,0.0,2.8109,0.0,0.0,3.3534,3.4548,3.4297,3.3509,3.3511,3.4028,3.2463,3.16,3.157,3.1701,0.0,0.0,0.0,0.0,0.0,0.0,3.1625,3.1832,3.5002,3.6693,3.6693,3.6877,3.6969,3.6999,3.7119,3.7178,3.7131,3.5804,3.5042,3.4919,3.1811,0.0,0.0,0.0,0.0,0.0,0.0,0.0,0.0,0.0,0.0,0.0,0.0,0.0,0.0,0.0,0.0,0.0,0.0,0.0,0.0,3.2593,0.0,0.0,0.0,0.0,0.0,0.0,0.0,0.0,0.0,0.0,3.5973,3.669,3.7625,3.8527,0.0,0.0,0.0,0.0,3.9328,3.7569,3.7233,3.703,3.6324,3.751,3.8588,3.8744,0.0,0.0,4.0372,3.9676,3.9091,3.9077,3.9839,4.0016,3.8471,3.8275,3.8545,3.9301,3.9482,3.9508,3.964,3.9652,3.9652,2.6453,0.0,0.0,0.0,0.0,2.7343,2.8244,2.9377,3.0318,3.0451,3.0067,3.0133,0.0,0.0,0.0,0.0,0.0,0.0,3.0954,3.2976,3.3623,3.4607,3.5861,3.56,3.5615,3.5784,3.5278,3.5034,3.5034,3.508,3.3063,2.9114,0.0,0.0,0.0,0.0,3.2089,3.3409,3.5477,3.6538,3.6554,3.6616,3.6708,3.68,3.6953,3.706,3.7044,3.6743,3.6025,3.4838,3.396,0.0,0.0,0.0,0.0,0.0,0.0,0.0,0.0,0.0,0.0,0.0,0.0,0.0,0.0,0.0,0.0,0.0,0.0,0.0,3.3897,3.4774,3.4806,0.0,0.0,0.0,0.0,0.0,0.0,0.0,0.0,0.0,3.8403,3.7564,3.7263,0.0,0.0,3.8046,3.8036,3.8993,3.977,3.9932,3.9951,0.0,4.068,4.0562,4.0423,4.047,4.0766,4.1006,4.1152,4.1007,4.0855,4.0855,4.107,4.1266,4.1396,4.1031,4.0853,4.1062,4.1118,4.1137,4.1146,4.1178,4.1178,2.8322,2.8067,2.7328,2.7714,2.8864,2.9261,3.0154,3.1355,3.2118,3.2224,3.1821,3.2258,3.1693,3.0332,2.9896,0.0,0.0,0.0,3.2764,3.4744,3.4744,3.5385,3.6461,3.6492,3.6492,3.6492,3.6492,3.6492,3.6492,3.5769,3.3909,3.0949,0.0,0.0,2.9894,3.1512,3.2884,3.4,3.5631,3.6492,3.6492,3.6492,3.6523,3.6631,3.68,3.6862,3.6877,3.7044,3.6638,3.5663,3.5074,3.3919,0.0,0.0,0.0,0.0,0.0,0.0,0.0,0.0,0.0,0.0,0.0,3.1495,3.0489,0.0,0.0,0.0,3.4218,3.4384,3.4683,3.5237,0.0,0.0,0.0,0.0,0.0,0.0,0.0,3.5898,3.7486,3.8854,3.9491,3.8902,3.8745,3.9679,3.937,3.9067,3.9165,0.0,4.0857,4.1073,4.1109,4.1321,4.1963,4.1889,4.187,4.2247,4.235,4.2415,4.2465,4.2526,4.2537,4.2556,4.2537,4.2705,4.3188,4.2947,4.2686,4.2733,4.2748,4.2748,4.2777,4.2791,4.2791,3.0035,3.0644,2.8946,2.9171,3.0584,3.064,3.1616,3.3158,3.3217,3.2938,3.2525,3.3788,3.3081,3.0964,3.1144,0.0,3.3803,3.3818,3.4774,3.6492,3.6492,3.6492,3.6492,3.6492,3.6492,3.6492,3.6492,3.6492,3.643,3.4866,3.4016,3.4016,3.4016,3.3156,3.1589,3.3021,3.3879,3.4046,3.5677,3.6492,3.6492,3.6492,3.6492,3.6492,3.6631,3.6693,3.6693,3.6877,3.6984,3.6922,3.5515,3.4713,3.4685,0.0,0.0,0.0,0.0,0.0,0.0,0.0,0.0,0.0,0.0,0.0,0.0,0.0,0.0,0.0,3.6005,0.0,3.5339,3.4936,0.0,0.0,0.0,3.5234,3.6523,3.6766,3.7079,3.7792,0.0,0.0,3.9748,4.0455,4.1341,4.2551,4.2583,4.2152,4.1217,4.1883,4.2276,4.1379,4.1326,4.136,4.1664,4.2221,4.2976,4.3698,4.4005,4.3896,4.3878,4.3896,4.3968,4.3912,4.3986,4.3968,4.4005,4.3912,4.4036,4.4075,4.4109,4.4143,4.4143,4.414,4.4087,3.222,3.335,3.2901,3.2532,3.2271,3.2768,3.3568,3.4543,3.5072,3.5208,3.5104,3.5427,3.5243,3.4691,3.4832,3.5169,3.5597,3.5737,3.6045,3.6492,3.6492,3.6492,3.6492,3.6492,3.6492,3.6492,3.6492,3.6492,3.6476,3.606,3.5861,3.5876,3.5845,3.4958,3.3276,3.3623,3.4471,3.5861,3.6291,3.6492,3.6492,3.6492,3.6492,3.6492,3.6523,3.6554,3.6554,3.6693,3.677,3.6754,3.652,3.6089,3.5387,3.3244,0.0,0.0,0.0,0.0,0.0,0.0,0.0,0.0,0.0,3.187,3.053,0.0,3.2968,0.0,3.6334,3.8166,3.8454,3.8482,0.0,0.0,3.745,3.7553,3.8065,3.892,3.9405,3.9263,4.0214,4.1071,4.1597,4.1799,4.2304,4.3391,4.2322,4.1279,4.1081,4.1938,4.2511,4.235,4.2818,4.3301,4.3249,4.3481,4.3717,4.3952,4.4005,4.4005,4.4005,4.4005,4.4005,4.4005,4.4005,4.4005,4.4005,4.4005,4.4005,4.4036,4.4036,4.4055,4.4067,4.4085,4.4067,3.2577,3.3339,3.365,3.3489,3.3085,3.4118,3.4795,3.5252,3.5614,3.5765,3.5765,3.5846,3.5894,3.6005,3.61,3.6116,3.6116,3.6289,3.6367,3.6383,3.646,3.6492,3.6492,3.6492,3.6492,3.6492,3.6492,3.6492,3.6492,3.6492,3.6492,3.6492,3.6492,3.6014,3.5049,3.4988,3.5493,3.6476,3.6492,3.6492,3.6492,3.6492,3.6091,3.5324,3.5309,3.4942,3.4197,3.4257,3.4332,3.4347,3.4587,3.4496,3.3973,3.2392,3.1351,0.0,0.0,0.0,0.0,0.0,0.0,0.0,0.0,0.0,0.0,0.0,3.3913,3.4108,3.7104,3.8843,3.8384,3.8704,3.8892,3.8706,3.8754,3.9037,3.964,4.0316,4.077,4.0911,4.1526,4.2213,4.2869,4.2939,4.3139,4.3779,4.2947,4.2243,4.2277,4.2779,4.3155,4.3174,4.3603,4.3958,4.3989,4.4005,4.4005,4.4005,4.4005,4.4005,4.4005,4.4005,4.4005,4.4005,4.4005,4.4005,4.4005,4.4005,4.4005,4.4005,4.4005,4.4005,4.4005,4.4005,4.4017,3.216,3.2304,3.3038,3.3402,3.3596,3.4935,3.5489,3.5489,3.5489,3.5489,3.5489,3.5621,3.5782,3.5941,3.5957,3.5973,3.5973,3.6116,3.6179,3.6179,3.6383,3.646,3.646,3.6492,3.6492,3.646,3.6492,3.6492,3.646,3.6492,3.6492,3.6492,3.6492,3.6492,3.6492,3.6492,3.6492,3.6492,3.6291,3.6168,3.6168,3.5937,3.508,3.3562,3.3487,3.2781,3.1264,3.1321,3.1378,3.1422,3.1682,3.1985,3.2264,3.1031,3.0573,0.0,2.9986,0.0,0.0,0.0,0.0,0.0,0.0,0.0,0.0,3.5402,3.5554,3.5797,3.7921,3.873,3.7432,3.7912,3.8629,3.9491,3.96,3.9993,4.0919,4.107,4.1408,4.2264,4.2364,4.2696,4.3408,4.3634,4.3669,4.3669,4.3629,4.3537,4.3699,4.3697,4.3749,4.3804,4.3869,4.3897,4.3942,4.3976,4.3976,4.3974,4.3992,4.4008,4.4005,4.4005,4.4005,4.4005,4.4005,4.4005,4.4005,4.4005,4.4005,4.4005,4.4005,4.4005,4.4005,4.4005,4.4094,3.2434,3.3087,3.3788,3.4476,3.5082,3.5374,3.5489,3.5489,3.5489,3.5489,3.5489,3.5522,3.5554,3.5619,3.5703,3.5767,3.5784,3.5958,3.6037,3.6037,3.6179,3.6274,3.6274,3.6414,3.6429,3.6274,3.6429,3.6414,3.6258,3.6414,3.6492,3.6492,3.6492,3.6492,3.6492,0.0,0.0,0.0,3.5065,3.4304,3.4273,3.2931,3.2035,3.1708,3.1693,0.0,3.1234,3.1204,3.1292,3.1378,3.1451,0.0,0.0,0.0,0.0,0.0,0.0,0.0,0.0,0.0,0.0,0.0,3.4758,3.491,3.5345,3.543,3.6073,3.7472,3.8173,3.8962,4.0012,4.0236,4.0414,4.0599,4.0617,4.0709,4.0918,4.0935,4.114,4.1626,4.1692,4.1913,4.2523,4.2865,4.3105,4.3178,4.3392,4.3549,4.3566,4.3686,4.3788,4.3804,4.3786,4.3802,4.3835,4.3835,4.3867,4.3897,4.3929,4.3945,4.3974,4.3989,4.4005,4.4005,4.4005,4.4005,4.4005,4.4005,4.4005,4.4005,4.4005,4.4005,4.4005,4.4023,4.406,3.3339,0.0,3.4591,3.4905,0.0,3.5311,3.5489,3.5489,3.5489,3.5489,3.5489,3.5489,3.5489,3.5489,3.5572,3.5604,3.5621,3.5782,3.5863,3.5863,3.6022,3.6116,3.6085,3.621,3.6195,3.6116,3.6195,3.6195,3.6116,3.6195,3.6289,3.6352,3.6289,3.6289,3.6336,3.6289,3.6336,3.6492,3.56,3.5126,3.5095,3.4288,3.3367,3.2556,3.2482,0.0,0.0,0.0,0.0,0.0,0.0,0.0,0.0,0.0,0.0,3.3865,3.3464,3.3757,3.5033,3.5496,3.6232,3.7521,3.7749,3.7483,3.6801,3.7597,3.851,3.938,3.957,3.995,4.0767,4.0894,4.0894,4.0894,4.0894,4.0894,4.0894,4.0894,4.1065,4.1423,4.1512,4.1692,4.22,4.242,4.2673,4.2902,4.3087,4.3286,4.348,4.3583,4.3669,4.3703,4.3703,4.3718,4.3788,4.3804,4.3804,4.3835,4.3869,4.3867,4.3899,4.3929,4.3961,4.3961,4.3974,4.4005,4.4005,4.4005,4.4005,4.4005,4.4005,4.4172,4.4469,4.4302,4.4079,3.4,3.4269,3.5091,3.5125,3.4695,3.5492,3.5848,3.5833,0.0,0.0,0.0,3.5489,3.5489,3.5489,3.5489,3.5489,3.5489,3.5621,3.5655,3.5671,3.5863,3.5941,3.5926,3.5973,3.5973,3.5926,3.5973,3.5973,3.5941,3.5973,3.6053,3.6148,3.6068,3.6022,3.6148,3.6068,3.6132,3.6383,3.6075,3.5937,3.5999,3.5661,3.482,3.3382,3.3321,3.2676,3.1264,3.1321,3.1364,3.1422,3.148,3.1715,3.2013,3.2258,3.2536,3.2951,3.3262,3.4392,3.6586,3.6931,3.8018,4.0326,4.0461,3.9931,3.8651,3.9965,4.0888,4.0894,4.0894,4.0894,4.0894,4.0894,4.0894,4.0894,4.0894,4.0894,4.0894,4.0894,4.1018,4.1328,4.1378,4.1534,4.1864,4.2095,4.2338,4.2692,4.2939,4.3123,4.341,4.3496,4.3549,4.3583,4.3582,4.3634,4.3703,4.3719,4.3736,4.3753,4.3753,4.3788,4.3804,4.3851,4.3881,4.3865,4.3945,4.3989,4.3989,4.3989,4.4061,4.4191,4.4246,4.4488,4.5194,4.4952,4.4634,3.3294,3.3937,3.4792,3.5447,3.5996,3.6778,3.7135,3.7045,3.5983,3.5504,3.5489,3.5489,3.5489,3.5489,3.5489,3.5489,3.5489,3.5522,3.5537,3.5522,3.5671,3.5767,3.5752,3.5926,3.591,3.5752,3.5894,3.5894,3.5799,3.5894,3.6005,3.6037,3.6005,3.6005,3.6022,3.6005,3.6037,3.6053,3.4556,3.3846,3.3969,3.2512,3.1664,3.1589,3.1634,3.1471,3.1219,3.1278,3.1292,3.1393,3.1422,3.212,3.365,3.3801,3.4423,3.5768,3.6405,3.6911,3.7274,3.8253,3.928,4.0204,4.033,4.0326,4.0374,4.0559,4.0769,4.0871,4.0871,4.0894,4.0894,4.0912,4.0871,4.0894,4.0894,4.0894,4.0894,4.0894,4.0918,4.0995,4.0989,4.0995,4.1203,4.1731,4.2157,4.2398,4.2939,4.3445,4.348,4.3479,4.3496,4.3496,4.3496,4.3513,4.3566,4.3549,4.3583,4.3615,4.3615,4.3686,4.3753,4.3835,4.3867,4.3802,4.3913,4.3995,4.3966,4.3958,4.4342,4.4896,4.5119,4.5395,4.616,4.6197,4.6217,3.3671,3.4183,3.5119,3.574,3.61,3.701,3.7404,3.736,3.6791,3.6342,3.6013,3.5669,3.5489,3.5489,3.5489,3.5489,3.5489,3.5489,3.5489,3.5504,3.5554,3.5604,3.5604,3.5683,3.5683,3.5589,3.5668,3.5668,3.5589,3.5668,3.5765,3.5831,3.5831,3.5814,3.5748,3.5733,3.5733,3.5701,3.5083,3.4798,3.4877,3.4103,3.3742,3.3894,3.3894,3.397,3.4076,3.4076,3.4106,3.4167,3.4152,3.4546,3.5324,3.5416,3.5723,3.643,3.6754,3.7043,3.7387,3.8535,3.9487,4.0138,4.0188,4.0263,4.0478,4.0551,4.0607,4.068,4.068,4.068,4.068,4.0769,4.0793,4.0776,4.0864,4.0894,4.0894,4.0894,4.0894,4.0894,4.0894,4.0894,4.0894,4.1255,4.1709,4.2136,4.294,4.3462,4.3479,4.3479,4.3479,4.3479,4.3479,4.3479,4.3479,4.3479,4.3513,4.3531,4.3548,4.3583,4.3652,4.3719,4.3736,4.3701,4.3832,4.4114,4.4416,4.4628,4.5066,4.5695,4.5955,4.6271,4.6921,4.746,4.7677,3.4007,3.4244,3.5274,3.5921,3.6374,3.7143,3.763,3.7838,3.7704,3.736,3.6851,3.6222,3.5938,3.5923,3.5804,3.5729,3.5699,3.5579,3.5489,3.5489,3.5489,3.5489,3.5489,3.5489,3.5489,3.5489,3.5489,3.5489,3.5489,3.5489,3.5554,3.5638,3.5686,3.5589,3.5489,3.5489,3.5489,3.5489,3.5765,3.591,3.5926,3.5926,3.599,3.6133,3.6133,3.6258,3.6398,3.6398,3.6414,3.6414,3.6445,3.646,3.6492,3.6492,3.6492,3.6492,3.6492,3.6754,3.7387,3.8395,3.9352,4.0086,4.0273,4.046,4.0713,4.0848,4.0777,4.0554,4.051,4.051,4.0534,4.0583,4.0648,4.0655,4.0728,4.0799,4.0799,4.0823,4.0864,4.0864,4.0888,4.0894,4.0894,4.0989,4.144,4.2279,4.2958,4.3357,4.3462,4.3479,4.3551,4.3681,4.3626,4.3497,4.3479,4.3479,4.3496,4.3479,4.3496,4.3606,4.3734,4.386,4.4023,4.4169,4.4361,4.472,4.5218,4.5416,4.5817,4.6466,4.6687,4.7016,4.7794,4.837,4.8667,3.3766,3.3882,3.4725,3.6087,3.7485,3.7688,3.8223,3.8988,3.8571,3.8272,3.8123,3.7509,3.7225,3.715,3.6641,3.6402,3.6342,3.5774,3.5519,3.5534,3.5489,3.5489,3.5489,3.5489,3.5489,3.5489,3.5489,3.5489,3.5489,3.5489,3.5489,3.5489,3.5522,3.5537,3.5489,3.5489,3.5489,3.5489,3.5537,3.5604,3.572,3.572,3.5831,3.6005,3.6005,3.6037,3.6068,3.6037,3.61,3.6211,3.6242,3.632,3.6476,3.6492,3.6492,3.6507,3.6522,3.6754,3.7403,3.8026,3.8984,4.0121,4.0781,4.133,4.1974,4.2102,4.163,4.0863,4.0536,4.0588,4.051,4.0578,4.0664,4.0715,4.0688,4.0534,4.061,4.0631,4.0721,4.0721,4.0817,4.0894,4.0918,4.1186,4.1774,4.2622,4.2989,4.3306,4.3649,4.3754,4.3956,4.4305,4.403,4.3662,4.3644,4.3515,4.3699,4.3644,4.357,4.3901,4.4396,4.467,4.4833,4.5184,4.5658,4.5801,4.5968,4.6097,4.6388,4.7124,4.7473,4.7746,4.8521,4.8817,4.878,3.3368,3.3428,3.4387,3.5601,3.6774,3.6852,3.7458,3.8391,3.8164,3.8406,3.8925,3.8706,3.8167,3.7404,3.715,3.703,3.6985,3.6372,3.6088,3.6043,3.5699,3.5489,3.5489,3.5489,3.5489,3.5489,3.5489,3.5489,3.5489,3.5489,3.5489,3.5489,3.5489,3.5489,3.5489,3.5489,3.5489,3.5489,3.5489,3.5716,3.6067,3.5767,3.5653,3.5799,3.5831,3.5894,3.5973,3.602,3.6053,3.6179,3.6211,3.6274,3.6492,3.6492,3.6676,3.7061,3.7477,3.7948,3.8541,3.8815,3.9495,4.0811,4.1106,4.1546,4.2226,4.2303,4.2052,4.1681,4.1571,4.1571,4.1554,4.1622,4.1674,4.1691,4.175,4.163,4.1186,4.1201,4.1106,4.0703,4.0631,4.0721,4.0806,4.1192,4.1838,4.2664,4.3196,4.3754,4.4361,4.473,4.5057,4.5278,4.5094,4.4966,4.4874,4.4911,4.4892,4.4892,4.4911,4.5131,4.5259,4.5424,4.5571,4.592,4.6139,4.645,4.6745,4.6872,4.7147,4.7792,4.8125,4.8344,4.8748,4.884,4.8857,3.3124,3.324,3.3953,3.4843,3.5774,3.5774,3.6383,3.7343,3.7587,3.8196,3.8943,3.9213,3.8814,3.7983,3.7555,3.7466,3.755,3.6811,3.6458,3.6462,3.5998,3.5571,3.5228,3.5439,3.5392,3.5246,3.5392,3.5489,3.5489,3.5489,3.5489,3.5489,3.5489,3.5489,3.5519,3.5669,3.5774,3.5804,3.5923,3.6267,3.6626,3.6282,3.6079,3.6165,3.6165,3.623,3.639,3.639,3.644,3.6601,3.6601,3.6729,3.6935,3.6967,3.7182,3.7738,3.8231,3.8688,3.9156,3.9314,3.9876,4.0971,4.1338,4.1898,4.2483,4.2814,4.2929,4.2956,4.2939,4.2838,4.2347,4.2383,4.2436,4.2436,4.2524,4.2338,4.1861,4.1818,4.1656,4.1136,4.1287,4.1224,4.1388,4.1782,4.2317,4.2989,4.3604,4.423,4.491,4.5338,4.5717,4.5973,4.6103,4.6104,4.5957,4.5773,4.5902,4.5902,4.5792,4.5828,4.614,4.6232,4.6471,4.6856,4.6709,4.682,4.7371,4.7647,4.7702,4.831,4.855,4.8569,4.8696,4.8732,4.8768,3.3124,3.3124,3.3167,3.3827,3.4746,3.4746,3.5305,3.633,3.7098,3.7639,3.7994,3.8745,3.9184,3.9128,3.7856,3.7643,3.8082,3.691,3.6338,3.6443,3.6347,3.5644,3.4442,3.51,3.5067,3.4543,3.5085,3.5424,3.5489,3.5489,3.5489,3.5489,3.5534,3.5534,3.5639,3.6163,3.6465,3.6492,3.6941,3.73,3.7375,3.733,3.7285,3.7349,3.7285,3.7259,3.7289,3.7334,3.7387,3.7586,3.7575,3.7725,3.8058,3.8076,3.8221,3.8429,3.8523,3.8569,3.87,3.9186,3.9787,4.0594,4.1618,4.2609,4.319,4.3815,4.4165,4.4401,4.4265,4.3802,4.2719,4.2601,4.2533,4.2499,4.2414,4.2424,4.2296,4.2385,4.2454,4.2337,4.2416,4.25,4.2907,4.3086,4.3194,4.3569,4.3816,4.4135,4.4706,4.5114,4.5707,4.6319,4.6718,4.6819,4.614,4.6287,4.6177,4.6232,4.6489,4.6269,4.6691,4.7131,4.7498,4.7791,4.7811,4.7903,4.8141,4.8252,4.8217,4.8438,4.8494,4.8532,4.8606,4.8587,4.8641,3.3124,3.3124,3.3124,3.3356,3.367,3.3683,3.4262,3.5251,3.5574,3.6436,3.7548,3.8084,3.8634,3.9177,3.8252,3.7988,3.8165,3.7281,3.6577,3.6093,3.5324,3.4667,3.4263,3.41,3.4206,3.4361,3.461,3.5019,3.5457,3.5489,3.5489,3.5579,3.5953,3.6133,3.6252,3.6761,3.7075,3.7105,3.7315,3.7599,3.8003,3.8033,3.8227,3.8616,3.7853,3.7404,3.7404,3.7404,3.7488,3.7673,3.7707,3.7809,3.8026,3.8559,3.8923,3.9167,3.9521,3.9767,3.9801,3.9972,4.0402,4.1066,4.1518,4.2119,4.2796,4.3453,4.3914,4.3989,4.4367,4.4231,4.3988,4.3785,4.3785,4.3785,4.3768,4.3532,4.3132,4.3041,4.2915,4.2528,4.2524,4.2671,4.2877,4.292,4.3269,4.3885,4.43,4.4805,4.5511,4.6229,4.6732,4.7127,4.7556,4.7792,4.7553,4.748,4.748,4.7462,4.7517,4.7535,4.7791,4.7773,4.8049,4.8049,4.8288,4.8306,4.8288,4.8288,4.8363,4.8363,4.84,4.8457,4.8532,4.8513,4.8569,3.3124,3.3124,3.3124,3.3124,3.3124,3.3124,3.3513,3.4191,3.447,3.5346,3.6529,3.7011,3.7715,3.8435,3.8173,3.7834,3.7691,3.7247,3.6819,3.6235,3.5023,3.4301,3.4092,3.3719,3.3802,3.4279,3.4576,3.4986,3.5392,3.5246,3.5204,3.5422,3.5918,3.623,3.6482,3.7267,3.7719,3.7749,3.7943,3.8287,3.8691,3.8721,3.8931,3.9179,3.8527,3.8048,3.8063,3.8063,3.8098,3.8217,3.8251,3.8306,3.8523,3.9093,3.9558,3.9757,4.0175,4.047,4.0489,4.0489,4.0665,4.1142,4.1393,4.1739,4.2157,4.28,4.3227,4.3558,4.3914,4.431,4.4542,4.4581,4.4598,4.4598,4.4598,4.4384,4.3876,4.3792,4.3582,4.3325,4.3294,4.3323,4.3326,4.3501,4.3845,4.4334,4.4775,4.5246,4.583,4.6519,4.7168,4.7378,4.7718,4.8002,4.7992,4.7976,4.7994,4.8012,4.7994,4.8214,4.8324,4.8324,4.8324,4.8324,4.8324,4.8324,4.8324,4.8324,4.8324,4.8324,4.8324,4.8382,4.8401,4.842,4.8476,3.3124,3.3124,3.3124,3.3124,3.3124,3.3124,3.3124,3.3368,3.3979,3.4524,3.5115,3.5615,3.6607,3.7396,3.7601,3.7256,3.7049,3.7056,3.6912,3.6639,3.5554,3.4705,3.4172,3.4268,3.436,3.4549,3.5189,3.5514,3.5636,3.5026,3.486,3.5261,3.554,3.5933,3.6272,3.7632,3.8407,3.8441,3.8859,3.9269,3.9373,3.9313,3.9313,3.9388,3.9269,3.9224,3.9284,3.9305,3.923,3.929,3.9305,3.9487,3.9531,3.9783,4.0036,4.015,4.0261,4.0366,4.0455,4.0505,4.0489,4.0646,4.1091,4.1426,4.1558,4.2109,4.2707,4.3136,4.3482,4.3794,4.4367,4.457,4.4598,4.4598,4.4598,4.4564,4.4547,4.4564,4.4592,4.4567,4.4538,4.479,4.4872,4.4739,4.4722,4.48,4.4932,4.5056,4.5311,4.581,4.622,4.6758,4.7335,4.7777,4.8055,4.8268,4.8268,4.8288,4.8251,4.8324,4.8324,4.8324,4.8324,4.8324,4.8324,4.8324,4.8324,4.8324,4.8324,4.8324,4.8306,4.8306,4.8343,4.8363,4.8382,3.3124,3.3124,3.3124,3.3124,3.3124,3.3124,3.3124,3.3124,3.3411,3.3907,3.4496,3.4924,3.5895,3.7074,3.7434,3.7767,3.8248,3.782,3.681,3.5488,3.5034,3.4843,3.4706,3.4818,3.5175,3.5732,3.6452,3.6806,3.6592,3.5932,3.5968,3.6556,3.6587,3.6714,3.6976,3.8292,3.888,3.8407,3.9,3.9388,3.9388,3.9388,3.9388,3.9388,3.9388,3.9388,3.9388,3.9388,3.9388,3.9388,3.9388,3.9481,3.9646,3.9768,3.9874,4.0066,4.0101,4.0172,4.0347,4.0366,4.0401,4.0539,4.0715,4.0817,4.087,4.1426,4.1901,4.2269,4.2923,4.3647,4.3869,4.4338,4.457,4.4598,4.4598,4.4598,4.4598,4.4598,4.4598,4.4654,4.4654,4.4682,4.472,4.4793,4.4858,4.4886,4.4923,4.5005,4.5096,4.5416,4.58,4.6196,4.686,4.7509,4.7777,4.8094,4.8287,4.8305,4.8324,4.8324,4.8324,4.8324,4.8324,4.8324,4.8324,4.8324,4.8324,4.8324,4.8324,4.8324,4.8324,4.8324,4.8324,4.8324,4.8363,3.3124,3.3124,3.3124,3.3124,3.3124,3.3124,3.3124,3.3124,3.3124,3.3411,3.3894,3.405,3.4841,3.6029,3.6607,3.7218,3.7895,3.7696,3.6755,3.5305,3.5203,3.5397,3.5683,3.5903,3.6228,3.6696,3.7198,3.7218,3.6891,3.6222,3.6144,3.6707,3.683,3.7074,3.76,3.8722,3.9119,3.8775,3.9156,3.9388,3.9388,3.9388,3.9388,3.9388,3.9388,3.9388,3.9388,3.9388,3.9388,3.9388,3.9388,3.946,3.9589,3.9574,3.9661,3.9839,3.9925,3.9996,4.0242,4.0327,4.0366,4.047,4.0489,4.0489,4.0558,4.0956,4.1192,4.1608,4.2442,4.3243,4.3558,4.4162,4.457,4.4598,4.4598,4.4598,4.4598,4.4598,4.4598,4.4598,4.4598,4.4598,4.4626,4.4671,4.4737,4.4737,4.4803,4.4886,4.4951,4.5159,4.5442,4.5825,4.6489,4.7039,4.747,4.7856,4.8229,4.8305,4.8324,4.8324,4.8324,4.8324,4.8324,4.8324,4.8324,4.8324,4.8324,4.8324,4.8324,4.8324,4.8324,4.8324,4.8324,4.8324,4.8343,3.3124,3.3124,3.3124,3.3124,3.3124,3.3124,3.3124,3.3124,3.3124,3.3124,3.321,3.324,3.3696,3.4509,3.5359,3.5883,3.6149,3.7042,3.7028,3.6484,3.6402,3.673,3.7288,3.7269,3.7381,3.76,3.7436,3.7043,3.6648,3.5762,3.5475,3.6311,3.6424,3.6855,3.8014,3.8995,3.9316,3.9156,3.9316,3.9388,3.9388,3.9388,3.9388,3.9388,3.9388,3.9388,3.9388,3.9388,3.9388,3.9388,3.9388,3.9424,3.9424,3.9409,3.9532,3.9661,3.9681,3.9874,4.0156,4.0242,4.0296,4.0436,4.0505,4.0489,4.0524,4.0593,4.0817,4.1294,4.2109,4.2784,4.3363,4.4133,4.4525,4.4598,4.4598,4.4598,4.4598,4.4598,4.4598,4.4598,4.4598,4.4598,4.4598,4.4598,4.4598,4.4598,4.4626,4.4709,4.4748,4.4934,4.5106,4.5528,4.6049,4.6624,4.7062,4.7611,4.7994,4.8305,4.8324,4.8324,4.8324,4.8324,4.8324,4.8324,4.8324,4.8324,4.8324,4.8324,4.8324,4.8324,4.8324,4.8324,4.8324,4.8324,4.8324,3.3124,3.3124,3.3124,3.3124,3.3124,3.3124,3.3124,3.3124,3.3124,3.3124,3.3124,3.3124,3.3569,3.4356,3.4634,3.5128,3.5909,3.6791,3.7271,3.7343,3.8028,3.8458,3.8619,3.8238,3.8288,3.8561,3.7616,3.725,3.7531,3.6154,3.6203,3.7537,3.6896,3.7187,3.8188,3.9046,3.9046,3.8686,3.9156,3.9388,3.9388,3.9388,3.9388,3.9388,3.9388,3.9388,3.9388,3.9388,3.9388,3.9388,3.9388,3.9388,3.9388,3.9388,3.9409,3.9496,3.9481,3.9589,3.9839,3.998,4.0172,4.0331,4.0436,4.0489,4.0489,4.0489,4.0593,4.0956,4.1771,4.2536,4.2923,4.3885,4.4468,4.4598,4.4598,4.4598,4.4598,4.4598,4.4598,4.4598,4.4598,4.4598,4.4598,4.4598,4.4598,4.4598,4.4598,4.4598,4.4682,4.4682,4.4869,4.5025,4.5477,4.6098,4.6694,4.7252,4.7733,4.819,4.8324,4.8324,4.8324,4.8324,4.8324,4.8324,4.8324,4.8324,4.8324,4.8324,4.8324,4.8324,4.8324,4.8324,4.8324,4.8324,4.8324,3.3124,3.3124,3.3124,3.3124,3.3124,3.3124,3.3124,3.3124,3.3124,3.3124,3.3124,3.3124,3.3368,3.3852,3.423,3.4703,3.5332,3.6134,3.6621,3.6947,3.7563,3.842,3.8943,3.8575,3.8478,3.8686,3.7548,3.7035,3.6933,3.611,3.6492,3.7281,3.7165,3.7539,3.8686,3.9119,3.9192,3.8885,3.9192,3.9388,3.9388,3.9388,3.9388,3.9388,3.9388,3.9388,3.9388,3.9388,3.9388,3.9388,3.9388,3.9388,3.9388,3.9388,3.9388,3.9388,3.9388,3.9481,3.9661,3.9818,3.998,4.0226,4.0366,4.0436,4.0505,4.0489,4.0489,4.0646,4.1509,4.2093,4.2676,4.3768,4.4468,4.4598,4.4598,4.4598,4.4598,4.4598,4.4598,4.4598,4.4598,4.4598,4.4598,4.4598,4.4598,4.4598,4.4598,4.4598,4.4598,4.4615,4.4643,4.4814,4.5115,4.5767,4.6412,4.699,4.765,4.8093,4.8324,4.8324,4.8324,4.8324,4.8324,4.8324,4.8324,4.8324,4.8324,4.8324,4.8324,4.8324,4.8324,4.8324,4.8324,4.8324,4.8324,3.3124,3.3124,3.3124,3.3124,3.3124,3.3124,3.3124,3.3124,3.3124,3.3124,3.3124,3.3124,3.3167,3.3154,3.3865,3.423,3.4314,3.5156,3.5722,3.6175,3.6688,3.7501,3.8657,3.8211,3.8,3.791,3.7165,3.6478,3.6056,3.5749,3.6122,3.6894,3.7035,3.7919,3.8995,3.9388,3.9388,3.9316,3.9316,3.9388,3.9388,3.9388,3.9388,3.9388,3.9388,3.9388,3.9388,3.9388,3.9388,3.9388,3.9388,3.9388,3.9388,3.9388,3.9388,3.9388,3.9424,3.9481,3.9661,3.9732,3.9874,4.0191,4.0312,4.0381,4.047,4.0489,4.0489,4.0489,4.1125,4.1885,4.2738,4.3856,4.4468,4.4598,4.4598,4.4598,4.4598,4.4598,4.4598,4.4598,4.4598,4.4598,4.4598,4.4598,4.4598,4.4598,4.4598,4.4598,4.4598,4.4598,4.4598,4.4654,4.5025,4.5459,4.6105,4.6746,4.7424,4.8014,4.8229,4.8324,4.8324,4.8324,4.8324,4.8324,4.8324,4.8324,4.8324,4.8324,4.8324,4.8324,4.8324,4.8324,4.8324,4.8324,4.8324,3.3124,3.3124,3.3124,3.3124,3.3124,3.3124,3.3124,3.3124,3.3124,3.3124,3.3124,3.3124,3.3124,3.3124,3.3411,3.3368,3.3611,3.4413,3.5182,3.6175,3.6308,3.6713,3.7357,3.7218,3.7204,3.6972,3.636,3.5896,3.5709,3.5776,3.6122,3.6894,3.7615,3.8412,3.9228,3.9388,3.9388,3.9388,3.9388,3.9388,3.9388,3.9388,3.9388,3.9388,3.9388,3.9388,3.9388,3.9388,3.9388,3.9388,3.9388,3.9388,3.9388,3.9388,3.9388,3.9388,3.9388,3.9424,3.9517,3.9747,3.996,4.0066,4.0296,4.0455,4.0505,4.0489,4.0489,4.0627,4.1109,4.1901,4.3015,4.4018,4.4497,4.4598,4.4598,4.4598,4.4598,4.4598,4.4598,4.4598,4.4598,4.4598,4.4598,4.4598,4.4598,4.4598,4.4598,4.4598,4.4598,4.4598,4.4598,4.4598,4.4759,4.5232,4.6098,4.6786,4.7485,4.7994,4.819,4.8324,4.8324,4.8324,4.8324,4.8324,4.8324,4.8324,4.8324,4.8324,4.8324,4.8324,4.8324,4.8324,4.8324,4.8324,4.8324,3.3124,3.3124,3.3124,3.3124,3.3124,3.3124,3.3124,3.3124,3.3124,3.3124,3.3124,3.3124,3.3124,3.3167,3.3484,3.3738,3.3865,3.4356,3.5032,3.5548,3.5507,3.5494,3.5803,3.6162,3.6306,3.6241,3.5494,3.5305,3.5588,3.583,3.632,3.7424,3.7985,3.8575,3.9265,3.9388,3.9388,3.9388,3.9388,3.9388,3.9388,3.9388,3.9388,3.9388,3.9388,3.9388,3.9388,3.9388,3.9388,3.9388,3.9388,3.9388,3.9388,3.9388,3.9388,3.9388,3.9388,3.9388,3.9496,3.9676,3.9874,4.0011,4.0242,4.0401,4.047,4.0489,4.0489,4.0558,4.0904,4.1542,4.2892,4.4047,4.4468,4.4598,4.4598,4.4598,4.4598,4.4598,4.4598,4.4598,4.4598,4.4598,4.4598,4.4598,4.4598,4.4598,4.4598,4.4598,4.4598,4.4598,4.4598,4.4598,4.4598,4.5025,4.6,4.6832,4.7569,4.7994,4.8247,4.8305,4.8324,4.8324,4.8324,4.8324,4.8324,4.8324,4.8324,4.8324,4.8324,4.8324,4.8324,4.8324,4.8324,4.8324,4.8324,3.3124,3.3124,3.3124,3.3124,3.3124,3.3124,3.3124,3.3124,3.3124,3.3124,3.3124,3.3124,3.3124,3.3283,3.3992,3.4384,3.4662,3.4937,3.5332,3.5426,3.506,3.4978,3.5073,3.5345,3.5507,3.5426,3.5305,3.5386,3.5669,3.607,3.6975,3.8037,3.8352,3.8811,3.9265,3.9388,3.9388,3.9388,3.9388,3.9388,3.9388,3.9388,3.9388,3.9388,3.9388,3.9388,3.9388,3.9388,3.9388,3.9388,3.9388,3.9388,3.9388,3.9388,3.9388,3.9388,3.9388,3.9388,3.946,3.964,3.9854,3.9996,4.0207,4.0366,4.0455,4.047,4.047,4.0558,4.0802,4.1294,4.2426,4.3575,4.431,4.4542,4.4598,4.4598,4.4598,4.4598,4.4598,4.4598,4.4598,4.4598,4.4598,4.4598,4.4598,4.4598,4.4598,4.4598,4.4598,4.4598,4.4598,4.4598,4.4598,4.5079,4.6042,4.7031,4.7772,4.8014,4.8247,4.8305,4.8324,4.8324,4.8324,4.8324,4.8324,4.8324,4.8324,4.8324,4.8324,4.8324,4.8324,4.8324,4.8324,4.8324,4.8324,3.3124,3.3124,3.3124,3.3124,3.3124,3.3124,3.3124,3.3124,3.3124,3.3124,3.3124,3.3124,3.3124,3.3368,3.4021,3.4744,3.544,3.5803,3.5883,3.5856,3.5413,3.5156,3.5142,3.4991,3.484,3.5019,3.5602,3.6241,3.6215,3.7053,3.7758,3.8263,3.8797,3.9265,3.9316,3.9388,3.9388,3.9388,3.9388,3.9388,3.9388,3.9388,3.9388,3.9388,3.9388,3.9388,3.9388,3.9388,3.9388,3.9388,3.9388,3.9388,3.9388,3.9388,3.9388,3.9388,3.9388,3.9388,3.9424,3.9747,3.9925,4.0031,4.0172,4.0331,4.0436,4.0401,4.0401,4.0627,4.1024,4.1641,4.241,4.3273,4.3943,4.4338,4.457,4.4598,4.4598,4.4598,4.4598,4.4598,4.4598,4.4598,4.4598,4.4598,4.4598,4.4598,4.4598,4.4598,4.4598,4.4598,4.4598,4.4598,4.4598,4.5275,4.6116,4.712,4.7933,4.8072,4.8228,4.8305,4.8324,4.8324,4.8324,4.8324,4.8324,4.8324,4.8324,4.8324,4.8324,4.8324,4.8324,4.8324,4.8324,4.8324,4.8324,3.3124,3.3124,3.3124,3.3124,3.3124,3.3124,3.3124,3.3124,3.3124,3.3124,3.3124,3.3124,3.3368,3.3894,3.4649,3.5682,3.6674,3.6791,3.6649,3.6281,3.5762,3.5251,3.5264,3.4978,3.5114,3.5548,3.6635,3.7102,3.6503,3.7515,3.8389,3.8848,3.9228,3.9388,3.9388,3.9388,3.9388,3.9388,3.9388,3.9388,3.9388,3.9388,3.9388,3.9388,3.9388,3.9388,3.9388,3.9388,3.9388,3.9388,3.9388,3.9388,3.9388,3.9388,3.9388,3.9388,3.9388,3.9388,3.946,3.9747,3.9975,4.0046,4.0207,4.0347,4.0436,4.0401,4.0366,4.0627,4.1091,4.1608,4.1949,4.2876,4.3571,4.3972,4.4338,4.457,4.4598,4.4598,4.4598,4.4598,4.4598,4.4598,4.4598,4.4598,4.4598,4.4598,4.4598,4.4598,4.4598,4.4598,4.4598,4.4665,4.4703,4.5284,4.6049,4.6945,4.7772,4.7974,4.8228,4.8286,4.8324,4.8324,4.8324,4.8324,4.8324,4.8324,4.8324,4.8324,4.8324,4.8324,4.8324,4.8324,4.8324,4.8324,4.8324,3.3124,3.3124,3.3124,3.3124,3.3124,3.3124,3.3124,3.3124,3.3124,3.3124,3.3124,3.3326,3.3781,3.4496,3.5521,3.6752,3.8202,3.7924,3.7477,3.6805,3.6492,3.583,3.5332,3.5494,3.5936,3.6175,3.7285,3.7834,3.7462,3.8098,3.8775,3.9156,3.9388,3.9388,3.9388,3.9388,3.9388,3.9388,3.9388,3.9388,3.9388,3.9388,3.9388,3.9388,3.9388,3.9388,3.9388,3.9388,3.9388,3.9388,3.9388,3.9388,3.9388,3.9388,3.9388,3.9388,3.9388,3.9409,3.9553,3.9783,4.0046,4.0101,4.0207,4.0381,4.0436,4.0436,4.0401,4.0593,4.0904,4.136,4.1673,4.2567,4.3257,4.3676,4.4162,4.4598,4.4598,4.4598,4.4598,4.4598,4.4598,4.4598,4.4598,4.4598,4.4598,4.4598,4.4598,4.4598,4.4598,4.4598,4.4626,4.4731,4.4934,4.532,4.5957,4.6659,4.732,4.7653,4.8034,4.8305,4.8324,4.8324,4.8324,4.8324,4.8324,4.8324,4.8324,4.8324,4.8324,4.8324,4.8324,4.8324,4.8324,4.8324,4.8324,3.3124,3.3124,3.3124,3.3124,3.3124,3.3167,3.3124,3.3167,3.324,3.3124,3.3368,3.3894,3.4356,3.4909,3.6346,3.7539,3.8263,3.8664,3.83,3.7606,3.7567,3.7155,3.6607,3.666,3.6777,3.6947,3.7796,3.8113,3.8173,3.8833,3.9192,3.9388,3.9388,3.9388,3.9388,3.9388,3.9388,3.9388,3.9388,3.9388,3.9388,3.9388,3.9388,3.9388,3.9388,3.9388,3.9388,3.9388,3.9388,3.9388,3.9388,3.9388,3.9388,3.9388,3.9388,3.9388,3.9424,3.9445,3.9625,3.9889,4.0101,4.0207,4.0292,4.0381,4.0436,4.0455,4.047,4.0505,4.0612,4.0904,4.1393,4.2173,4.2831,4.3482,4.4076,4.4468,4.4598,4.4598,4.4598,4.4598,4.4598,4.4598,4.4598,4.4598,4.4598,4.4598,4.4598,4.4598,4.4598,4.4598,4.4598,4.4692,4.4852,4.5258,4.5833,4.6542,4.7106,4.7446,4.7877,4.8305,4.8324,4.8324,4.8324,4.8324,4.8324,4.8324,4.8324,4.8324,4.8324,4.8324,4.8324,4.8324,4.8324,4.8324,4.8324,3.3124,3.3124,3.3124,3.3124,3.3167,3.3611,3.3823,3.3937,3.433,3.4511,3.4553,3.4883,3.5332,3.6016,3.7347,3.8113,3.8553,3.8922,3.8649,3.8113,3.8037,3.7744,3.7165,3.7386,3.763,3.7857,3.8389,3.8922,3.9031,3.9156,3.9388,3.9388,3.9388,3.9388,3.9388,3.9388,3.9388,3.9388,3.9388,3.9388,3.9388,3.9388,3.9388,3.9388,3.9388,3.9388,3.9388,3.9388,3.9388,3.9388,3.9388,3.9388,3.9388,3.9388,3.9388,3.9388,3.9388,3.9481,3.9681,3.998,4.0156,4.0277,4.0327,4.0347,4.0401,4.047,4.0489,4.0489,4.0489,4.0681,4.1091,4.1901,4.2458,4.3106,4.3943,4.4367,4.4598,4.4598,4.4598,4.4598,4.4598,4.4598,4.4598,4.4598,4.4598,4.4598,4.4598,4.4598,4.4598,4.4598,4.4598,4.4598,4.4814,4.5106,4.5724,4.6401,4.708,4.7506,4.7975,4.8267,4.8305,4.8324,4.8324,4.8324,4.8324,4.8324,4.8324,4.8324,4.8324,4.8324,4.8324,4.8324,4.8324,4.8324,4.8324,3.3124,3.3124,3.3124,3.3197,3.3496,3.4147,3.4509,3.4786,3.5278,3.5588,3.5669,3.5829,3.6439,3.7271,3.8113,3.8575,3.8664,3.8995,3.8649,3.8315,3.8202,3.8023,3.782,3.8075,3.8501,3.8501,3.8958,3.9265,3.9352,3.9388,3.9388,3.9388,3.9388,3.9388,3.9388,3.9388,3.9388,3.9388,3.9388,3.9388,3.9388,3.9388,3.9388,3.9388,3.9388,3.9388,3.9388,3.9388,3.9388,3.9388,3.9388,3.9388,3.9388,3.9388,3.9388,3.9424,3.946,3.9589,3.9803,4.0031,4.0191,4.0277,4.0312,4.0296,4.0381,4.047,4.0489,4.0489,4.0489,4.0489,4.0783,4.1722,4.2363,4.3031,4.3768,4.4207,4.4598,4.4598,4.4598,4.4598,4.4598,4.4598,4.4598,4.4598,4.4598,4.4598,4.4598,4.4598,4.4598,4.4598,4.4598,4.4598,4.4692,4.4961,4.5537,4.6227,4.6923,4.7548,4.7995,4.8267,4.8287,4.8305,4.8324,4.8324,4.8324,4.8324,4.8324,4.8324,4.8324,4.8324,4.8324,4.8324,4.8324,4.8324,4.8324,3.3124,3.3124,3.3111,3.3581,3.4272,3.4356,3.4855,3.5561,3.5655,3.5775,3.5989,3.6478,3.7362,3.8202,3.8523,3.8833,3.9053,3.9301,3.8885,3.8701,3.8811,3.8686,3.8575,3.876,3.9192,3.9192,3.9388,3.9388,3.9388,3.9388,3.9388,3.9388,3.9388,3.9388,3.9388,3.9388,3.9388,3.9388,3.9388,3.9388,3.9388,3.9388,3.9388,3.9388,3.9388,3.9388,3.9388,3.9388,3.9388,3.9388,3.9388,3.9388,3.9388,3.9388,3.9388,3.9424,3.9553,3.9696,3.9925,4.0031,4.0121,4.0242,4.0312,4.0366,4.0436,4.047,4.0489,4.0489,4.0489,4.0489,4.087,4.1591,4.2395,4.2892,4.3604,4.431,4.4598,4.4598,4.4598,4.4598,4.4598,4.4598,4.4598,4.4598,4.4598,4.4598,4.4598,4.4598,4.4598,4.4598,4.4598,4.4598,4.4598,4.4852,4.5346,4.6007,4.6763,4.7421,4.7974,4.819,4.8287,4.8287,4.8324,4.8324,4.8324,4.8324,4.8324,4.8324,4.8324,4.8324,4.8324,4.8324,4.8324,4.8324,4.8324,3.3124,3.3167,3.3654,3.4118,3.4439,3.4937,3.5602,3.6439,3.6947,3.7193,3.7193,3.7553,3.8,3.8441,3.8723,3.8892,3.909,3.9301,3.9156,3.9119,3.9192,3.9192,3.9119,3.9156,3.9388,3.9388,3.9388,3.9388,3.9388,3.9388,3.9388,3.9388,3.9388,3.9388,3.9388,3.9388,3.9388,3.9388,3.9388,3.9388,3.9388,3.9388,3.9388,3.9388,3.9388,3.9388,3.9388,3.9388,3.9388,3.9388,3.9388,3.9388,3.9388,3.9388,3.9424,3.9424,3.9589,3.9803,3.9996,4.0101,4.0261,4.0366,4.0436,4.047,4.0489,4.0489,4.0489,4.0489,4.0489,4.0489,4.0681,4.1641,4.2583,4.2862,4.3469,4.431,4.4598,4.4598,4.4598,4.4598,4.4598,4.4598,4.4598,4.4598,4.4598,4.4598,4.4598,4.4598,4.4598,4.4598,4.4598,4.4598,4.4598,4.5052,4.5563,4.6098,4.6624,4.7291,4.7951,4.8111,4.8267,4.8287,4.8324,4.8324,4.8324,4.8324,4.8324,4.8324,4.8324,4.8324,4.8324,4.8324,4.8324,4.8324,4.8324,3.3124,3.3197,3.4021,3.4551,3.4868,3.5642,3.6464,3.7299,3.7886,3.8202,3.8202,3.8277,3.8389,3.8627,3.8797,3.9017,3.9192,3.9352,3.9388,3.9388,3.9352,3.9388,3.9388,3.9388,3.9388,3.9388,3.9388,3.9388,3.9388,3.9388,3.9388,3.9388,3.9388,3.9388,3.9388,3.9388,3.9388,3.9388,3.9388,3.9388,3.9388,3.9388,3.9388,3.9388,3.9388,3.9388,3.9388,3.9388,3.9388,3.9388,3.9388,3.9388,3.9388,3.9424,3.9409,3.9517,3.9625,3.9803,4.0066,4.0207,4.0366,4.047,4.0436,4.042,4.0489,4.0489,4.0489,4.0489,4.0489,4.0489,4.0593,4.1641,4.2426,4.2769,4.3798,4.4598,4.4598,4.4598,4.4598,4.4598,4.4598,4.4598,4.4598,4.4598,4.4598,4.4598,4.4598,4.4598,4.4598,4.4598,4.4598,4.4598,4.4598,4.5196,4.5893,4.6172,4.6531,4.7482,4.8012,4.8131,4.8247,4.8286,4.8305,4.8324,4.8324,4.8324,4.8324,4.8324,4.8324,4.8324,4.8324,4.8324,4.8324,4.8324,4.8324,3.3124,3.321,3.4063,3.4855,3.5561,3.6478,3.7323,3.7962,3.8165,3.8202,3.824,3.8389,3.8575,3.8797,3.898,3.9141,3.9316,3.9388,3.9388,3.9388,3.9388,3.9388,3.9388,3.9388,3.9388,3.9388,3.9388,3.9388,3.9388,3.9388,3.9388,3.9388,3.9388,3.9388,3.9388,3.9388,3.9388,3.9388,3.9388,3.9388,3.9388,3.9388,3.9388,3.9388,3.9388,3.9388,3.9388,3.9388,3.9388,3.9388,3.9388,3.9388,3.9388,3.9388,3.946,3.9625,3.9696,3.991,4.0226,4.0261,4.0366,4.0455,4.042,4.0401,4.047,4.0489,4.0489,4.0489,4.0489,4.0489,4.0922,4.1608,4.2205,4.2862,4.3885,4.4598,4.4598,4.4598,4.4598,4.4598,4.4598,4.4598,4.4598,4.4598,4.4598,4.4598,4.4598,4.4598,4.4598,4.4598,4.4598,4.4598,4.4598,4.5035,4.5614,4.595,4.6466,4.7442,4.8012,4.8072,4.817,4.8229,4.8248,4.8305,4.8324,4.8324,4.8324,4.8324,4.8324,4.8324,4.8324,4.8324,4.8324,4.8324,4.8324,3.3124,3.324,3.4594,3.5346,3.5709,3.6517,3.7414,3.8127,3.8202,3.8277,3.8404,3.8478,3.8701,3.8943,3.9068,3.9228,3.9388,3.9388,3.9388,3.9388,3.9388,3.9388,3.9388,3.9388,3.9388,3.9388,3.9388,3.9388,3.9388,3.9388,3.9388,3.9388,3.9388,3.9388,3.9388,3.9388,3.9388,3.9388,3.9388,3.9388,3.9388,3.9388,3.9388,3.9388,3.9388,3.9388,3.9388,3.9388,3.9388,3.9388,3.9388,3.9388,3.9388,3.9388,3.946,3.9589,3.9696,4.0066,4.0331,4.0436,4.0455,4.0455,4.0455,4.0436,4.0505,4.0489,4.0489,4.0489,4.0489,4.0489,4.0715,4.1771,4.2426,4.2769,4.3575,4.4338,4.4598,4.4598,4.4598,4.4598,4.4598,4.4598,4.4598,4.4598,4.4598,4.4598,4.4598,4.4598,4.4598,4.4598,4.4598,4.4598,4.4665,4.4998,4.5346,4.5699,4.6074,4.6809,4.7485,4.7875,4.7975,4.8113,4.8248,4.8305,4.8324,4.8324,4.8324,4.8324,4.8324,4.8324,4.8324,4.8324,4.8324,4.8324,4.8324,3.3283,3.3683,3.5033,3.5789,3.6148,3.6961,3.7696,3.8165,3.8277,3.8366,3.8516,3.8627,3.8848,3.9053,3.9177,3.9265,3.9388,3.9388,3.9388,3.9388,3.9388,3.9388,3.9388,3.9388,3.9388,3.9388,3.9388,3.9388,3.9388,3.9388,3.9388,3.9388,3.9388,3.9388,3.9388,3.9388,3.9388,3.9388,3.9388,3.9388,3.9388,3.9388,3.9388,3.9388,3.9388,3.9388,3.9388,3.9388,3.9388,3.9388,3.9388,3.9388,3.9388,3.9388,3.946,3.9676,3.9945,4.0261,4.042,4.0489,4.0489,4.0489,4.0489,4.0489,4.0489,4.0489,4.0489,4.0489,4.0489,4.0681,4.0956,4.2013,4.2583,4.2923,4.3634,4.4412,4.4598,4.4598,4.4598,4.4598,4.4598,4.4598,4.4598,4.4598,4.4598,4.4598,4.4598,4.4598,4.4598,4.4598,4.4598,4.4598,4.4637,4.4889,4.5205,4.5511,4.5875,4.622,4.69,4.7591,4.7816,4.7937,4.8132,4.8324,4.8324,4.8324,4.8324,4.8324,4.8324,4.8324,4.8324,4.8324,4.8324,4.8324,4.8324,3.3654,3.4468,3.5318,3.6108,3.6922,3.7734,3.8165,3.8202,3.8404,3.8478,3.8538,3.8922,3.9068,3.9156,3.9301,3.9388,3.9388,3.9388,3.9388,3.9388,3.9388,3.9388,3.9388,3.9388,3.9388,3.9388,3.9388,3.9388,3.9388,3.9388,3.9388,3.9388,3.9388,3.9388,3.9388,3.9388,3.9388,3.9388,3.9388,3.9388,3.9388,3.9388,3.9388,3.9388,3.9388,3.9388,3.9388,3.9388,3.9388,3.9388,3.9388,3.9388,3.9388,3.9388,3.9655,3.996,4.0261,4.0366,4.0489,4.0489,4.0489,4.0489,4.0489,4.0489,4.0489,4.0489,4.0489,4.0489,4.0524,4.0956,4.1426,4.2078,4.2769,4.335,4.4047,4.444,4.457,4.4598,4.4598,4.4598,4.4598,4.4598,4.4598,4.4598,4.4598,4.4598,4.4598,4.4598,4.4598,4.4598,4.4598,4.4598,4.4665,4.4797,4.5062,4.532,4.5425,4.5708,4.6659,4.7385,4.7572,4.7797,4.8132,4.8324,4.8324,4.8324,4.8324,4.8324,4.8324,4.8324,4.8324,4.8324,4.8324,4.8324,4.8324,3.4202,3.4564,3.5936,3.6688,3.7014,3.7848,3.8202,3.824,3.8404,3.8553,3.8708,3.8995,3.9192,3.9301,3.9373,3.9388,3.9388,3.9388,3.9388,3.9388,3.9388,3.9388,3.9388,3.9388,3.9388,3.9388,3.9388,3.9388,3.9388,3.9388,3.9388,3.9388,3.9388,3.9388,3.9388,3.9388,3.9388,3.9388,3.9388,3.9388,3.9388,3.9388,3.9388,3.9388,3.9388,3.9388,3.9388,3.9388,3.9388,3.9388,3.9388,3.9388,3.9388,3.9424,3.9568,3.9925,4.0137,4.0226,4.0436,4.0489,4.0489,4.0489,4.0489,4.0489,4.0489,4.0489,4.0489,4.0489,4.0646,4.1057,4.1608,4.23,4.2953,4.3663,4.4236,4.4468,4.4598,4.4598,4.4598,4.4598,4.4598,4.4598,4.4598,4.4598,4.4598,4.4598,4.4598,4.4598,4.4598,4.4598,4.4598,4.4598,4.4626,4.4731,4.4852,4.5045,4.5062,4.5249,4.6257,4.6999,4.7088,4.7388,4.8015,4.8324,4.8324,4.8324,4.8324,4.8324,4.8324,4.8324,4.8324,4.8324,4.8324,4.8324,4.8324,3.4592,3.506,3.6334,3.7092,3.7491,3.7962,3.824,3.8366,3.8538,3.8686,3.8833,3.9104,3.9265,3.9388,3.9388,3.9388,3.9388,3.9388,3.9388,3.9388,3.9388,3.9388,3.9388,3.9388,3.9388,3.9388,3.9388,3.9388,3.9388,3.9388,3.9388,3.9388,3.9388,3.9388,3.9388,3.9388,3.9388,3.9388,3.9388,3.9388,3.9388,3.9388,3.9388,3.9388,3.9388,3.9388,3.9388,3.9388,3.9388,3.9388,3.9388,3.9388,3.9424,3.9481,3.964,3.996,4.0137,4.0261,4.047,4.0489,4.0489,4.0489,4.0489,4.0489,4.0489,4.0489,4.0489,4.0524,4.0802,4.116,4.1852,4.2504,4.3213,4.3869,4.4236,4.457,4.4598,4.4598,4.4598,4.4598,4.4598,4.4598,4.4598,4.4598,4.4598,4.4598,4.4598,4.4598,4.4598,4.4598,4.4598,4.4598,4.4598,4.4609,4.4759,4.4824,4.4824,4.5089,4.5982,4.6548,4.6618,4.7241,4.8093,4.8324,4.8324,4.8324,4.8324,4.8324,4.8324,4.8324,4.8324,4.8324,4.8324,4.8324,4.8324,3.4937,3.5669,3.661,3.7491,3.8127,3.824,3.8352,3.8516,3.8723,3.8819,3.8907,3.9213,3.9373,3.9388,3.9388,3.9388,3.9388,3.9388,3.9388,3.9388,3.9388,3.9388,3.9388,3.9388,3.9388,3.9388,3.9388,3.9388,3.9388,3.9388,3.9388,3.9388,3.9388,3.9388,3.9388,3.9388,3.9388,3.9388,3.9388,3.9388,3.9388,3.9388,3.9388,3.9388,3.9388,3.9388,3.9388,3.9388,3.9388,3.9388,3.9388,3.9388,3.946,3.9517,3.9747,3.9925,4.0101,4.0261,4.0401,4.0489,4.0489,4.0489,4.0489,4.0489,4.0489,4.0489,4.0489,4.0612,4.0888,4.1492,4.2141,4.2831,4.3512,4.403,4.4423,4.4598,4.4598,4.4598,4.4598,4.4598,4.4598,4.4598,4.4598,4.4598,4.4598,4.4598,4.4598,4.4598,4.4598,4.4598,4.4598,4.4598,4.4598,4.4598,4.4609,4.4692,4.4637,4.5035,4.5858,4.6288,4.6483,4.7281,4.8248,4.8324,4.8324,4.8324,4.8324,4.8324,4.8324,4.8324,4.8324,4.8324,4.8324,4.8324,4.8324,3.5427,3.5775,3.7438,3.8165,3.8225,3.8523,3.8575,3.8516,3.8885,3.9031,3.9053,3.9265,3.9388,3.9388,3.9388,3.9388,3.9388,3.9388,3.9388,3.9388,3.9388,3.9388,3.9388,3.9388,3.9388,3.9388,3.9388,3.9388,3.9388,3.9388,3.9388,3.9388,3.9388,3.9388,3.9388,3.9388,3.9388,3.9388,3.9388,3.9388,3.9388,3.9388,3.9388,3.9388,3.9388,3.9388,3.9388,3.9388,3.9388,3.9388,3.9388,3.9388,3.9424,3.946,3.9589,3.9768,3.9996,4.0172,4.0331,4.042,4.0489,4.0489,4.0489,4.0489,4.0489,4.0489,4.0558,4.0749,4.1142,4.1836,4.2458,4.3152,4.3781,4.4207,4.4598,4.4598,4.4598,4.4598,4.4598,4.4598,4.4598,4.4598,4.4598,4.4598,4.4598,4.4598,4.4598,4.4598,4.4598,4.4598,4.4598,4.4598,4.4598,4.4598,4.4598,4.4609,4.4637,4.5025,4.5775,4.6112,4.6413,4.7367,4.8324,4.8324,4.8324,4.8324,4.8324,4.8324,4.8324,4.8324,4.8324,4.8324,4.8324,4.8324,4.8324,3.5628,3.5855,3.7706,3.8427,3.8389,3.8686,3.8797,3.8811,3.8995,3.9141,3.9213,3.9337,3.9388,3.9388,3.9388,3.9388,3.9388,3.9388,3.9388,3.9388,3.9388,3.9388,3.9388,3.9388,3.9388,3.9388,3.9388,3.9388,3.9388,3.9388,3.9388,3.9388,3.9388,3.9388,3.9388,3.9388,3.9388,3.9388,3.9388,3.9388,3.9388,3.9388,3.9388,3.9388,3.9388,3.9388,3.9388,3.9388,3.9388,3.9388,3.9388,3.9388,3.9388,3.9424,3.9532,3.9696,3.9874,4.0066,4.0261,4.0401,4.0505,4.0489,4.0489,4.0489,4.0489,4.0489,4.0489,4.0715,4.1608,4.2332,4.2738,4.3333,4.3989,4.4514,4.4598,4.4598,4.4598,4.4598,4.4598,4.4598,4.4598,4.4598,4.4598,4.4598,4.4598,4.4598,4.4598,4.4598,4.4598,4.4598,4.4598,4.4598,4.4598,4.4598,4.4598,4.4637,4.4703,4.5178,4.5691,4.6489,4.7124,4.7756,4.8324,4.8324,4.8324,4.8324,4.8324,4.8324,4.8324,4.8324,4.8324,4.8324,4.8324,4.8324,4.8324,3.5735,3.6174,3.7782,3.8516,3.8553,3.8723,3.8943,3.9068,3.9141,3.9213,3.9373,3.9388,3.9388,3.9388,3.9388,3.9388,3.9388,3.9388,3.9388,3.9388,3.9388,3.9388,3.9388,3.9388,3.9388,3.9388,3.9388,3.9388,3.9388,3.9388,3.9388,3.9388,3.9388,3.9388,3.9388,3.9388,3.9388,3.9388,3.9388,3.9388,3.9388,3.9388,3.9388,3.9388,3.9388,3.9388,3.9388,3.9388,3.9388,3.9388,3.9388,3.9388,3.9388,3.9388,3.9481,3.9625,3.9889,4.0066,4.0226,4.0401,4.047,4.0489,4.0489,4.0489,4.0489,4.0524,4.0524,4.1091,4.1981,4.2645,4.3045,4.3575,4.4224,4.4587,4.4598,4.4598,4.4598,4.4598,4.4598,4.4598,4.4598,4.4598,4.4598,4.4598,4.4598,4.4598,4.4598,4.4598,4.4598,4.4598,4.4598,4.4598,4.4598,4.4598,4.4598,4.4637,4.472,4.5106,4.5665,4.6809,4.7749,4.8072,4.8286,4.8324,4.8324,4.8324,4.8324,4.8324,4.8324,4.8324,4.8324,4.8324,4.8324,4.8324,4.8324,3.6425,3.7758,3.8329,3.8516,3.8553,3.887,3.9068,3.9141,3.9265,3.9388,3.9388,3.9388,3.9388,3.9388,3.9388,3.9388,3.9388,3.9388,3.9388,3.9388,3.9388,3.9388,3.9388,3.9388,3.9388,3.9388,3.9388,3.9388,3.9388,3.9388,3.9388,3.9388,3.9388,3.9388,3.9388,3.9388,3.9388,3.9388,3.9388,3.9388,3.9388,3.9388,3.9388,3.9388,3.9388,3.9388,3.9388,3.9388,3.9388,3.9388,3.9388,3.9388,3.9388,3.9388,3.946,3.9568,3.9833,4.0011,4.0172,4.0366,4.0455,4.0489,4.0489,4.0489,4.0524,4.0593,4.0836,4.1393,4.2205,4.2831,4.3303,4.3989,4.4587,4.457,4.4598,4.4598,4.4598,4.4598,4.4598,4.4598,4.4598,4.4598,4.4598,4.4598,4.4598,4.4598,4.4598,4.4598,4.4598,4.4598,4.4598,4.4598,4.4598,4.4598,4.4598,4.4598,4.472,4.5079,4.5734,4.6941,4.777,4.8052,4.8228,4.8267,4.8324,4.8324,4.8324,4.8324,4.8324,4.8324,4.8324,4.8324,4.8324,4.8324,4.8324]}]]